[[{"header":{"parameterUnit":"m.s-1","parameterCategory":1,"la1":30.6,"la2":28.766,"lo1":-90.7593,"lo2":-88.6598,"dy":0.0162,"dx":0.0183,"nx":116,"ny":114,"refTime":"2023-10-08T06:00:00:Z","depth":0,"parameterNumber":2,"parameterNumberName":"U-component_of_WINDS"},"data":[0.0,0.0,0.0,0.0,0.0,0.0,0.0,0.0,0.0,0.0,0.0,0.0,0.0,0.0,0.0,0.0,0.0,0.0,0.0,0.0,0.0,0.0,0.0,0.0,0.0,0.0,0.0,0.0,0.0,0.0,0.0,0.0,0.0,0.0,0.0,0.0,0.0,0.0,0.0,0.0,0.0,0.0,0.0,0.0,0.0,0.0,0.0,0.0,0.0,0.0,0.0,0.0,0.0,0.0,0.0,0.0,0.0,0.0,0.0,0.0,0.0,0.0,0.0,0.0,0.0,0.0,0.0,0.0,0.0,0.0,0.0,0.0,0.0,0.0,0.0,0.0,0.0,0.0,0.0,0.0,0.0,0.0,0.0,0.0,0.0,0.0,0.0,0.0,0.0,0.0,0.0,0.0,0.0,0.0,0.0,0.0,0.0,0.0,0.0,0.0,0.0,0.0,0.0,0.0,0.0,0.0,0.0,0.0,0.0,0.0,0.0,0.0,0.0,0.0,0.0,0.0,0.0,0.0,0.0,0.0,0.0,0.0,0.0,0.0,0.0,0.0,0.0,0.0,0.0,0.0,0.0,0.0,0.0,0.0,0.0,0.0,0.0,0.0,0.0,0.0,0.0,0.0,0.0,0.0,0.0,0.0,0.0,0.0,0.0,0.0,0.0,0.0,0.0,0.0,0.0,0.0,0.0,0.0,0.0,0.0,0.0,0.0,0.0,0.0,0.0,0.0,0.0,0.0,0.0,0.0,0.0,0.0,0.0,0.0,0.0,0.0,0.0,0.0,0.0,0.0,0.0,0.0,0.0,0.0,0.0,0.0,0.0,0.0,0.0,0.0,0.0,0.0,0.0,0.0,0.0,0.0,0.0,0.0,0.0,0.0,0.0,0.0,0.0,0.0,0.0,0.0,0.0,0.0,0.0,0.0,0.0,0.0,0.0,0.0,0.0,0.0,0.0,0.0,0.0,0.0,0.0,0.0,0.0,0.0,0.0,0.0,0.0,0.0,0.0,0.0,0.0,0.0,0.0,0.0,0.0,0.0,0.0,0.0,0.0,0.0,0.0,0.0,0.0,0.0,0.0,0.0,0.0,0.0,0.0,0.0,0.0,0.0,0.0,0.0,0.0,0.0,0.0,0.0,0.0,0.0,0.0,0.0,0.0,0.0,0.0,0.0,0.0,0.0,0.0,0.0,0.0,0.0,0.0,0.0,0.0,0.0,0.0,0.0,0.0,0.0,0.0,0.0,0.0,0.0,0.0,0.0,0.0,0.0,0.0,0.0,0.0,0.0,0.0,0.0,0.0,0.0,0.0,0.0,0.0,0.0,0.0,0.0,0.0,0.0,0.0,0.0,0.0,0.0,0.0,0.0,0.0,0.0,0.0,0.0,0.0,0.0,0.0,0.0,0.0,0.0,0.0,0.0,0.0,0.0,0.0,0.0,0.0,0.0,0.0,0.0,0.0,0.0,0.0,0.0,0.0,0.0,0.0,0.0,0.0,0.0,0.0,0.0,0.0,0.0,0.0,0.0,0.0,0.0,0.0,0.0,0.0,0.0,0.0,0.0,0.0,0.0,0.0,0.0,0.0,0.0,0.0,0.0,0.0,0.0,0.0,0.0,0.0,0.0,0.0,0.0,0.0,0.0,0.0,0.0,0.0,0.0,0.0,0.0,0.0,0.0,0.0,0.0,0.0,0.0,0.0,0.0,0.0,0.0,0.0,0.0,0.0,0.0,0.0,0.0,0.0,0.0,0.0,0.0,0.0,0.0,0.0,0.0,0.0,0.0,0.0,0.0,0.0,0.0,0.0,0.0,0.0,0.0,0.0,0.0,0.0,0.0,0.0,0.0,0.0,0.0,0.0,0.0,0.0,0.0,0.0,0.0,0.0,0.0,0.0,0.0,0.0,0.0,0.0,0.0,0.0,0.0,0.0,0.0,0.0,0.0,0.0,0.0,0.0,0.0,0.0,0.0,0.0,0.0,0.0,0.0,0.0,0.0,0.0,0.0,0.0,0.0,0.0,0.0,0.0,0.0,0.0,0.0,0.0,0.0,0.0,0.0,0.0,0.0,0.0,0.0,0.0,0.0,0.0,0.0,0.0,0.0,0.0,0.0,0.0,0.0,0.0,0.0,0.0,0.0,0.0,0.0,0.0,0.0,0.0,0.0,0.0,0.0,0.0,0.0,0.0,0.0,0.0,0.0,0.0,0.0,0.0,0.0,0.0,0.0,0.0,0.0,0.0,0.0,0.0,0.0,0.0,0.0,0.0,0.0,0.0,0.0,0.0,0.0,0.0,0.0,0.0,0.0,0.0,0.0,0.0,0.0,0.0,0.0,0.0,0.0,0.0,0.0,0.0,0.0,0.0,0.0,0.0,0.0,0.0,0.0,0.0,0.0,0.0,0.0,0.0,0.0,0.0,0.0,0.0,0.0,0.0,0.0,0.0,0.0,0.0,0.0,0.0,0.0,0.0,0.0,0.0,0.0,0.0,0.0,0.0,0.0,0.0,0.0,0.0,0.0,0.0,0.0,0.0,0.0,0.0,0.0,0.0,0.0,0.0,0.0,0.0,0.0,0.0,0.0,0.0,0.0,0.0,0.0,0.0,0.0,0.0,0.0,0.0,0.0,0.0,0.0,0.0,0.0,0.0,0.0,0.0,0.0,0.0,0.0,0.0,0.0,0.0,0.0,0.0,0.0,0.0,0.0,0.0,0.0,0.0,0.0,0.0,0.0,0.0,0.0,0.0,0.0,0.0,0.0,0.0,0.0,0.0,0.0,0.0,0.0,0.0,0.0,0.0,0.0,0.0,0.0,0.0,0.0,0.0,0.0,0.0,0.0,0.0,0.0,0.0,0.0,0.0,0.0,0.0,0.0,0.0,0.0,0.0,0.0,0.0,0.0,0.0,0.0,0.0,0.0,0.0,0.0,0.0,0.0,0.0,0.0,0.0,0.0,0.0,0.0,0.0,0.0,0.0,0.0,0.0,0.0,0.0,0.0,0.0,0.0,0.0,0.0,0.0,0.0,0.0,0.0,0.0,0.0,0.0,0.0,0.0,0.0,0.0,0.0,0.0,0.0,0.0,0.0,0.0,0.0,0.0,0.0,0.0,0.0,0.0,0.0,0.0,0.0,0.0,0.0,0.0,0.0,0.0,0.0,0.0,0.0,0.0,0.0,0.0,0.0,0.0,0.0,0.0,0.0,0.0,0.0,0.0,0.0,0.0,0.0,0.0,0.0,0.0,0.0,0.0,0.0,0.0,0.0,0.0,0.0,0.0,0.0,0.0,0.0,0.0,0.0,0.0,0.0,0.0,0.0,0.0,0.0,0.0,0.0,0.0,0.0,0.0,0.0,0.0,0.0,0.0,0.0,0.0,0.0,0.0,0.0,0.0,0.0,0.0,0.0,0.0,0.0,0.0,0.0,0.0,0.0,0.0,0.0,0.0,0.0,0.0,0.0,0.0,0.0,0.0,0.0,0.0,0.0,0.0,0.0,0.0,0.0,0.0,0.0,0.0,0.0,0.0,0.0,0.0,0.0,0.0,0.0,0.0,0.0,0.0,0.0,0.0,0.0,0.0,0.0,0.0,0.0,0.0,0.0,0.0,0.0,0.0,0.0,0.0,0.0,0.0,0.0,0.0,0.0,0.0,0.0,0.0,0.0,0.0,0.0,0.0,0.0,0.0,0.0,0.0,0.0,0.0,0.0,0.0,0.0,0.0,0.0,0.0,0.0,0.0,0.0,0.0,0.0,0.0,0.0,0.0,0.0,0.0,0.0,0.0,0.0,0.0,0.0,0.0,0.0,0.0,0.0,0.0,0.0,0.0,0.0,0.0,0.0,0.0,0.0,0.0,0.0,0.0,0.0,0.0,0.0,0.0,0.0,0.0,0.0,0.0,0.0,0.0,0.0,0.0,0.0,0.0,0.0,0.0,0.0,0.0,0.0,0.0,0.0,0.0,0.0,0.0,0.0,0.0,0.0,0.0,0.0,0.0,0.0,0.0,0.0,0.0,0.0,0.0,0.0,0.0,0.0,0.0,0.0,0.0,0.0,0.0,0.0,0.0,0.0,0.0,0.0,0.0,0.0,0.0,0.0,0.0,0.0,0.0,0.0,0.0,0.0,0.0,0.0,0.0,0.0,0.0,0.0,0.0,0.0,0.0,0.0,0.0,0.0,0.0,0.0,0.0,0.0,0.0,0.0,0.0,0.0,0.0,0.0,0.0,0.0,0.0,0.0,0.0,0.0,0.0,0.0,0.0,0.0,0.0,0.0,0.0,0.0,0.0,0.0,0.0,0.0,0.0,0.0,0.0,0.0,0.0,0.0,0.0,0.0,0.0,0.0,0.0,0.0,0.0,0.0,0.0,0.0,0.0,0.0,0.0,0.0,0.0,0.0,0.0,0.0,0.0,0.0,0.0,0.0,0.0,0.0,0.0,0.0,0.0,0.0,0.0,0.0,0.0,0.0,0.0,0.0,0.0,0.0,0.0,0.0,0.0,0.0,0.0,0.0,0.0,0.0,0.0,0.0,0.0,0.0,0.0,0.0,0.0,0.0,0.0,0.0,0.0,0.0,0.0,0.0,0.0,0.0,0.0,0.0,0.0,0.0,0.0,0.0,0.0,0.0,0.0,0.0,0.0,0.0,0.0,0.0,0.0,0.0,0.0,0.0,0.0,0.0,0.0,0.0,0.0,0.0,0.0,0.0,0.0,0.0,0.0,0.0,0.0,0.0,0.0,0.0,0.0,0.0,0.0,0.0,0.0,0.0,0.0,0.0,0.0,0.0,0.0,0.0,0.0,0.0,0.0,0.0,0.0,0.0,0.0,0.0,0.0,0.0,0.0,0.0,0.0,0.0,0.0,0.0,0.0,0.0,0.0,0.0,0.0,0.0,0.0,0.0,0.0,0.0,0.0,0.0,0.0,0.0,0.0,0.0,0.0,0.0,0.0,0.0,0.0,0.0,0.0,0.0,0.0,0.0,0.0,0.0,0.0,0.0,0.0,0.0,0.0,0.0,0.0,0.0,0.0,0.0,0.0,0.0,0.0,0.0,0.0,0.0,0.0,0.0,0.0,0.0,0.0,0.0,0.0,0.0,0.0,0.0,0.0,0.0,0.0,0.0,0.0,0.0,0.0,0.0,0.0,0.0,0.0,0.0,0.0,0.0,0.0,0.0,0.0,0.0,0.0,0.0,0.0,0.0,0.0,0.0,0.0,0.0,0.0,0.0,0.0,0.0,0.0,0.0,0.0,0.0,0.0,0.0,0.0,0.0,0.0,0.0,0.0,0.0,0.0,0.0,0.0,0.0,0.0,0.0,0.0,0.0,0.0,0.0,0.0,0.0,0.0,0.0,0.0,0.0,0.0,0.0,0.0,0.0,0.0,0.0,0.0,0.0,0.0,0.0,0.0,0.0,0.0,0.0,0.0,0.0,0.0,0.0,0.0,0.0,0.0,0.0,0.0,0.0,0.0,0.0,0.0,0.0,0.0,0.0,0.0,0.0,0.0,0.0,0.0,0.0,0.0,0.0,0.0,0.0,0.0,0.0,0.0,0.0,0.0,0.0,0.0,0.0,0.0,0.0,0.0,0.0,0.0,0.0,0.0,0.0,0.0,0.0,0.0,0.0,0.0,0.0,0.0,0.0,0.0,0.0,0.0,0.0,0.0,0.0,0.0,0.0,0.0,0.0,0.0,0.0,0.0,0.0,0.0,0.0,0.0,0.0,0.0,0.0,0.0,0.0,0.0,0.0,0.0,0.0,0.0,0.0,0.0,0.0,0.0,0.0,0.0,0.0,0.0,0.0,0.0,0.0,0.0,0.0,0.0,0.0,0.0,0.0,0.0,0.0,0.0,0.0,0.0,0.0,0.0,0.0,0.0,0.0,0.0,0.0,0.0,0.0,0.0,0.0,0.0,0.0,0.0,0.0,0.0,0.0,0.0,0.0,0.0,0.0,0.0,0.0,0.0,0.0,0.0,0.0,0.0,0.0,0.0,0.0,0.0,0.0,0.0,0.0,0.0,0.0,0.0,0.0,0.0,0.0,0.0,0.0,0.0,0.0,0.0,0.0,0.0,0.0,0.0,0.0,0.0,0.0,0.0,0.0,4.0537,4.1595,0.0,0.0,0.0,0.0,0.0,0.0,0.0,0.0,0.0,0.0,0.0,0.0,0.0,0.0,0.0,0.0,0.0,0.0,0.0,0.0,0.0,0.0,0.0,0.0,0.0,0.0,0.0,0.0,0.0,0.0,0.0,0.0,0.0,0.0,0.0,0.0,0.0,0.0,3.6,3.5963,3.5575,3.6298,3.7114,3.7916,0.0,0.0,0.0,0.0,0.0,0.0,0.0,0.0,0.0,0.0,0.0,0.0,0.0,0.0,0.0,0.0,0.0,0.0,0.0,0.0,0.0,0.0,0.0,0.0,0.0,0.0,0.0,0.0,0.0,0.0,0.0,0.0,0.0,0.0,0.0,0.0,0.0,0.0,0.0,0.0,0.0,0.0,0.0,0.0,0.0,0.0,0.0,0.0,0.0,0.0,0.0,0.0,0.0,0.0,0.0,0.0,0.0,0.0,0.0,0.0,0.0,0.0,0.0,0.0,0.0,0.0,0.0,0.0,0.0,0.0,3.8376,3.9284,0.0,0.0,0.0,0.0,0.0,0.0,0.0,0.0,0.0,0.0,0.0,0.0,0.0,0.0,0.0,0.0,0.0,0.0,0.0,0.0,0.0,0.0,0.0,0.0,3.2627,3.2491,3.3288,3.3785,0.0,0.0,0.0,0.0,0.0,0.0,0.0,3.6575,3.6873,3.6599,3.658,3.6711,3.7052,3.7751,3.819,3.8394,3.8665,0.0,0.0,0.0,0.0,0.0,0.0,0.0,0.0,0.0,0.0,0.0,0.0,0.0,0.0,0.0,0.0,0.0,0.0,0.0,0.0,0.0,0.0,0.0,0.0,0.0,0.0,0.0,0.0,0.0,0.0,0.0,0.0,0.0,0.0,0.0,0.0,0.0,0.0,0.0,0.0,0.0,0.0,0.0,0.0,0.0,0.0,0.0,0.0,0.0,0.0,0.0,0.0,0.0,0.0,0.0,0.0,0.0,0.0,0.0,0.0,0.0,0.0,0.0,4.4533,4.3992,4.6841,4.4337,4.2915,4.234,4.0352,4.0324,4.1765,4.322,0.0,0.0,0.0,0.0,0.0,0.0,0.0,0.0,0.0,0.0,0.0,0.0,0.0,0.0,0.0,0.0,0.0,0.0,0.0,0.0,0.0,3.2994,3.3936,3.3316,3.4523,3.5301,0.0,0.0,0.0,0.0,0.0,0.0,3.662,3.7381,3.7119,3.5827,3.5681,3.6542,3.8371,3.8976,3.9612,4.0181,3.8634,3.8588,3.9559,0.0,0.0,0.0,0.0,0.0,0.0,0.0,0.0,0.0,0.0,0.0,0.0,0.0,0.0,0.0,0.0,0.0,0.0,0.0,0.0,0.0,0.0,0.0,0.0,0.0,0.0,0.0,0.0,0.0,0.0,0.0,0.0,0.0,0.0,0.0,0.0,0.0,0.0,0.0,0.0,0.0,3.4285,3.9463,0.0,0.0,0.0,0.0,0.0,0.0,0.0,0.0,0.0,0.0,0.0,0.0,0.0,4.1649,4.3965,4.3999,4.5684,4.9018,5.0879,5.3289,5.6131,5.5725,5.4169,5.186,5.4025,0.0,4.7462,4.2672,0.0,0.0,0.0,0.0,0.0,0.0,0.0,0.0,0.0,0.0,0.0,0.0,0.0,0.0,0.0,0.0,0.0,0.0,0.0,0.0,0.0,3.4027,3.5008,3.4658,3.6789,3.7606,3.6366,3.6744,0.0,0.0,0.0,3.6186,3.7387,3.7273,3.7451,3.7886,3.8965,3.9724,4.019,4.0859,4.1127,4.1015,4.0175,3.9815,3.9731,3.882,0.0,0.0,0.0,0.0,0.0,0.0,0.0,0.0,0.0,0.0,0.0,0.0,0.0,0.0,0.0,0.0,0.0,0.0,0.0,0.0,0.0,0.0,0.0,0.0,0.0,0.0,0.0,0.0,0.0,0.0,0.0,0.0,0.0,0.0,0.0,0.0,0.0,0.0,0.0,3.4998,3.5278,3.9599,4.0113,4.0113,0.0,0.0,0.0,0.0,0.0,0.0,0.0,0.0,0.0,4.5,4.6759,4.906,5.2045,5.2079,5.356,5.6571,5.9539,6.1661,6.2888,6.2888,6.2212,6.1052,6.2347,6.0486,5.5928,4.8248,4.389,4.2103,0.0,0.0,0.0,0.0,4.2496,4.378,0.0,0.0,0.0,0.0,0.0,0.0,0.0,0.0,0.0,0.0,0.0,0.0,3.3049,3.4745,3.5825,3.5813,3.8036,3.8754,3.7082,3.7894,0.0,0.0,3.6403,3.6794,3.8153,3.774,3.8259,3.985,4.186,4.2532,4.1928,4.2964,4.3088,4.2391,4.2391,4.1687,4.0419,3.973,3.9394,3.9279,0.0,0.0,0.0,0.0,0.0,0.0,0.0,0.0,0.0,0.0,0.0,0.0,0.0,0.0,0.0,0.0,0.0,0.0,0.0,0.0,0.0,0.0,0.0,0.0,0.0,0.0,0.0,0.0,0.0,0.0,0.0,0.0,0.0,0.0,0.0,0.0,0.0,3.6106,3.6704,3.9739,4.0768,4.0959,0.0,0.0,0.0,0.0,0.0,0.0,4.2306,4.3822,4.7037,5.2266,5.5344,5.7949,6.0157,6.0936,6.2448,6.4681,6.6903,6.7941,6.7909,6.6476,6.5851,6.5851,6.5851,6.4972,6.2888,5.4668,4.8214,4.3653,4.5142,4.5717,4.5447,4.3213,4.2882,4.3856,0.0,0.0,0.0,0.0,0.0,0.0,0.0,0.0,0.0,0.0,0.0,3.2316,3.2362,3.481,3.6422,3.6356,3.7145,3.7596,3.7461,3.7075,3.6767,3.6701,3.7404,3.8159,3.8943,3.941,3.9929,4.0538,4.2376,4.3268,4.3339,4.5236,4.5755,4.5105,4.5105,4.4048,4.2086,3.9553,3.9269,4.0304,3.774,0.0,0.0,0.0,0.0,0.0,0.0,0.0,0.0,0.0,0.0,0.0,0.0,0.0,0.0,0.0,0.0,0.0,0.0,0.0,0.0,0.0,0.0,0.0,0.0,0.0,0.0,0.0,0.0,0.0,0.0,0.0,0.0,0.0,0.0,0.0,0.0,0.0,0.0,3.973,4.2634,0.0,0.0,0.0,0.0,3.6045,3.847,4.257,4.824,5.3932,5.8475,6.1612,6.458,6.6193,6.6362,6.9203,7.0692,7.0861,7.0996,7.1064,7.0906,6.566,6.3297,6.3297,6.3297,6.4525,6.6092,5.9979,5.5624,5.257,4.983,4.8781,4.8748,4.8612,5.0371,5.2841,0.0,0.0,0.0,0.0,0.0,0.0,0.0,0.0,3.1016,3.2437,3.3206,3.4355,3.6149,3.8018,3.9497,4.0317,4.0793,4.0594,3.9546,3.8625,3.8104,3.805,3.7501,3.7889,3.9364,4.0799,4.2226,4.361,4.5579,4.6741,4.7211,4.79,4.8098,4.787,4.787,4.7001,4.5345,4.2271,4.0828,4.0447,3.8634,3.8539,0.0,0.0,0.0,0.0,0.0,0.0,0.0,0.0,0.0,0.0,0.0,0.0,0.0,0.0,0.0,0.0,0.0,0.0,0.0,0.0,0.0,0.0,0.0,0.0,0.0,0.0,0.0,0.0,0.0,0.0,0.0,0.0,0.0,0.0,0.0,0.0,0.0,5.2278,5.1405,0.0,4.3457,4.2097,4.3071,4.6846,4.9872,5.3331,5.7417,6.1434,6.5009,6.8019,6.9136,6.9711,6.9711,6.7239,6.6026,6.6026,6.6026,6.6026,6.5973,6.4001,6.3108,6.3108,6.3108,6.359,6.4105,6.0256,5.8895,5.9109,5.8051,5.7611,5.7383,5.5446,5.6639,5.8939,0.0,0.0,0.0,0.0,0.0,0.0,0.0,0.0,3.0798,3.2773,3.3992,3.5571,3.7951,3.9993,4.1642,4.2767,4.2623,4.1903,4.0605,3.9482,3.8606,3.8083,3.8102,3.8679,3.9825,4.2466,4.4658,4.6302,4.8297,4.9505,4.9954,5.0175,5.0175,4.9924,4.9924,4.9314,4.8136,4.5744,4.3503,4.1405,3.9589,3.9652,4.0388,0.0,0.0,0.0,0.0,0.0,0.0,0.0,0.0,0.0,0.0,0.0,0.0,0.0,0.0,0.0,0.0,0.0,0.0,0.0,0.0,0.0,0.0,0.0,0.0,0.0,0.0,0.0,0.0,0.0,0.0,0.0,0.0,0.0,0.0,4.8021,5.2315,5.8268,5.5805,5.1627,4.6582,4.427,4.7233,5.723,6.0757,6.3294,6.529,6.5499,6.6474,6.8471,6.8536,6.8536,6.8536,6.4909,6.3108,6.3108,6.3108,6.3108,6.3108,6.3108,6.3108,6.3108,6.3108,6.3108,6.2944,6.1178,6.1309,6.2728,6.3572,6.3869,6.3632,6.1637,6.2178,6.3463,0.0,0.0,0.0,0.0,0.0,0.0,0.0,3.0084,3.0591,3.2126,3.4037,3.5819,3.738,4.0462,4.2734,4.3489,4.2241,4.1154,4.0487,3.9336,3.8109,3.6754,3.9274,4.0668,4.054,4.4458,4.7076,4.8275,5.0193,5.1118,5.1148,5.1864,5.1846,5.1207,5.1254,5.0936,5.0267,4.9655,4.7181,4.3429,4.0687,4.074,4.2172,0.0,0.0,0.0,0.0,0.0,0.0,0.0,0.0,0.0,0.0,0.0,0.0,0.0,0.0,0.0,0.0,0.0,0.0,0.0,0.0,0.0,0.0,0.0,0.0,0.0,0.0,0.0,0.0,0.0,0.0,0.0,0.0,0.0,4.6519,4.9913,5.3462,5.6537,5.5208,5.2856,4.9854,4.681,5.1034,6.5602,6.9378,7.1041,7.1041,6.5999,6.3108,6.3108,6.3108,6.3138,6.3227,6.3138,6.3138,6.3227,6.3227,6.3227,6.3227,6.3138,6.3108,6.3108,6.3108,6.3108,6.3108,6.3108,6.3108,6.3379,6.5936,6.6937,6.6937,6.6937,6.6859,6.6396,0.0,0.0,0.0,0.0,0.0,0.0,0.0,2.9613,2.9725,3.2699,3.4845,3.7344,4.0659,4.3534,4.5681,4.6852,4.3988,4.2052,4.1862,3.8446,3.7104,3.8698,3.9977,4.1655,4.3826,4.541,4.6778,4.7944,4.8965,4.9454,4.9508,5.1244,5.1686,5.1117,5.2692,5.2982,5.2336,5.169,5.075,4.9374,4.4785,4.3053,4.3026,0.0,0.0,0.0,0.0,0.0,0.0,0.0,0.0,0.0,0.0,0.0,0.0,0.0,0.0,0.0,0.0,0.0,0.0,0.0,0.0,0.0,0.0,0.0,0.0,0.0,0.0,0.0,0.0,0.0,0.0,0.0,4.8982,5.0698,5.0815,5.3285,5.6207,5.9113,5.925,5.9837,6.1711,5.7273,5.6978,6.3607,6.4897,6.5328,6.5328,6.3916,6.3108,6.3108,6.3108,6.3991,6.5907,6.4051,6.4051,6.5937,6.5937,6.5937,6.5877,6.3961,6.3108,6.3108,6.3108,6.3108,6.3108,6.3108,6.3108,6.3544,6.8242,7.0072,7.0072,7.0072,6.8685,6.6667,0.0,0.0,0.0,0.0,0.0,0.0,0.0,3.0048,3.0037,3.2973,3.5833,3.8839,4.2037,4.4991,4.6909,4.7429,4.4357,4.2052,4.1194,3.8357,3.7944,4.0699,4.1626,4.3284,4.5902,4.6747,4.7745,4.8978,4.9583,5.0037,5.034,5.158,5.1946,5.1675,5.3605,5.4066,5.3486,5.3734,5.3725,5.3144,4.9781,4.7751,4.6488,4.4378,4.3735,4.3747,4.2288,4.2322,4.2728,4.0742,0.0,0.0,0.0,0.0,0.0,0.0,0.0,0.0,0.0,0.0,0.0,0.0,0.0,0.0,0.0,0.0,0.0,0.0,0.0,0.0,0.0,0.0,0.0,0.0,5.2491,5.4836,5.651,5.7491,5.9103,6.184,6.204,6.3718,6.8233,6.3472,6.1379,6.451,6.4739,6.4739,6.4739,6.4739,6.4739,6.4739,6.4739,6.5458,6.6984,6.5488,6.5488,6.7014,6.7014,6.7014,6.6954,6.5428,6.4739,6.468,6.3587,6.3108,6.3108,6.3108,6.3108,6.3422,0.0,0.0,0.0,0.0,6.6773,6.5098,0.0,0.0,0.0,0.0,0.0,0.0,0.0,3.0783,3.0898,3.3112,3.6785,3.9999,4.2049,4.5225,4.6939,4.636,4.3848,4.1463,3.9541,3.8892,3.9859,4.2642,4.3913,4.5348,4.7089,4.8196,4.9268,5.0304,5.0901,5.1473,5.1982,5.2293,5.2393,5.241,5.4078,5.4588,5.4332,5.567,5.6055,5.5688,5.5029,5.3431,5.1098,4.8095,4.759,4.8192,4.5779,4.4318,4.3363,4.2422,0.0,0.0,0.0,0.0,0.0,0.0,0.0,0.0,0.0,0.0,0.0,0.0,0.0,0.0,0.0,0.0,0.0,0.0,0.0,0.0,0.0,0.0,0.0,0.0,5.6007,5.8787,6.257,6.2185,6.2307,6.4435,6.3886,6.5239,7.0121,6.656,6.4949,6.7284,6.7433,6.7313,6.7014,6.7268,0.0,0.0,0.0,6.7313,6.7014,6.7298,6.7433,6.7433,6.7433,6.7433,6.7433,6.7433,6.7268,6.6864,6.453,6.3363,6.3108,6.3108,6.3108,6.3108,6.3108,6.3108,6.3108,6.3108,6.3108,6.2718,0.0,0.0,0.0,0.0,0.0,0.0,0.0,3.0255,3.0581,3.3701,3.672,3.9352,4.1362,4.4526,4.645,4.63,4.3419,4.0975,3.9511,3.9789,4.135,4.4312,4.62,4.7414,4.7956,4.9136,4.9292,4.8421,4.9454,4.9802,4.9532,5.1708,5.2423,5.1998,5.4062,5.5666,5.6852,5.663,5.7551,5.9083,5.8411,5.6017,5.2677,5.1498,5.0266,4.8993,4.7929,4.7933,4.8061,4.5575,4.5523,4.6028,4.3698,4.2302,0.0,0.0,0.0,0.0,0.0,0.0,0.0,0.0,0.0,0.0,0.0,0.0,0.0,0.0,0.0,0.0,0.0,0.0,0.0,5.7395,6.0481,6.3179,6.5784,6.6388,6.6357,6.5767,6.5066,6.5046,6.6124,6.8137,6.9602,7.0111,7.0141,6.9213,6.7119,6.9004,7.0141,7.0141,7.0141,6.9123,6.7014,6.9093,7.0141,7.0141,7.0141,0.0,7.0141,7.0141,6.9004,6.6969,6.6475,6.5039,6.3108,6.3108,6.3108,6.3108,6.3108,6.3108,6.3108,6.3108,6.3108,6.2718,0.0,0.0,0.0,0.0,0.0,0.0,0.0,3.0996,3.1164,3.351,3.5929,3.8191,4.0187,4.2462,4.3708,4.3379,4.1235,3.9732,3.9341,4.1102,4.3498,4.6516,4.7807,4.8945,4.9981,5.0116,4.9869,4.9147,5.0017,5.0309,5.0091,5.1416,5.1875,5.1634,5.347,5.4778,5.5682,5.7001,5.8219,5.9353,5.9888,5.8919,5.7034,5.6047,5.461,5.3109,5.2468,5.1512,5.0219,4.8439,4.7814,4.7451,4.5675,4.4258,4.309,0.0,0.0,0.0,0.0,0.0,0.0,0.0,0.0,0.0,0.0,0.0,0.0,0.0,0.0,4.5057,4.7235,0.0,4.9648,5.8322,6.396,6.7441,6.7915,6.8301,6.8002,6.667,6.6191,6.6505,6.7821,6.9736,7.0889,7.0889,7.0889,7.032,6.9004,7.0201,7.0889,7.0889,7.0889,7.026,6.8944,7.026,7.0889,7.0889,7.0889,7.0889,7.0889,7.0889,6.9482,6.7014,6.7014,6.6266,6.4949,6.3632,6.3108,6.3108,6.3108,6.3108,6.3108,6.3108,6.3108,6.2718,0.0,0.0,0.0,0.0,0.0,0.0,0.0,3.1831,3.1914,3.3301,3.5263,3.7144,3.8823,4.0343,4.0925,4.0103,3.9161,3.8986,3.9865,4.265,4.559,4.8545,4.9331,5.0346,5.1664,5.1055,5.0678,5.0553,5.1272,5.1565,5.1465,5.1548,5.1599,5.1666,5.2897,5.3706,5.4302,5.6941,5.8303,5.8836,6.0239,6.0746,6.054,5.9436,5.8466,5.7586,5.6838,5.4431,5.1517,5.0966,4.9472,4.7813,4.7497,4.6485,4.5173,4.3831,4.3698,0.0,0.0,0.0,0.0,0.0,0.0,0.0,0.0,4.6817,4.8055,5.0289,4.9763,5.0575,5.5969,5.0818,4.9354,6.0478,6.7133,7.0555,6.951,6.9363,6.8974,6.7912,6.7762,6.8585,7.0709,7.0889,7.1128,7.1637,7.1667,7.1457,7.0919,7.0889,7.0889,7.0889,7.0889,7.0889,7.0889,7.0889,7.0889,7.0889,7.0889,7.0889,7.0889,7.0889,6.9752,6.7717,6.7208,6.7014,6.6805,6.4171,6.3108,6.3108,6.3108,6.3108,6.3108,6.3108,6.3108,6.2794,0.0,0.0,0.0,0.0,0.0,0.0,0.0,0.0,3.2067,3.3934,3.5539,3.6784,3.7545,3.9464,4.0187,3.8902,3.9154,4.0273,4.2336,4.4435,4.6836,4.9619,5.1325,5.1931,5.1361,5.1724,5.1674,5.1214,5.2209,5.2485,5.2026,5.2511,5.2737,5.2737,5.29,5.4107,5.601,5.6392,5.7683,5.9483,5.9677,5.9483,5.9046,5.8891,5.9234,5.9591,5.8338,5.5777,5.2947,5.2887,5.1191,4.9273,5.0349,4.9443,4.7721,4.6466,4.4543,4.2854,4.2784,4.3201,4.4099,4.5974,4.6556,4.8349,0.0,5.5363,5.5028,5.6676,5.8834,6.2256,6.8226,6.7362,6.6643,6.928,7.0384,7.0851,7.0729,7.0679,7.062,7.047,7.047,7.059,7.0889,7.0889,7.1876,7.4257,7.4437,7.3419,7.1038,7.0889,7.0889,7.0889,7.0889,7.0889,7.0889,7.0889,7.0889,7.0889,7.0889,7.0889,7.0889,7.0889,7.0739,7.032,6.8032,6.7014,6.6805,6.4171,6.3108,6.3108,6.3108,6.3108,6.3108,6.3108,6.3108,6.3048,0.0,0.0,0.0,0.0,0.0,0.0,0.0,0.0,0.0,3.3608,3.5056,3.6259,3.6868,3.7738,3.7646,3.6109,3.7771,3.9739,4.1725,4.4549,4.7516,5.057,5.1746,5.2292,5.2226,5.246,5.2611,5.2703,5.3155,5.3432,5.3549,5.3775,5.3884,5.3884,5.3884,5.4599,5.5827,5.6815,5.7971,5.9195,5.9877,5.9786,5.9212,5.856,5.7979,5.7359,5.6412,5.4827,0.0,5.2306,5.1038,4.9931,5.0458,4.931,4.7422,4.5718,4.5316,4.5795,4.7376,4.7864,4.8394,5.0236,5.23,5.4837,5.8355,5.9404,6.0134,6.2026,6.3221,6.5138,6.915,7.002,7.0293,7.0802,7.2211,7.2671,7.1123,7.2235,7.324,7.324,7.324,7.324,7.324,7.324,7.3689,7.4826,7.4886,7.4407,7.33,7.324,7.324,7.324,7.324,7.324,7.324,7.1667,7.1667,7.324,7.324,7.2415,7.0889,7.0889,7.0889,7.0769,6.8151,6.7014,6.6924,6.5817,6.5368,6.5218,6.3692,6.3108,6.3108,6.3108,6.3108,6.3108,0.0,0.0,0.0,0.0,0.0,0.0,0.0,0.0,0.0,0.0,3.4699,3.6083,3.7135,3.6858,3.6207,3.5202,3.661,3.8626,4.1088,4.4037,4.7293,5.0895,5.2,5.2711,5.3113,5.3439,5.3783,5.416,5.431,5.4612,5.5031,5.5031,5.5031,5.5031,5.5031,5.5433,5.6159,5.7381,5.8245,5.8847,5.9516,5.9158,5.808,5.6688,5.5322,5.4104,5.3891,5.2864,5.139,5.023,4.9291,4.8652,4.9232,4.8304,4.6824,4.5816,4.6444,4.7849,4.9725,5.1013,5.2393,5.4735,5.7799,6.0664,6.244,6.3698,6.496,6.6744,6.7101,6.7374,6.8216,6.9773,7.1126,7.1887,7.3629,7.4227,7.2265,7.3689,7.4616,7.3868,7.2521,7.1923,7.2641,7.4048,7.4886,7.4886,7.4886,7.4886,7.4886,7.4886,7.4886,7.4886,7.4886,7.4886,7.4886,7.297,7.297,7.4886,7.4138,7.2791,7.0889,7.0889,7.0889,7.0799,6.8884,6.8092,6.8016,6.7313,6.6595,6.5727,6.3842,6.3108,6.3108,6.3108,6.3108,6.3108,0.0,0.0,0.0,0.0,0.0,0.0,0.0,0.0,0.0,0.0,0.0,0.0,0.0,3.7496,3.6896,3.7606,3.6158,3.7054,4.1387,4.3066,4.5828,5.0226,5.2503,5.3658,5.3683,5.4762,5.5333,5.5358,5.5867,5.6125,5.615,5.615,5.615,5.615,5.615,5.6771,5.7826,5.7882,5.8202,5.868,5.8158,5.6678,5.4504,5.2337,5.1069,5.0574,5.1547,4.999,4.7358,4.6689,4.5583,4.4805,4.676,4.6909,4.6632,4.8214,4.8164,4.7605,4.777,5.056,5.4456,5.8829,6.1586,6.4399,6.8722,6.9679,6.9922,7.0757,7.1611,7.1119,6.7684,6.9162,7.1733,7.4356,7.4856,7.4856,7.4796,7.4856,7.3928,7.1338,6.6535,6.444,6.6984,7.1893,7.4886,7.4886,7.4886,7.4886,7.4886,7.4886,7.4886,7.4886,7.4886,7.4886,7.4886,7.4826,7.4826,7.4873,7.2265,7.0979,7.0889,7.0889,7.0889,7.0889,7.0829,7.0769,7.059,6.8062,6.5518,6.3227,6.3123,6.3108,6.3108,6.3108,6.3108,6.3108,0.0,0.0,0.0,0.0,0.0,0.0,0.0,0.0,0.0,0.0,0.0,0.0,0.0,0.0,0.0,0.0,3.5258,3.6059,3.8315,4.1475,4.4744,4.8052,5.1406,5.3339,5.3683,5.483,5.5742,5.6451,5.6652,5.6928,5.7323,5.7323,5.7524,5.7857,5.7857,5.8459,5.9463,5.9106,5.9056,5.9106,5.7449,5.591,5.4333,5.1853,4.9261,4.6894,0.0,4.5633,4.5084,4.3569,4.2741,4.2561,4.3708,4.3279,4.2849,4.5132,4.6427,4.8138,5.3121,5.6501,5.9761,6.465,6.7146,6.9134,7.2126,7.3162,7.3381,7.3032,7.4156,7.4027,7.0294,7.1758,7.3861,7.4745,7.4886,7.4886,7.4886,7.3389,7.0636,6.6236,6.4171,6.2734,6.1852,6.8106,7.3,7.4766,7.4886,7.4886,7.4886,7.4886,7.4886,7.4886,7.4886,7.4886,7.4886,7.4886,7.4886,7.4873,7.2176,7.0889,7.0889,7.0889,7.0889,7.0889,7.0889,6.9931,6.8226,6.7358,6.6475,6.5518,6.3796,6.3108,6.3108,6.3108,6.3108,6.3108,0.0,0.0,0.0,0.0,0.0,0.0,0.0,0.0,0.0,0.0,0.0,0.0,0.0,0.0,0.0,0.0,0.0,3.4691,3.665,3.8995,4.1717,4.489,4.7616,4.9414,5.0142,5.087,5.1975,5.3447,5.4049,5.5046,5.6394,5.6821,5.7298,5.7807,5.7807,5.8309,5.9087,5.8554,5.7976,5.7223,5.5021,5.3237,5.1611,4.8718,4.6156,0.0,4.1727,4.1507,4.1943,4.0457,4.0137,4.0415,4.0844,4.1435,4.2426,4.4517,4.7163,5.0866,5.7639,6.1245,6.4309,6.9453,7.1393,7.2553,7.4483,7.4659,7.4423,7.4279,7.481,7.3525,6.7756,6.7343,6.8481,7.0366,7.3077,7.4886,7.4886,7.2595,6.9662,6.6296,6.5877,6.447,6.0878,6.5114,6.9213,7.1893,7.3838,7.4886,7.4886,7.4886,7.4886,7.4886,7.4886,7.4886,7.4886,7.4886,7.4886,7.4886,7.315,7.1816,7.0889,7.0889,7.0889,7.0889,7.0889,6.9961,6.8315,6.7403,6.6445,6.5428,6.3752,6.3108,6.3108,6.3108,6.3108,6.3108,0.0,0.0,0.0,0.0,0.0,0.0,0.0,0.0,0.0,0.0,0.0,0.0,0.0,0.0,0.0,0.0,0.0,0.0,3.6272,3.5856,3.7125,4.0837,4.1744,4.2637,4.3689,4.3765,4.483,4.6973,4.8586,5.067,5.3256,5.4361,5.5164,5.5698,5.5723,5.6025,5.6483,5.5949,5.4795,5.313,5.0995,4.8865,4.6621,4.3415,4.2098,4.1575,3.8634,3.7892,3.8221,3.7644,3.7982,3.8619,3.864,4.1559,4.5241,4.6576,5.0486,5.5592,6.1125,6.4659,6.7994,7.3037,7.4206,7.4466,7.5749,7.4322,7.3146,7.4497,7.3582,6.9616,6.0236,5.6466,5.6449,6.1477,6.9049,7.4304,7.4304,7.2342,7.0859,7.0709,7.0829,6.8944,6.3991,6.3422,6.45,6.7194,7.2072,7.4886,7.4886,7.4886,7.4886,7.4886,7.4886,7.4886,7.4886,7.4886,7.4886,7.4886,7.4886,7.3509,7.0889,7.0889,7.0889,7.0889,7.0889,7.0889,7.0709,6.8092,6.5548,6.3287,6.3168,6.3108,6.3108,6.3108,6.3108,6.3108,0.0,0.0,0.0,0.0,0.0,0.0,0.0,0.0,0.0,0.0,0.0,0.0,0.0,0.0,0.0,0.0,0.0,0.0,3.3523,3.4416,3.5519,3.6912,3.9897,4.1882,4.2587,4.3402,4.4278,4.5242,4.5683,4.6235,4.6938,4.7682,4.8309,4.8846,4.9248,4.9724,5.0176,4.9633,4.8946,4.8111,4.7073,4.6092,4.5107,4.391,4.2531,4.1041,3.9485,3.8076,3.7084,3.7892,3.9577,4.1473,4.1962,4.3946,4.6837,5.07,5.473,5.9309,6.548,6.8789,7.1349,7.4811,7.5188,7.452,7.3902,7.2188,7.1248,7.3043,7.0005,6.3603,5.2354,4.9763,4.9763,5.1109,5.9651,6.6101,6.6101,6.8854,7.0171,6.8226,6.9722,7.038,6.9034,6.8046,6.899,7.2611,7.4138,7.4886,7.4886,7.4886,7.4886,7.4886,7.4886,7.4886,7.4886,7.4886,7.4886,7.4886,7.4886,7.3509,7.0889,7.0889,7.0889,7.0889,7.0889,7.0889,7.0709,6.8092,6.6625,6.5817,6.3856,6.3108,6.3108,6.3108,6.3108,6.3108,0.0,0.0,0.0,0.0,0.0,0.0,0.0,0.0,0.0,0.0,0.0,0.0,0.0,0.0,0.0,0.0,0.0,0.0,0.0,3.2916,3.3325,3.3685,3.533,3.6634,3.7436,3.76,3.8291,3.9546,4.0036,4.0889,4.2108,4.2936,4.3575,4.4113,4.4414,4.4715,4.4966,4.469,4.4236,0.0,0.0,4.2015,4.1828,4.108,4.0212,3.9353,3.8745,3.876,3.9436,4.1573,4.31,4.4477,4.6602,4.8879,5.1619,5.6058,5.9872,6.3837,6.9162,7.2105,7.4027,7.5676,7.5479,7.4078,7.1009,6.9004,6.7298,6.5503,6.3214,5.8248,4.7527,4.5523,4.7448,5.3306,6.2135,6.8287,6.8287,7.0815,7.2132,7.0636,7.1414,7.2252,7.2624,7.2013,7.2744,7.5527,7.5215,7.4886,7.4886,7.4886,7.4886,7.4886,7.4886,7.4886,7.4886,7.4886,7.4886,7.4886,7.4886,7.4108,7.2624,7.1427,7.0889,7.0889,7.0889,7.0889,7.0709,6.8092,6.6326,6.5129,6.3676,6.3108,6.3108,6.3108,6.3108,6.3108,0.0,0.0,0.0,0.0,0.0,0.0,0.0,0.0,0.0,0.0,0.0,0.0,0.0,0.0,0.0,0.0,0.0,0.0,0.0,0.0,3.1197,3.1186,3.0291,3.0241,3.117,3.0291,3.0743,3.2663,3.3585,3.5303,3.7713,3.8718,3.942,3.9884,3.9934,3.9997,3.9997,4.0204,3.9992,3.9428,3.8285,3.8004,3.8188,0.0,3.7166,3.7396,3.7396,3.9269,4.2371,4.6441,4.7717,4.8315,5.2276,5.5281,5.8125,6.2106,6.5413,6.8585,7.2279,7.4672,7.6125,7.5929,7.5258,7.3262,6.7926,6.5304,6.2107,5.5658,5.4823,5.2812,4.4764,4.303,4.7347,6.1357,6.9947,7.4886,7.4886,7.4886,7.4886,7.4886,7.4227,7.4138,7.5065,7.5095,7.5574,7.6796,7.5796,7.5065,7.4916,7.4886,7.4886,7.4886,7.4886,7.4886,7.4886,7.4886,7.4886,7.4886,7.4886,7.4886,7.4826,7.2295,7.1068,7.0889,7.053,7.059,7.0709,6.8092,6.5667,6.3572,6.3227,6.3108,6.3108,6.3108,6.3108,6.3108,0.0,0.0,0.0,0.0,0.0,0.0,0.0,0.0,0.0,0.0,3.4467,3.4906,0.0,0.0,0.0,0.0,0.0,0.0,0.0,0.0,0.0,3.0104,2.9914,2.9889,3.0065,2.9889,2.999,3.0366,3.0557,3.0894,3.1396,3.2028,3.2369,3.248,3.2918,3.3119,3.3208,3.4548,3.5047,3.5102,3.7032,3.7528,3.717,3.7862,0.0,0.0,3.7396,3.7755,3.9529,4.7747,5.2306,5.5162,5.9142,6.1822,6.4261,6.8226,7.056,7.2368,7.4749,7.6407,7.7233,7.6155,7.4569,7.1847,6.654,6.1767,5.6794,5.0959,4.7566,4.5212,4.3617,4.1535,4.5832,6.3452,7.1145,7.4886,7.4886,7.4886,7.4886,7.4886,7.4766,7.5155,7.6347,7.6155,7.6352,7.731,7.6796,7.6006,7.4946,7.4886,7.4886,7.4886,7.4886,7.4886,7.4886,7.4886,7.4886,7.4886,7.4886,7.4886,7.4856,7.3283,7.195,7.0769,6.8615,6.8884,7.0709,6.8092,6.6745,6.6116,6.3931,6.3108,6.3108,6.3108,6.3108,6.3108,0.0,0.0,0.0,0.0,0.0,0.0,0.0,3.3413,3.3864,3.4579,3.426,3.4387,3.5464,3.4984,3.4882,0.0,0.0,0.0,0.0,0.0,0.0,0.0,2.9814,2.9814,2.9814,2.9814,2.9814,2.9814,0.0,2.9814,2.9814,3.0055,3.0171,3.0226,3.0951,3.1297,3.1416,3.3325,3.4429,3.5075,3.6645,3.7438,3.7664,0.0,0.0,0.0,3.7994,3.9168,4.1471,4.7316,5.3037,5.8634,6.4006,6.7029,6.9183,7.2116,7.4151,7.5736,7.7053,7.8609,7.9387,7.7382,7.4352,6.995,6.2578,5.7057,5.1467,4.4261,4.1599,4.0598,4.0588,4.1033,4.4805,5.5089,6.2331,6.86,7.4108,7.2837,7.2388,7.5245,7.5766,7.6108,7.6719,7.6617,7.6694,7.7113,7.7143,7.6485,7.4976,7.4886,7.4886,7.4886,7.4886,7.4886,7.4886,7.4886,7.4886,7.4886,7.4886,7.4886,7.4886,7.421,7.2834,7.0829,6.9572,6.8974,6.8764,6.7523,6.7014,6.6745,6.4111,6.3108,6.3108,6.3108,6.3108,6.3108,0.0,0.0,0.0,0.0,0.0,0.0,0.0,3.338,3.3972,3.5041,3.4326,3.409,3.5082,3.4565,3.4444,0.0,0.0,0.0,0.0,0.0,0.0,0.0,0.0,0.0,2.9814,0.0,0.0,2.9814,2.9814,0.0,0.0,0.0,0.0,0.0,3.1082,3.1499,3.1644,3.3817,3.5232,0.0,0.0,3.7901,3.8603,0.0,0.0,0.0,0.0,4.0306,4.2882,4.6714,5.2068,5.8269,6.4882,6.9253,7.2192,7.3629,7.602,7.8357,7.9047,8.049,8.1179,7.8464,7.3919,6.7752,5.8905,5.3032,4.7129,3.9059,3.7724,3.7906,3.7597,4.024,4.3429,4.6401,5.2815,6.0715,7.0187,6.9678,7.0306,7.5574,7.6557,7.6838,7.7006,7.6868,7.6898,7.7215,7.7203,7.6532,7.4976,7.4886,7.4886,7.4886,7.4886,7.4886,7.4886,7.4886,7.4886,7.4886,7.4886,7.4736,7.4467,7.4467,7.3163,7.0889,7.05,6.9064,6.7014,6.7014,6.7014,6.6805,6.4739,6.3572,6.3108,6.3108,6.3108,6.3108,0.0,0.0,0.0,0.0,0.0,0.0,0.0,3.3347,3.3901,3.4985,3.4731,3.4306,3.3827,3.3179,3.3039,0.0,0.0,0.0,0.0,0.0,0.0,0.0,0.0,0.0,0.0,0.0,0.0,2.9814,2.9814,0.0,0.0,0.0,0.0,0.0,0.0,3.246,3.2614,3.4884,0.0,0.0,0.0,0.0,0.0,0.0,0.0,0.0,0.0,3.8606,3.9504,4.7121,5.0158,5.1884,5.8331,6.5686,7.1833,7.1398,7.5218,7.9768,8.0435,8.1195,8.1163,7.8468,7.2533,6.5422,5.7974,5.1376,4.5048,3.87,3.754,3.7267,3.5985,3.7943,4.1006,4.4855,4.9093,5.394,5.9727,6.5682,7.1128,7.5664,7.6557,7.7035,7.7634,7.7155,7.7305,7.8519,7.719,7.5903,7.4946,7.4886,7.4886,7.4886,7.4886,7.4886,7.4886,7.4886,7.4886,7.4886,7.4886,7.4257,7.3086,7.3086,7.2279,7.0829,6.9213,6.7956,6.7014,6.7014,6.7014,6.6984,6.6745,6.5188,6.3108,6.3108,6.3108,6.3108,0.0,0.0,0.0,0.0,0.0,0.0,3.2394,3.2941,3.3739,3.5212,3.4236,3.3439,3.3536,3.2228,3.1752,3.2863,0.0,0.0,0.0,0.0,0.0,0.0,0.0,0.0,0.0,0.0,2.9814,2.9814,2.9814,0.0,0.0,0.0,0.0,0.0,0.0,3.3446,3.3601,3.5877,0.0,0.0,0.0,0.0,0.0,0.0,0.0,0.0,0.0,0.0,4.0097,4.2918,4.567,4.8015,4.8562,5.4784,6.2868,6.7729,7.2536,7.6811,7.9482,8.1839,8.2638,7.8751,7.2057,6.4401,5.6739,4.9652,4.3081,3.7412,3.6637,3.6926,3.6702,3.7306,3.9032,4.2721,4.5074,4.9052,5.6496,5.9831,6.4261,7.1593,7.3642,7.548,7.813,7.7801,7.7305,7.7083,7.6395,7.5694,7.4946,7.4886,7.4886,7.4886,7.4886,7.4886,7.4886,7.4886,7.4886,7.4886,7.4364,7.3838,7.33,7.2206,7.1381,7.0829,6.9363,6.8076,6.7014,6.7014,6.7014,6.7014,6.7014,6.5398,6.3108,6.3108,6.3108,6.3108,0.0,0.0,0.0,0.0,0.0,3.0463,3.1538,3.2251,3.3139,3.4526,3.3675,3.2911,3.2916,3.1469,3.0888,3.1907,3.1938,0.0,0.0,0.0,0.0,0.0,0.0,0.0,0.0,0.0,2.9814,2.9814,3.0072,3.0216,0.0,0.0,3.2318,3.2391,0.0,0.0,0.0,0.0,0.0,0.0,0.0,0.0,0.0,0.0,0.0,0.0,0.0,0.0,0.0,0.0,0.0,4.4919,4.2491,4.6421,5.3576,6.1791,6.8409,7.381,7.74,8.0882,8.2543,7.8291,7.0979,6.2857,5.5323,4.8236,4.1796,3.6582,3.6279,3.6992,3.7109,3.7199,3.8263,4.1345,4.315,4.6988,5.4999,5.6658,5.998,6.7882,7.038,7.2924,7.6694,7.7502,7.7275,7.6006,7.5916,7.5677,7.5215,7.5006,7.4886,7.4886,7.4886,7.4886,7.4886,7.4886,7.4796,7.4587,7.3928,7.3436,7.303,7.1577,7.0889,7.0859,6.9961,6.8585,6.7014,6.7014,6.7014,6.6924,6.6146,6.471,6.3108,6.3108,6.3108,6.3108,0.0,0.0,0.0,0.0,0.0,0.0,3.0119,3.1167,3.2001,3.2554,3.3243,3.3125,3.1671,3.0897,3.0522,3.0529,3.0522,0.0,0.0,0.0,0.0,0.0,0.0,0.0,0.0,0.0,2.9814,2.9814,3.0733,3.1202,3.124,3.3785,3.4972,3.5007,0.0,0.0,0.0,0.0,0.0,0.0,0.0,0.0,0.0,0.0,0.0,0.0,0.0,0.0,0.0,0.0,0.0,0.0,0.0,4.2967,4.5582,5.3129,6.2751,7.1519,7.4206,7.7833,8.0057,7.6747,6.898,6.04,5.3741,4.7284,4.1323,3.6491,3.6716,3.7512,3.6656,3.7532,3.9059,4.1074,4.4127,4.8364,5.4371,5.7423,6.0805,6.5488,6.7224,6.9349,7.2638,7.5899,7.7275,7.6006,7.5916,7.5916,7.5886,7.5275,7.4886,7.4886,7.4886,7.4886,7.4886,7.4886,7.4557,7.3911,7.3689,7.3017,7.1893,7.1218,7.0889,7.0889,7.0889,6.9393,6.7014,6.7014,6.7014,6.6745,6.4141,6.3123,6.3108,6.3108,6.3108,6.3108,0.0,0.0,0.0,0.0,0.0,0.0,0.0,3.0866,3.1238,3.2368,3.1579,3.1039,3.1457,3.0515,3.0253,3.1099,3.0747,0.0,0.0,0.0,0.0,0.0,0.0,0.0,0.0,0.0,3.011,3.0771,3.1495,3.2216,3.2882,3.4782,3.5428,3.5062,3.6475,3.7308,0.0,0.0,0.0,0.0,0.0,0.0,4.0747,0.0,0.0,0.0,0.0,0.0,0.0,0.0,0.0,0.0,0.0,0.0,0.0,4.4292,5.2854,6.2157,6.53,6.8716,7.0371,6.6158,6.0872,5.5335,5.0167,4.5736,4.1636,3.7839,3.746,3.7701,3.7317,3.7518,3.911,4.3369,4.5324,4.7886,5.2486,5.6585,6.0641,6.4829,7.1278,7.5617,7.6168,7.7185,7.7275,7.6006,7.5916,7.5707,7.5245,7.5006,7.4886,7.4886,7.4886,7.4886,7.4886,7.4437,7.4091,7.3881,7.3043,7.2445,7.2056,7.0649,7.035,7.0829,6.9632,6.8331,6.7014,6.7014,6.7014,6.6745,6.4111,6.3108,6.3108,6.3108,6.3108,6.3108,0.0,0.0,0.0,0.0,0.0,0.0,0.0,3.0378,3.0593,3.1298,3.0521,3.0246,3.1038,3.0223,3.0103,3.1391,3.0897,0.0,0.0,0.0,0.0,0.0,0.0,0.0,0.0,3.096,3.1224,3.194,3.3095,3.4057,3.4925,3.6526,3.6927,3.633,3.7653,3.8322,0.0,0.0,0.0,0.0,0.0,0.0,4.0739,0.0,0.0,0.0,0.0,0.0,0.0,0.0,0.0,0.0,0.0,0.0,0.0,0.0,4.5123,5.2277,5.7377,6.1694,6.3831,5.9947,5.6021,5.2015,4.7717,4.4297,4.114,3.7988,3.7582,3.7675,3.7249,3.7289,3.8712,4.2791,4.4426,4.6719,5.1187,5.5388,5.9937,6.5129,7.2176,7.6305,7.5647,7.6694,7.6886,7.5617,7.5527,7.5335,7.4916,7.4886,7.4886,7.4886,7.4886,7.4886,7.4886,7.4257,7.3762,7.3522,7.2295,7.1607,7.1308,6.9812,6.9423,6.9842,6.8405,6.7493,0.0,6.7014,6.6416,6.5368,6.3722,6.3108,6.3108,6.3108,6.3108,6.3108,0.0,0.0,0.0,0.0,0.0,0.0,0.0,2.9834,3.0053,2.9598,3.0017,3.0396,3.0421,2.9928,3.008,3.1331,0.0,0.0,0.0,0.0,0.0,0.0,0.0,0.0,0.0,3.2182,3.2828,3.3322,3.5131,3.6395,3.7133,3.8684,3.9047,3.8442,3.9378,3.9819,0.0,0.0,0.0,0.0,0.0,0.0,0.0,0.0,0.0,0.0,0.0,0.0,0.0,0.0,0.0,0.0,0.0,0.0,0.0,0.0,0.0,0.0,0.0,5.5834,5.9149,5.6563,5.3266,4.9667,4.6019,4.2975,0.0,3.7423,3.7372,3.7591,3.6929,3.713,3.8144,4.0457,4.2392,4.5393,5.0619,5.4593,5.9605,6.6655,7.0889,7.2924,7.2132,7.4881,7.6228,7.4976,7.4886,7.4886,7.4886,7.4886,7.4886,7.4826,7.4826,7.4826,7.4826,7.4168,7.3492,7.2817,7.1501,7.056,6.9887,6.8734,6.8166,6.8016,6.7313,6.7014,6.7014,6.7014,6.5458,6.3108,6.3108,6.3108,6.3108,6.3108,6.3108,6.3108,0.0,0.0,0.0,0.0,0.0,0.0,0.0,0.0,0.0,0.0,2.9433,2.9169,2.9678,2.9645,2.9907,0.0,0.0,0.0,0.0,0.0,0.0,0.0,0.0,0.0,0.0,3.2841,3.3257,3.457,3.552,3.6709,3.8092,3.8973,3.9086,3.8616,3.9877,4.1208,0.0,0.0,0.0,0.0,0.0,0.0,0.0,0.0,0.0,0.0,4.0113,4.0113,0.0,0.0,0.0,0.0,0.0,0.0,0.0,0.0,3.7199,3.8735,4.0603,0.0,4.6411,4.4869,4.3787,4.2932,0.0,4.1413,4.0576,3.9484,3.8482,3.8203,3.9463,3.8463,3.9041,4.4087,4.5743,4.7837,5.2139,5.9502,6.6416,7.1653,7.4869,7.5796,7.3642,7.5078,7.5766,7.4946,7.4886,7.4886,7.4886,7.4886,7.4646,7.4168,7.4138,7.4138,7.4138,7.3462,7.2894,7.2339,7.1368,7.032,6.9183,6.7897,6.6759,6.5817,6.664,6.7014,6.7014,6.7014,6.5458,6.3108,6.3108,6.3108,6.3108,6.3108,6.3108,6.3108,0.0,0.0,0.0,0.0,0.0,0.0,0.0,0.0,0.0,0.0,0.0,2.8795,2.9844,2.9743,0.0,0.0,0.0,0.0,0.0,0.0,0.0,0.0,0.0,0.0,3.4,3.3951,3.4577,3.592,3.7031,3.8314,3.9775,4.0157,3.9997,3.9465,4.0383,4.1561,0.0,0.0,0.0,0.0,4.1378,0.0,0.0,0.0,0.0,0.0,4.0113,4.0113,0.0,3.9661,3.9032,3.8254,0.0,0.0,0.0,0.0,3.6489,3.7097,3.7488,4.0033,4.2342,4.1389,4.1457,4.1709,4.1528,4.1012,4.0358,3.9706,3.8627,3.8083,3.9086,3.8502,3.932,4.3788,4.5802,4.9063,5.5461,6.2764,6.896,7.2954,7.5228,7.6036,7.4929,7.5467,7.5617,7.4946,7.4886,7.4886,7.4886,7.4886,7.4587,7.3911,7.3881,7.3762,7.3462,7.2774,7.2146,7.1607,7.053,6.9333,6.8046,6.7343,6.64,6.5368,6.652,6.7014,6.6924,6.5697,6.438,6.3108,6.3108,6.3108,6.3108,6.3108,6.3108,6.3108,0.0,0.0,0.0,0.0,0.0,0.0,0.0,0.0,0.0,0.0,0.0,0.0,0.0,0.0,0.0,0.0,0.0,0.0,0.0,0.0,0.0,0.0,0.0,3.5093,3.4243,3.506,3.6004,3.7054,3.8631,4.0074,4.1401,4.1407,4.1075,4.0505,4.0785,4.1442,0.0,0.0,0.0,0.0,4.1083,0.0,0.0,0.0,0.0,0.0,0.0,0.0,0.0,3.9303,3.8574,3.7854,3.7157,0.0,0.0,0.0,0.0,0.0,3.7989,4.0792,4.3037,4.1565,4.1844,4.231,4.1799,4.0785,3.9764,3.9194,3.8468,3.8059,3.845,3.8855,4.0137,4.3119,4.6202,5.1307,6.007,6.5428,6.9558,7.2548,7.418,7.5155,7.5437,7.5647,7.5497,7.4946,7.4813,7.4736,7.4736,7.4646,7.4287,7.3612,7.3582,7.3223,7.2458,7.2013,7.1414,7.0679,6.9333,6.8016,6.6805,6.6535,6.6086,6.5548,6.6146,6.6416,6.6236,6.3991,6.3108,6.3108,6.3108,6.3108,6.3108,6.3108,6.3108,6.3108,0.0,0.0,0.0,0.0,0.0,0.0,0.0,0.0,0.0,0.0,0.0,0.0,0.0,0.0,0.0,0.0,0.0,0.0,0.0,0.0,0.0,0.0,3.5459,3.5438,3.5274,3.543,3.6104,3.7353,3.8719,4.0095,4.1404,4.1407,4.1179,4.083,4.0951,4.1463,4.2259,0.0,0.0,0.0,4.0521,0.0,0.0,0.0,0.0,0.0,0.0,0.0,0.0,3.9973,3.939,3.8717,3.8584,0.0,0.0,0.0,0.0,0.0,3.9866,4.3296,4.4872,3.9717,3.8985,3.9505,3.9444,3.9251,3.9253,3.9802,3.9235,3.9501,4.2264,4.2649,4.3957,4.8304,5.3581,5.9398,6.5892,6.89,7.1068,7.2698,7.4582,7.5138,7.3505,7.439,7.5006,7.4916,7.4377,7.4031,7.4031,7.3522,7.2894,7.2222,7.2222,7.1653,7.0456,7.0859,7.062,6.9782,6.8106,6.6805,6.5847,6.438,6.4021,6.456,6.3961,6.3692,6.3676,6.3287,6.3108,6.3108,6.3108,6.3108,6.3108,6.3108,6.3108,6.3108,0.0,0.0,0.0,0.0,0.0,0.0,0.0,0.0,0.0,0.0,0.0,0.0,0.0,0.0,0.0,0.0,0.0,0.0,0.0,0.0,0.0,3.5511,3.5511,3.5511,3.5511,3.6178,3.7154,3.848,4.0188,4.1671,4.2938,4.2304,4.14,4.0322,4.0779,4.103,4.1109,4.1175,0.0,0.0,0.0,0.0,0.0,0.0,0.0,0.0,0.0,0.0,0.0,0.0,3.9202,3.8836,3.8416,0.0,0.0,0.0,0.0,0.0,4.0066,4.2117,4.3254,4.1291,4.2532,4.3645,4.1602,4.0755,4.0627,4.135,4.0886,4.1223,4.4126,4.595,4.9142,5.5572,6.0103,6.3917,6.7014,6.9169,7.0889,7.2206,7.3492,7.421,7.4001,7.4527,7.4736,7.4377,7.4061,7.3732,7.3373,7.3057,7.2595,7.1923,7.1564,7.0739,6.9453,6.9379,6.9139,6.872,6.7553,6.64,6.5278,6.447,6.3977,6.3662,6.3273,6.3108,6.3108,6.3108,6.3108,6.3108,6.3108,6.3108,6.3108,6.3108,6.3108,6.3108,0.0,0.0,0.0,0.0,0.0,0.0,0.0,0.0,0.0,0.0,0.0,0.0,0.0,0.0,0.0,0.0,0.0,0.0,0.0,0.0,3.5511,3.5511,3.5636,3.5783,3.593,3.7042,3.8439,4.0091,4.1941,4.326,4.4026,4.298,4.152,3.9828,4.0445,4.0508,4.0134,4.0696,4.0621,0.0,0.0,0.0,0.0,0.0,0.0,0.0,0.0,0.0,0.0,0.0,0.0,0.0,0.0,0.0,0.0,3.8971,3.9051,3.9204,4.0518,4.1411,4.2197,4.314,4.5037,4.6335,4.4981,4.3375,4.2661,4.4384,4.4034,4.4043,4.6049,4.9643,5.4645,6.1852,6.5473,6.7657,6.8511,7.0067,7.1504,7.2491,7.3043,7.3762,7.4796,7.4766,7.4437,7.3941,7.3612,7.3193,7.2684,7.2385,7.1996,7.1474,7.0799,6.9901,6.8764,6.8092,6.7688,6.7523,6.6849,6.5922,6.477,6.462,6.4036,6.3108,6.3108,6.3108,6.3108,6.3108,6.3108,6.3108,6.3108,6.3108,6.3108,6.3108,6.3108,6.3108,0.0,0.0,0.0,0.0,0.0,0.0,0.0,0.0,0.0,0.0,0.0,0.0,0.0,0.0,0.0,0.0,0.0,0.0,0.0,0.0,3.5511,3.5511,3.6085,3.6692,3.7246,3.7942,3.9583,4.2196,4.3516,4.3898,4.3354,4.2757,4.1523,3.9823,3.993,4.0024,4.0113,4.0161,4.0161,0.0,0.0,0.0,0.0,0.0,0.0,0.0,0.0,0.0,0.0,0.0,0.0,0.0,0.0,0.0,3.8988,3.9791,3.9469,3.9522,4.2393,4.3711,4.4107,4.3476,4.1997,4.2266,4.8212,4.645,4.4949,4.987,4.9776,4.8909,4.9083,5.4244,6.0043,6.4919,6.8944,7.1923,7.3223,7.4048,7.4587,7.4676,7.4736,7.4796,7.4886,7.4347,7.3941,7.3881,7.2761,7.2013,7.1983,7.0845,7.0187,7.0127,6.9498,6.8794,6.8077,6.7403,6.6759,6.6131,6.5458,6.477,6.4066,6.3482,6.3183,6.3108,6.3108,6.3108,6.3108,6.3108,6.3108,6.3108,6.3108,6.3108,6.3108,6.3108,6.3108,6.3108,0.0,0.0,0.0,0.0,0.0,0.0,0.0,0.0,0.0,0.0,0.0,0.0,0.0,0.0,0.0,0.0,0.0,0.0,0.0,0.0,3.5682,3.617,3.6388,3.6775,3.7389,3.9703,4.199,4.4196,4.5095,4.5042,4.4084,4.2666,4.1461,4.0518,4.0165,4.0066,4.0113,4.0472,4.0385,4.0119,0.0,0.0,0.0,0.0,0.0,0.0,0.0,0.0,0.0,0.0,3.9701,4.002,3.9522,3.9482,3.9708,4.002,3.9887,3.9893,4.1052,4.2924,4.4699,4.5327,4.4712,4.4639,4.7267,4.828,4.9541,5.2557,5.3417,5.399,5.5203,5.9451,6.3902,6.7328,7.0829,7.3479,7.4377,7.4736,7.4886,7.4886,7.4527,7.4287,7.4287,7.3672,7.2924,7.2086,7.1547,7.0919,7.0141,6.9632,6.9199,6.8766,6.8122,6.7418,6.6759,6.6101,6.5398,6.4755,6.45,6.4246,6.3977,6.3363,6.3108,6.3108,6.3108,6.3108,6.3108,6.3108,6.3108,6.3108,6.3108,6.3108,6.3108,6.3108,6.3108,6.3108,0.0,0.0,0.0,0.0,0.0,0.0,0.0,0.0,0.0,0.0,0.0,0.0,0.0,0.0,0.0,0.0,0.0,0.0,3.6898,3.6499,3.633,3.6584,3.6746,3.7116,3.7692,4.0991,4.3429,4.4989,4.5658,4.5199,4.3626,4.235,4.1362,4.0646,4.0527,4.032,4.0113,4.0478,4.0434,4.0141,4.0507,4.0432,0.0,0.0,0.0,0.0,0.0,0.0,0.0,0.0,3.9646,3.9998,3.9447,3.9661,4.0113,4.0113,3.9927,3.9794,4.0026,4.1239,4.29,4.4764,4.5721,4.6671,4.8563,5.0834,5.3557,5.7196,5.7667,5.8048,6.001,6.2735,6.5547,6.8256,7.1803,7.4377,7.4826,7.4886,7.4826,7.4616,7.4197,7.3821,7.3612,7.2804,7.189,7.0979,7.053,6.9842,6.8734,6.8465,6.8046,6.7373,6.67,6.6161,6.5697,6.5009,6.45,6.4126,6.3842,6.3722,6.3692,6.3273,6.3108,6.3108,6.3108,6.3108,6.3108,6.3108,6.3108,6.3108,6.3108,6.3108,6.3108,6.3108,6.3108,6.3108,0.0,0.0,0.0,0.0,0.0,0.0,0.0,0.0,0.0,0.0,0.0,0.0,0.0,0.0,0.0,0.0,0.0,0.0,3.7711,3.779,3.7447,3.6645,3.7254,3.784,3.8374,4.1562,4.3583,4.4315,4.4978,4.4035,4.1644,4.1804,4.1179,3.9982,4.0806,4.0778,4.0113,4.0113,4.0116,4.0099,4.0118,4.0113,0.0,0.0,0.0,0.0,0.0,0.0,0.0,0.0,4.0085,4.0087,4.0094,4.0113,4.0113,4.0113,3.9569,3.9112,3.9862,3.9007,3.8517,4.1252,4.3972,4.7457,5.3173,5.4451,5.6667,6.4436,6.2904,6.0759,6.2764,6.3632,6.4904,6.7568,7.1879,7.4886,7.4886,7.4886,7.4646,7.3971,7.3881,7.3612,7.2937,7.165,7.0889,7.0859,6.9692,6.869,6.8017,6.7343,6.667,6.5996,6.5338,6.4994,6.4964,6.4321,6.4126,6.438,6.3512,6.3108,6.3108,6.3108,6.3108,6.3108,6.3108,6.3108,6.3108,6.3108,6.3108,6.3108,6.3108,6.3108,6.3108,6.3108,6.3108,6.3108,0.0,0.0,0.0,0.0,0.0,0.0,0.0,0.0,0.0,0.0,0.0,0.0,0.0,0.0,0.0,0.0,0.0,0.0,3.852,3.8076,3.77,3.7449,3.7552,3.7199,3.638,3.8651,4.1788,4.5693,4.5051,4.4229,4.3273,4.1904,4.1652,4.2328,4.1541,4.1093,4.0872,4.0705,4.045,4.0124,4.0529,4.0432,4.0113,0.0,0.0,0.0,0.0,0.0,0.0,0.0,0.0,0.0,3.942,4.0345,4.1454,4.0385,4.0658,4.0983,3.9633,4.0812,4.2798,4.4329,4.7785,5.2198,5.7488,5.8705,6.0349,6.6207,6.6115,6.4994,6.5114,6.643,6.7627,6.7958,7.1474,7.4197,7.4197,7.4197,7.4121,7.3911,7.309,7.2252,7.1577,7.0739,6.9678,6.8256,6.7822,6.7089,6.5936,6.5697,6.5278,6.4605,6.4395,6.4096,6.3662,6.3482,6.3393,6.3497,6.3227,6.3108,6.3108,6.3108,6.3108,6.3108,6.3108,6.3108,6.3108,6.3108,6.3108,6.3108,6.3108,6.3108,6.3108,6.3108,6.3108,6.3108,0.0,0.0,0.0,0.0,0.0,0.0,0.0,0.0,0.0,0.0,0.0,0.0,0.0,0.0,0.0,0.0,0.0,0.0,0.0,3.8485,3.7978,3.7388,3.7261,3.7034,3.6645,3.8121,4.0578,4.403,4.3307,4.2914,4.2815,4.2187,4.2299,4.2941,4.2671,4.2041,4.1192,4.1059,4.0652,4.0119,4.0432,4.0385,4.0113,0.0,0.0,0.0,0.0,0.0,0.0,0.0,0.0,0.0,3.9528,4.0332,4.1308,4.0715,4.0741,4.0814,4.0286,4.1693,4.3907,4.6295,5.0217,5.5038,6.0936,6.3312,6.5289,6.8809,6.8388,6.7433,6.7567,6.8136,6.863,6.875,7.1427,7.3492,7.3492,7.3492,7.3402,7.315,7.2162,7.1248,7.059,6.9498,6.8301,6.7089,6.652,6.5727,6.465,6.459,6.4291,6.3662,6.3632,6.3482,6.3108,6.3108,6.3108,6.3108,6.3108,6.3108,6.3108,6.2704,6.2555,6.254,6.2944,6.3108,6.3108,6.3108,6.3108,6.3108,6.3108,6.3108,6.3108,6.3108,6.3108,6.3108,0.0,0.0,0.0,0.0,0.0,0.0,0.0,0.0,0.0,0.0,0.0,0.0,0.0,0.0,0.0,0.0,0.0,0.0,0.0,0.0,3.8196,3.6868,3.661,3.7042,3.8194,3.8933,3.9703,4.0452,4.062,4.0865,4.1127,4.2604,4.3021,4.2584,4.3978,4.3362,4.1287,4.1242,4.0785,4.0113,4.0113,4.0113,4.0113,4.0113,0.0,0.0,0.0,0.0,0.0,0.0,0.0,0.0,4.0113,4.0199,4.0428,4.0936,4.0238,3.9727,4.1703,4.2198,4.3263,4.786,5.2211,5.7134,6.3836,6.7771,7.033,7.1493,6.994,6.8736,6.9947,6.9185,6.869,6.9736,7.1531,7.2757,7.2638,7.2638,7.2415,7.1803,7.1068,7.038,6.9798,6.8032,6.6864,6.6745,6.5607,6.462,6.3947,6.3917,6.3662,6.3123,6.3108,6.3108,6.3108,6.3048,6.3003,6.2974,6.2974,6.2928,6.2824,6.1882,6.1449,6.1509,6.2614,6.3108,6.3108,6.3108,6.3108,6.3108,6.3108,6.3108,6.3108,6.3108,6.3108,6.3108,0.0,0.0,0.0,0.0,0.0,0.0,0.0,0.0,0.0,0.0,0.0,0.0,0.0,0.0,0.0,0.0,0.0,0.0,0.0,0.0,3.7904,3.7583,3.6395,3.6132,3.6979,3.7144,3.7924,3.9255,4.084,4.1735,4.1971,4.2922,4.3642,4.41,4.444,4.365,4.2043,4.1449,4.0785,4.0113,4.0113,4.0113,4.0113,4.0113,4.0113,0.0,0.0,0.0,0.0,0.0,0.0,0.0,4.0113,4.0878,4.1639,4.0632,4.1325,4.2665,4.3666,4.4805,4.6968,5.2266,5.8182,6.3651,6.7312,6.9111,7.0088,7.0349,7.0754,7.1145,7.1444,7.1264,7.0815,7.0097,7.1174,7.1773,7.0739,7.0636,7.0576,7.0426,6.9349,6.8361,6.7703,6.6789,6.5772,6.4725,6.4366,6.3947,6.3333,6.3273,6.3213,6.3108,6.3108,6.3108,6.3108,6.2584,6.2211,6.1987,6.1987,6.1642,6.0954,6.0057,5.9668,5.9787,6.2106,6.3108,6.3108,6.3108,6.3108,6.3108,6.3108,6.3108,6.3108,6.3108,6.3108,6.3108,0.0,0.0,0.0,0.0,0.0,0.0,0.0,0.0,0.0,0.0,0.0,0.0,0.0,0.0,0.0,0.0,0.0,0.0,0.0,0.0,0.0,3.6722,3.6279,3.6224,3.659,3.7329,3.8098,3.8894,4.0698,4.1815,0.0,4.3051,4.3841,4.4625,4.4959,4.4069,4.2273,4.1895,4.1099,4.0113,4.0113,4.0113,4.0113,4.0113,4.0113,4.0113,4.0113,0.0,0.0,0.0,0.0,0.0,0.0,0.0,4.1186,4.0745,4.1451,4.2678,4.4242,4.6372,4.976,5.6291,6.1504,6.5537,6.7574,6.8545,6.9131,6.9454,7.0539,7.1427,7.1427,7.1204,7.0666,6.9678,6.9798,6.9814,6.9155,6.875,6.8571,6.8571,6.7673,6.6924,6.655,6.5622,6.4755,6.4036,6.3722,6.3303,6.2674,6.2614,6.2465,6.2151,6.2121,6.2121,6.2121,6.1792,6.1419,6.106,6.106,6.0611,5.9774,5.9638,5.9398,5.9189,6.0565,6.1178,6.1178,6.1178,6.1926,6.3108,6.3108,6.3108,6.3108,6.3108,6.3108,6.3108,0.0,0.0,0.0,0.0,0.0,0.0,0.0,0.0,0.0,0.0,0.0,0.0,0.0,0.0,0.0,0.0,0.0,0.0,0.0,0.0,0.0,3.5913,3.6342,3.678,3.7196,3.8308,3.9026,3.9297,4.0565,0.0,0.0,0.0,0.0,4.4222,4.5101,4.4246,4.2123,4.225,4.1442,4.0113,4.0113,4.0113,4.0113,4.0113,0.0,4.0113,4.0113,4.0113,4.0113,4.0113,0.0,0.0,0.0,0.0,4.0206,4.0832,4.1099,4.1733,4.4108,4.7702,5.2496,5.9515,6.3061,6.5213,6.6683,6.735,6.791,6.8791,6.9849,7.0557,7.0408,6.9991,6.9409,6.8615,6.8032,6.7613,6.7493,6.7014,6.664,6.664,6.6071,6.5637,6.5637,6.4545,6.3797,6.3677,6.3213,6.2644,6.1972,6.1942,6.1672,6.112,6.109,6.103,6.094,6.0821,6.0551,6.0176,6.0176,5.9727,5.889,5.9621,5.9608,5.9099,5.9099,5.9099,5.9099,5.9099,6.0416,6.2465,6.2928,6.3108,6.3108,6.3108,6.3108,6.3108,0.0,0.0,0.0,0.0,0.0,0.0,0.0,0.0,0.0,0.0,0.0,0.0,0.0,0.0,0.0,0.0,0.0,0.0,3.7795,0.0,0.0,3.7465,3.6933,3.7558,3.958,3.9159,3.9569,4.0878,0.0,0.0,0.0,0.0,0.0,4.2682,0.0,4.3477,4.1393,4.2032,4.1439,4.0113,4.0113,4.0113,4.0113,0.0,0.0,0.0,4.0113,4.0113,4.0113,4.0113,4.0113,0.0,0.0,0.0,4.0113,4.0206,4.0698,4.1693,4.3931,4.974,5.6252,6.0814,6.3067,6.4647,6.6566,6.6618,6.6805,6.8637,6.9144,6.9082,6.8489,6.8314,6.7852,6.6595,6.634,6.6056,6.5473,6.5323,6.5278,6.5278,6.468,6.4276,6.4276,6.3632,6.2974,6.2391,6.2271,6.1942,6.1269,6.1239,6.118,6.109,6.109,6.0821,6.025,5.9668,5.9338,5.9265,5.9265,5.883,5.7992,5.886,5.9189,5.9099,5.9099,5.9099,5.9099,5.9099,5.9308,5.9877,6.2195,6.3108,6.3108,6.3108,6.3108,6.3108,0.0,0.0,0.0,0.0,0.0,0.0,0.0,0.0,0.0,0.0,0.0,0.0,0.0,0.0,0.0,3.7655,3.6406,3.6046,3.7146,3.728,3.7471,3.7781,3.8283,3.883,3.9411,3.9912,4.0312,4.0565,0.0,0.0,0.0,4.3878,4.4334,0.0,0.0,0.0,0.0,4.2328,4.1465,4.0113,4.0113,4.0113,0.0,0.0,0.0,0.0,0.0,0.0,4.0113,4.0113,4.0113,4.0113,4.0113,0.0,0.0,0.0,4.0612,4.2265,4.7183,5.0861,5.4724,6.062,6.2534,6.3348,6.4932,6.5383,6.5697,6.6583,6.6762,6.6891,6.7371,6.7119,6.6551,6.5592,6.5129,6.4784,6.447,6.4156,6.3947,6.3947,6.3692,6.3512,6.3512,6.2914,6.2435,6.2121,6.1762,6.1253,6.0565,6.0535,6.0206,5.9431,5.9415,5.9085,5.8424,5.8381,5.8231,5.7992,5.874,5.889,5.8501,5.7423,5.7453,5.8351,5.8082,5.8411,5.9099,5.9099,5.9099,5.9219,6.0386,6.0878,6.1058,6.2569,6.2135,6.1074,0.0,0.0,0.0,0.0,0.0,0.0,0.0,0.0,0.0,0.0,0.0,0.0,0.0,0.0,0.0,0.0,3.6639,3.631,3.7233,3.762,3.8056,3.8647,3.9585,3.9992,3.9776,4.0722,4.0936,0.0,0.0,0.0,4.4007,4.4802,4.614,0.0,4.6546,4.5015,0.0,0.0,0.0,0.0,0.0,3.9927,0.0,0.0,0.0,0.0,0.0,0.0,0.0,4.0113,4.0113,4.0113,4.0113,4.0113,0.0,0.0,0.0,4.1664,4.7768,4.9552,5.1337,5.8147,6.0606,6.177,6.3403,6.4168,6.4603,6.4936,6.4719,6.4859,6.6012,6.5832,6.5278,6.462,6.4096,6.3767,6.3767,6.3393,6.3108,6.3108,6.3108,6.3033,6.2854,6.2405,6.1942,6.1627,6.1134,6.0475,5.9651,5.9578,5.9069,5.7889,5.7859,5.753,5.6868,5.7034,5.6944,5.6628,5.7633,5.8112,5.8052,5.609,5.591,5.7124,5.6778,5.7423,5.877,5.865,5.88,5.9099,5.9099,5.9099,5.9338,6.1357,6.0805,5.9488,0.0,0.0,0.0,0.0,0.0,0.0,0.0,0.0,0.0,0.0,0.0,0.0,0.0,3.7484,3.6978,3.7485,3.7023,3.734,3.8801,3.8194,3.8744,4.0915,4.0443,0.0,4.2085,4.1516,4.1182,0.0,0.0,0.0,4.5619,4.6329,4.8223,5.0852,4.8013,4.5518,4.3404,0.0,0.0,0.0,0.0,0.0,0.0,0.0,0.0,0.0,0.0,0.0,0.0,4.0113,4.0113,4.0113,4.0113,4.0113,4.0113,0.0,0.0,0.0,4.2215,4.4354,4.6894,5.2307,5.6468,5.9945,6.2548,6.3168,6.354,6.4735,6.4033,6.3375,6.4041,6.4139,6.3918,6.3303,6.3168,6.3168,6.3168,6.3123,6.3108,6.3108,6.3108,6.2854,6.2211,6.2121,6.1553,6.031,6.016,5.9578,5.8264,5.8205,5.7889,5.7184,5.7154,5.6868,5.6252,5.5641,5.5311,5.5311,5.5371,5.5401,5.5401,5.5251,5.5251,5.5341,5.5311,5.6299,5.7842,5.7393,5.7962,5.9099,5.9099,5.9099,5.9129,5.9249,5.9219,5.9488,0.0,0.0,0.0,0.0,0.0,0.0,0.0,0.0,0.0,0.0,0.0,0.0,0.0,3.8986,3.866,3.8494,3.8315,3.8448,3.8977,3.9615,4.0339,4.1152,4.139,4.1767,4.2297,4.1582,0.0,0.0,0.0,4.1775,4.424,4.5005,4.6448,4.8339,4.7168,4.5948,4.4638,4.2645,0.0,0.0,0.0,0.0,0.0,0.0,0.0,0.0,0.0,4.0332,4.0113,4.0113,0.0,0.0,0.0,4.0113,4.0113,4.0113,3.9026,3.8612,4.2343,4.2758,4.3618,4.9766,5.3318,5.5914,5.8162,6.031,6.196,6.2419,6.2134,6.2019,6.2658,6.3117,6.3349,6.3123,6.3108,6.2944,6.2525,6.2465,6.2315,6.1882,6.1822,6.1732,6.1479,6.1074,6.0609,6.013,5.9308,5.8607,5.8115,5.7679,5.7184,5.6551,5.609,5.5521,5.4713,5.4473,5.4653,5.5192,5.5192,5.5192,5.5192,5.5192,5.5192,5.5192,5.5192,5.5538,5.6107,5.594,5.6179,5.6765,5.8441,5.9099,5.9099,5.9099,5.9099,5.9249,0.0,0.0,0.0,0.0,0.0,0.0,0.0,0.0,0.0,0.0,0.0,0.0,0.0,0.0,3.9595,3.905,3.9002,3.9117,3.9335,4.0292,4.0953,4.12,4.1902,4.2187,4.1943,4.1693,0.0,0.0,0.0,0.0,0.0,4.4228,4.5382,4.678,4.6406,4.5948,0.0,0.0,0.0,4.0931,0.0,0.0,3.969,0.0,0.0,0.0,4.1512,4.1661,4.1144,4.0642,4.0472,0.0,0.0,0.0,0.0,4.0113,3.9026,3.8381,4.102,4.0741,4.1152,4.7085,4.9736,5.1828,5.5394,5.7703,5.9359,6.0257,6.0618,6.0958,6.1637,6.2141,6.2419,6.243,6.2418,6.2271,6.1822,6.1762,6.1613,6.115,6.109,6.091,6.0462,6.0027,5.9591,5.9142,5.8261,5.7679,5.747,5.7034,5.6419,5.5551,5.4892,5.4174,5.3443,5.3414,5.3563,5.3862,5.4311,5.4773,5.5192,5.4892,5.4922,5.5179,5.4892,5.4922,5.5192,5.5192,5.5192,5.5461,5.8082,5.9099,5.9099,5.9099,5.9099,5.9099,0.0,0.0,0.0,0.0,0.0,0.0,0.0,0.0,0.0,0.0,0.0,0.0,0.0,0.0,0.0,3.9064,3.9062,3.937,4.0051,4.0153,4.049,4.1194,4.1894,4.1937,4.1269,0.0,0.0,0.0,0.0,0.0,0.0,0.0,4.5312,4.6677,4.5872,4.5498,4.5385,0.0,4.3885,4.2932,0.0,3.9003,4.1111,0.0,0.0,4.253,4.487,4.4768,4.3292,4.1827,4.1301,0.0,0.0,0.0,0.0,0.0,0.0,3.7788,0.0,0.0,0.0,4.3937,4.5629,4.7849,5.4338,5.5393,5.5708,5.8386,5.9428,6.0095,6.086,6.1006,6.0966,6.098,6.1036,6.109,6.106,6.106,6.106,6.103,6.1,6.0492,5.9189,5.9039,5.8501,5.7197,5.7077,5.6808,5.6222,5.6162,5.5521,5.4179,5.3516,5.2935,5.2462,5.2462,5.2043,5.1217,5.2516,5.3845,5.5089,5.4264,5.4354,5.5132,5.4294,5.4413,5.5192,5.5192,5.5192,5.5461,5.7992,5.9039,5.9099,5.9099,5.9099,5.9099,0.0,0.0,0.0,0.0,0.0,0.0,4.1099,4.158,0.0,0.0,0.0,0.0,0.0,0.0,3.9945,3.9815,4.0294,4.0436,4.0119,4.1099,4.1782,4.2002,4.168,4.1921,4.278,0.0,0.0,0.0,0.0,4.0425,4.1052,4.2346,0.0,0.0,4.5247,4.4997,4.3819,4.2333,0.0,4.1886,3.9862,4.0013,4.1475,4.1989,4.2465,4.3087,4.5011,4.5759,4.5711,4.4774,4.3702,4.2486,0.0,0.0,0.0,0.0,0.0,0.0,3.7103,0.0,0.0,0.0,0.0,0.0,4.6286,4.8249,5.0496,5.4082,5.4603,5.5324,5.8374,5.8527,5.8228,5.8221,5.9845,6.094,6.0446,6.04,6.0027,5.9056,5.8922,5.8607,5.7723,5.7663,5.7483,5.7137,5.6239,5.585,5.6192,5.5281,5.4132,5.2815,5.2576,5.2187,5.1565,5.1565,5.1445,5.1206,5.1576,5.2456,5.3767,5.3486,5.3695,5.4294,5.4683,5.4982,5.5192,5.5192,5.5192,5.5281,5.6,5.7423,5.9099,5.9099,5.9099,5.9099,0.0,0.0,0.0,0.0,0.0,4.1378,4.1378,4.179,4.1981,0.0,0.0,0.0,0.0,0.0,0.0,4.0562,4.0965,4.1148,4.1041,4.1546,4.199,4.2305,4.1599,4.1613,4.2449,4.1214,4.0785,4.1192,4.0785,4.0705,4.1052,4.2218,4.2821,0.0,0.0,0.0,0.0,0.0,4.126,4.1281,4.1005,4.1792,4.3306,4.4701,4.5751,4.6667,4.8331,4.9025,4.8896,4.7526,4.5437,4.3013,0.0,0.0,0.0,0.0,0.0,0.0,0.0,0.0,0.0,3.7785,0.0,0.0,4.3452,4.4724,4.6534,5.1027,5.1648,5.2339,5.5487,5.5987,5.5987,5.6256,5.7842,5.9023,5.8873,5.8843,5.856,5.7769,5.7679,5.7423,5.6778,5.6718,5.6479,5.5927,5.5209,5.4832,5.4935,5.3922,5.3025,5.2217,5.1947,5.1606,5.1206,5.1206,5.1206,5.1206,5.1206,5.1606,5.2366,5.2648,5.2977,5.3324,5.3473,5.3832,5.4413,5.4982,5.5192,5.5192,5.5192,5.6137,5.7603,5.871,5.9099,5.9099,0.0,0.0,4.2601,4.2601,4.2175,4.1805,4.1805,4.1805,4.1784,0.0,0.0,0.0,0.0,0.0,0.0,0.0,4.1318,4.1597,4.2266,4.1753,4.1748,4.2393,4.1627,4.1237,4.1307,4.1152,4.1105,4.1192,4.1212,4.1569,4.2328,4.3042,4.3067,4.248,0.0,0.0,0.0,4.1586,4.1759,4.1237,4.2246,4.3856,4.5894,4.858,5.037,5.1673,5.3272,5.3424,5.2463,5.0139,4.6981,4.3626,4.1225,0.0,0.0,0.0,3.7801,0.0,0.0,0.0,0.0,0.0,3.7989,0.0,4.3178,4.3106,4.3337,4.8209,4.9219,4.9911,5.2121,5.3144,5.3832,5.4354,5.5234,5.6162,5.6974,5.7094,5.7077,5.7017,5.6915,5.6658,5.6042,5.5923,5.5371,5.4192,5.4089,5.3773,5.3007,5.2486,5.2157,5.2097,5.1427,5.1116,5.1206,5.1206,5.1206,5.1206,5.1206,5.1206,5.1206,5.1828,5.2175,5.2312,5.1546,5.1887,5.3097,5.4593,5.5192,5.5192,5.5192,5.5192,5.5491,5.7812,5.886,5.9099,0.0,0.0,4.1974,4.1974,4.1885,4.1805,4.1805,4.1805,4.1639,0.0,0.0,0.0,0.0,0.0,0.0,0.0,4.2084,4.2148,4.2304,4.2716,4.3016,4.3169,4.1903,4.1472,4.2064,4.0919,4.0612,4.1192,4.1191,4.1597,4.2326,4.3056,4.3312,4.3205,4.3484,4.2974,4.1895,4.275,4.3027,4.2821,4.2553,4.4508,4.7759,4.96,5.1717,5.3888,5.5567,5.6062,5.5495,5.2621,4.9999,4.7297,4.3837,4.1822,4.0374,3.8538,0.0,0.0,0.0,0.0,0.0,3.7191,3.8374,0.0,3.8429,3.8719,3.9923,4.2581,4.313,4.4204,4.7796,4.9445,5.0115,4.9714,5.1959,5.4563,5.6778,5.7094,5.6928,5.6432,5.591,5.5299,5.464,5.4114,5.3677,5.3396,5.3396,5.2887,5.1636,5.1977,5.1947,5.1427,5.0745,5.0656,5.1176,5.1206,5.1206,5.1206,5.1206,5.1206,5.1206,5.1337,5.1427,5.1445,5.1265,5.1367,5.1786,5.4192,5.5192,5.5192,5.5192,5.5192,5.5251,5.576,5.7304,5.9099,0.0,4.0748,4.1335,4.1335,4.1127,4.0961,4.0961,4.0961,0.0,0.0,0.0,0.0,0.0,0.0,0.0,0.0,0.0,0.0,0.0,4.3429,4.3577,4.3984,4.2535,4.2098,4.2824,4.1768,4.1553,4.2305,4.2301,4.2703,4.3477,4.3837,4.3797,4.3429,4.3804,4.2947,4.1292,4.274,4.2421,4.1248,4.4616,4.7864,5.0925,5.312,5.5307,5.7286,5.8128,5.7965,5.6731,5.2575,5.071,4.9237,4.4232,4.2665,4.2138,3.9467,3.8366,3.7772,3.6755,3.6981,3.754,3.7869,3.8185,0.0,0.0,3.7944,3.8293,4.1269,4.1085,4.1423,4.4698,4.5614,4.6174,4.716,4.8955,5.105,5.3341,5.4807,5.5538,5.5251,5.4623,5.4084,5.3713,5.3396,5.3067,5.2737,5.2097,5.1546,5.1217,5.093,5.075,5.0697,5.0081,5.0051,5.0697,5.1026,5.0966,5.0559,5.1008,5.0966,5.0559,5.0996,5.1206,5.1206,5.1206,5.1206,5.1295,5.2653,5.3982,5.5192,5.5192,5.5192,5.5192,5.5192,5.603,5.7154,4.0636,0.0,4.0879,4.0756,4.0392,4.0113,4.0113,4.0113,0.0,0.0,0.0,0.0,0.0,0.0,0.0,0.0,0.0,0.0,0.0,4.4335,4.3756,4.4567,4.3253,4.2732,4.3177,4.261,4.2657,4.3413,4.3389,4.3804,4.4608,4.4608,4.4253,4.3661,4.3999,4.2854,4.0779,4.2236,4.185,4.0737,4.6886,5.0419,5.2316,5.5491,5.7847,5.9521,5.9964,5.9246,5.742,5.2922,5.1459,5.0561,4.4961,4.3684,4.3692,4.0958,3.9697,3.8962,3.7925,3.7913,3.839,3.9209,3.8701,3.8264,0.0,0.0,0.0,4.0497,3.9879,3.9514,4.1757,4.1983,4.2481,4.4456,4.5982,4.7328,4.8514,5.0996,5.2863,5.3371,5.2737,5.2348,5.2618,5.2169,5.181,5.1648,5.0278,4.9848,5.0769,4.9875,4.9505,5.0009,4.9415,4.9475,5.0207,5.0488,5.041,4.9961,5.0667,5.0637,4.9991,5.0817,5.1206,5.1206,5.1206,5.1206,5.1206,5.1487,5.3025,5.5192,5.5192,5.5192,5.5192,5.5192,5.5192,5.5192,4.0123,4.0446,4.0745,4.0285,4.0123,4.0113,4.0113,4.0113,0.0,0.0,0.0,0.0,0.0,0.0,0.0,0.0,0.0,0.0,5.0084,0.0,4.3756,4.4567,4.3749,4.2997,4.2431,4.2343,4.2661,4.3386,4.3404,4.3804,4.4608,4.4608,4.456,4.4425,4.3146,4.2627,4.2676,4.1672,4.3115,4.6182,4.7806,4.7936,4.7703,5.2416,5.5458,5.7424,5.9405,5.956,5.8594,5.6688,5.4585,5.2235,4.8885,4.6388,4.4386,4.2661,4.2073,4.1907,4.1767,4.2988,4.3495,4.0232,4.143,4.212,3.7171,0.0,3.783,3.654,0.0,3.7077,3.793,0.0,0.0,3.9349,4.28,4.5015,4.3509,4.5544,4.8065,5.0387,4.9583,4.9284,5.0428,4.8454,4.7788,4.9486,4.7848,4.7538,4.9438,4.9378,4.9318,4.9396,4.8768,4.8985,5.0207,4.9164,4.9164,5.0177,5.0267,5.0267,5.0177,5.0877,5.1206,5.1206,5.1206,5.1206,5.1307,5.2486,5.3845,5.5192,5.5192,5.5192,5.5192,5.5192,5.5192,5.5192,4.0736,4.0678,0.0,4.0192,4.0113,4.0113,4.0113,4.1961,0.0,0.0,0.0,0.0,0.0,0.0,0.0,0.0,0.0,4.7085,0.0,0.0,0.0,4.5846,4.4714,4.4163,4.4267,4.3844,4.3797,4.411,4.411,4.4253,4.4608,4.4117,4.3892,4.3858,4.2794,4.2354,4.2435,4.23,4.2633,4.3498,4.5793,4.5968,4.5621,5.3074,5.7066,5.8835,5.9768,5.9232,5.7707,5.5339,5.3719,5.2078,4.8516,4.7259,4.6633,4.425,4.3536,4.334,4.2589,4.3289,4.3704,4.1639,4.1606,4.1188,3.7928,3.6941,3.6699,3.6632,0.0,0.0,0.0,0.0,0.0,0.0,4.0017,4.1274,4.1244,4.2192,4.4147,4.7516,4.6471,4.5973,4.7238,4.6719,4.6659,4.7489,4.6411,4.6441,4.8038,4.8128,4.8319,4.8708,4.8068,4.8147,4.9093,4.8577,4.8577,4.9093,4.986,5.0009,4.9703,5.0739,5.1206,5.1206,5.1206,5.1206,5.1307,5.2648,5.3516,5.4114,5.4892,5.5192,5.5192,5.5192,5.5192,5.5192,4.163,0.0,0.0,4.0417,4.0198,4.018,4.0377,4.2888,4.4782,0.0,0.0,0.0,5.0963,5.0366,0.0,0.0,5.1041,4.9784,0.0,0.0,4.6357,4.6491,4.5665,4.5159,4.5073,4.497,4.4792,4.4608,4.4608,4.4608,4.4608,4.3988,4.3719,4.3701,4.3378,4.3179,4.3104,4.3693,4.3557,4.3187,4.5433,4.629,4.6937,5.3528,5.7202,5.8856,5.868,5.7772,5.6251,5.3659,5.2573,5.1802,4.8661,4.8126,4.8229,4.6035,4.5399,4.5144,4.4044,4.436,4.4599,4.2847,4.1664,4.0437,3.8545,3.7313,3.679,3.751,3.7369,0.0,0.0,0.0,3.6917,3.7952,0.0,3.8841,3.9269,3.9469,4.0836,4.4267,4.3918,4.3808,4.4915,4.4815,4.4984,4.5702,4.4456,4.4586,4.6651,4.6741,4.713,4.8008,4.7549,4.7608,4.8278,4.8128,4.8218,4.8588,4.9512,4.9811,4.9595,5.0679,5.1206,5.1206,5.1206,5.1206,5.1277,5.2247,5.2767,5.3007,5.3815,5.4551,5.5192,5.5192,5.5192,5.5192,4.265,4.2185,0.0,4.0995,4.0425,4.0343,4.1068,4.1887,4.308,0.0,0.0,0.0,0.0,0.0,0.0,0.0,0.0,5.257,5.5564,0.0,4.7207,4.5784,4.6368,4.5716,4.3504,4.4922,4.5326,4.4608,4.4608,4.4608,4.4608,4.4567,4.4579,4.4574,4.5261,4.565,4.5766,4.5929,4.7181,4.8971,4.8443,4.9983,5.2581,5.2508,5.3866,5.5771,5.5106,5.4784,5.4487,5.2995,5.2267,5.1781,5.0933,4.9598,4.8311,4.8207,4.8166,4.8022,4.732,4.8114,4.8029,4.3516,4.2373,4.1455,3.8187,3.8395,3.9088,3.8481,3.9874,4.0825,3.958,0.0,0.0,0.0,3.8524,0.0,0.0,3.7135,3.8272,4.0337,4.2203,4.3569,4.4277,4.2063,4.1644,4.4187,4.1395,4.1285,4.5165,4.5374,4.5963,4.7309,4.7298,4.7608,4.8278,4.7668,4.7967,4.9258,4.9318,4.9625,5.0207,5.0877,5.1206,5.1206,5.1206,5.1206,5.1206,5.1236,5.1636,5.2187,5.1546,5.2893,5.5192,5.5192,5.5192,5.5192,0.0,0.0,0.0,4.0955,4.0472,4.0675,4.2374,4.4156,4.641,4.9548,5.165,5.4146,5.7504,5.7996,5.8758,0.0,0.0,5.7252,5.5568,5.3491,5.1761,5.0453,4.9015,4.8133,0.0,4.7406,4.6252,4.4461,4.5048,4.4785,4.3749,4.3797,4.4073,4.4599,4.4304,4.4961,4.6292,4.6062,4.6863,4.835,4.8779,5.0888,5.3727,5.3447,5.3755,5.4274,5.4056,5.3457,5.266,5.1744,5.1156,5.0654,5.0011,4.9431,4.8951,4.8955,4.8975,4.9015,4.9171,4.9875,4.9669,4.5912,4.465,4.3328,3.9588,3.9762,4.028,3.8728,4.0351,4.1532,3.9729,0.0,0.0,0.0,0.0,3.7545,0.0,3.602,3.6716,3.8234,4.0178,4.0956,3.9849,3.9349,3.9619,4.0947,3.961,4.0107,4.3199,4.4596,4.5723,4.66,4.7059,4.7429,4.7638,4.7429,4.7758,4.8648,4.8648,4.9194,5.0207,5.0446,5.0787,5.1206,5.1206,5.1206,5.1236,5.1666,5.1726,5.1576,5.1923,5.2252,5.2785,5.4563,5.5192,5.5192,4.2867,0.0,4.103,4.129,4.1308,4.1707,4.3059,4.6619,4.9953,5.2138,5.5074,5.8155,6.1256,6.1754,6.194,0.0,6.2134,6.0112,5.5293,5.5576,0.0,5.226,5.1082,5.0193,0.0,0.0,4.6625,4.3896,4.4986,4.4767,4.33,4.3661,4.411,4.4608,4.4881,4.5623,4.6708,4.7696,4.8336,4.8735,4.9613,5.1244,5.3127,5.3001,5.2864,5.268,5.2228,5.1593,5.0918,5.0481,5.0265,5.0179,5.0021,4.9814,4.9624,4.961,4.9624,4.9693,5.0102,5.0693,5.0527,4.7723,4.6515,4.5082,4.1593,4.1809,4.2352,4.0816,4.2062,4.311,4.2063,0.0,0.0,0.0,0.0,0.0,0.0,3.5511,3.581,3.6618,3.8272,3.9011,3.8204,3.8063,3.8332,3.8981,3.8212,3.888,4.1562,4.3319,4.4776,4.5922,4.707,4.7549,4.7309,4.7758,4.8218,4.8648,4.8865,4.9542,5.0578,5.0578,5.0787,5.1206,5.1206,5.1206,5.1236,5.1666,5.1576,5.1265,5.1804,5.1684,5.1505,5.4192,5.5192,5.5192,4.2806,4.1951,4.1375,4.2089,4.2864,4.3354,4.3305,4.9038,5.3255,5.2954,5.698,6.0561,6.2288,6.308,6.3421,6.3301,6.3713,6.1457,5.5402,5.7278,0.0,0.0,5.2674,5.208,4.9331,0.0,0.0,0.0,4.457,4.4571,4.3359,4.4184,4.4608,4.4696,4.685,4.7481,4.7172,5.0601,5.1384,5.0354,5.0995,5.1256,5.1285,5.1215,5.1198,5.1012,4.976,4.9284,4.9251,4.9258,4.9673,5.0327,5.0936,5.0731,5.0241,5.03,5.03,5.03,5.0383,5.0842,5.0858,4.8955,4.7942,4.67,4.4077,4.4546,4.5274,4.4546,4.4975,4.5633,4.6061,0.0,0.0,0.0,0.0,0.0,3.5661,3.5511,3.5511,3.5541,3.6588,3.7815,3.9092,3.8045,3.7584,3.8251,3.7144,3.7593,4.0217,4.1652,4.3269,4.5185,4.723,4.7997,4.7369,4.8648,4.9318,4.9348,4.9901,5.0518,5.1206,5.1187,5.1187,5.1206,5.1206,5.1206,5.1206,5.1206,5.1206,5.1206,5.1206,5.1206,5.1505,5.4192,5.5192,5.5192,4.3258,4.3903,4.4368,4.4007,4.3654,4.4234,4.6773,5.063,5.4547,5.8138,6.2538,6.6043,6.7789,6.8538,6.8108,6.6188,6.7457,6.6254,0.0,0.0,0.0,5.8411,5.7435,5.6149,5.4447,5.2259,4.9595,4.6478,4.5734,4.4813,4.3826,4.4363,4.4608,4.4656,4.6135,4.6983,4.7468,4.948,5.0865,5.1693,5.187,5.2222,5.2587,5.156,5.1196,5.1028,4.9761,4.8974,4.8553,4.8565,4.9284,5.0237,5.0387,5.0669,5.1028,5.1536,5.1691,5.1912,5.2888,5.2949,5.2462,5.1453,4.9989,4.8349,4.6651,4.732,4.781,4.6121,4.71,4.741,4.4596,0.0,0.0,0.0,0.0,0.0,3.5541,3.5511,3.5691,3.6186,3.6088,3.6109,3.6468,3.6199,3.6267,3.6943,3.6207,3.6896,3.9511,4.1403,4.305,4.4516,4.698,4.8218,4.8027,4.8887,4.9535,4.9979,4.9673,5.0122,5.1176,5.0686,5.0727,5.1206,5.1206,5.1206,5.1206,5.1206,5.1206,5.1206,5.1206,5.1206,5.1505,5.4192,5.5192,5.5192,4.3876,4.6169,4.7861,4.7139,4.846,4.9849,5.0394,5.2639,5.5683,5.9497,6.4228,6.7507,6.8199,7.0367,7.0827,6.8516,6.9335,6.7907,6.2988,0.0,0.0,6.0627,5.9879,5.8499,5.6303,5.3294,0.0,4.7259,4.5876,4.4845,4.4171,4.4474,4.4785,4.5107,4.6004,4.6716,4.7371,4.8902,5.0547,5.2175,5.1877,5.1984,0.0,5.1164,5.0601,5.0281,4.9564,4.906,4.8747,4.8743,4.94,5.0267,5.0536,5.0907,5.1325,5.1995,5.2197,5.2417,5.3483,5.3707,5.3414,5.243,5.159,5.0504,4.8607,4.8768,4.8887,4.7459,4.7608,4.7399,0.0,4.312,4.0445,3.7097,3.5968,3.5511,3.5511,3.5511,3.5639,3.6006,3.5729,3.5511,3.5511,3.5511,3.5669,3.6028,3.6229,3.6857,3.8063,4.0834,4.285,4.3868,4.7298,4.9015,4.8738,5.0235,5.072,5.0207,5.0152,5.0511,5.1176,5.0817,5.0996,5.1606,5.1337,5.1367,5.1606,5.1325,5.1206,5.1206,5.1206,5.1415,5.1995,5.3683,5.4713,5.5192,4.5007,4.8486,5.1056,5.0323,5.4213,5.6713,5.4503,5.5907,5.7954,5.9996,6.4808,6.7778,6.7102,7.0609,7.2297,7.0406,7.026,6.8206,6.3468,6.5085,6.4678,6.116,6.1318,6.001,5.6903,5.3405,5.0241,0.0,4.5764,4.4821,4.4671,4.4615,4.4929,4.5593,4.603,4.6503,4.7046,4.8535,5.0199,5.1782,5.1366,5.1206,5.1122,5.0548,4.9999,4.9545,4.9443,4.9296,4.9186,4.937,4.9768,5.0327,5.0996,5.1206,5.1367,5.2127,5.2328,5.2489,5.3259,5.3753,5.3806,5.2623,5.2636,5.2348,5.0055,4.9546,4.9366,4.8697,4.7568,4.6749,4.701,4.3389,3.9379,3.6267,3.575,3.5789,3.5878,3.5729,3.5669,3.575,3.5691,0.0,3.5639,3.5541,3.5511,3.5511,3.6537,3.6956,3.6515,3.9996,4.2401,4.3249,4.7527,4.9722,4.9546,5.178,5.2187,5.0686,5.1026,5.1206,5.1206,5.1307,5.1636,5.2187,5.1666,5.1726,5.2157,5.1576,5.1277,5.1206,5.1325,5.1774,5.2402,5.2977,5.4054,5.5192,4.8063,5.0126,5.1532,5.0744,5.3632,5.7138,6.0408,6.3384,6.5545,6.6327,7.0557,7.3268,7.2591,7.324,7.313,7.1689,7.1571,7.0719,6.8748,6.8024,6.7107,6.5844,6.432,6.2482,6.0287,5.5914,5.2987,0.0,4.7089,4.5303,4.6018,4.5034,4.4663,4.4819,4.5221,4.588,4.6737,4.7959,4.8993,4.9881,5.0814,5.1206,5.1176,5.1069,5.0962,5.08,5.024,4.9383,4.8641,4.9689,5.0119,5.0327,5.0996,5.1206,5.1427,5.2677,5.3006,5.3298,5.4516,5.4132,5.3329,5.3085,5.2282,5.1427,5.0978,5.0858,5.0679,5.0009,4.9284,4.8139,4.6033,4.2761,3.9679,3.7426,3.7067,3.7255,3.7793,3.6994,3.6515,3.7007,3.6626,3.6306,3.6306,3.5818,3.5511,3.5511,3.5699,3.6028,3.6493,3.8691,4.0726,4.2521,4.5973,4.8794,5.0858,5.1307,5.2115,5.3246,5.1846,5.1206,5.1206,5.1756,5.2097,5.2217,5.2677,5.2618,5.2187,5.2067,5.1696,5.1265,5.1983,5.1935,5.1565,5.2767,5.4054,5.5192,5.2258,5.3421,5.4637,5.5824,5.8801,6.2192,6.564,6.9078,7.0336,6.7794,7.0035,7.1592,7.0916,7.2995,7.3887,7.2531,7.2428,7.173,7.0114,6.9062,6.7903,6.656,6.5218,6.3454,6.1133,5.6911,5.4291,5.3374,4.8428,4.6407,4.7173,4.6181,4.5757,4.5709,4.4967,4.5509,4.6987,4.7177,4.8235,4.984,5.0814,5.1206,5.1164,5.0814,5.0666,5.0624,5.0339,4.9816,4.9374,4.9981,5.0437,5.0787,5.1086,5.1206,5.1457,5.2797,5.2947,5.2977,5.4311,5.3964,5.3109,5.2767,5.2187,5.1636,5.1277,5.1206,5.0996,5.0327,4.9733,4.8379,4.5334,4.2671,0.0,3.9628,3.8901,3.8682,3.9349,3.8601,3.7845,3.7456,3.6866,3.6365,3.6006,3.5699,3.5511,3.5511,3.6109,3.6357,3.5998,3.8135,4.0337,4.2351,4.5584,4.8405,5.0656,5.1738,5.2336,5.2486,5.1606,5.1206,5.1206,5.1876,5.2396,5.2737,5.3067,5.3156,5.2995,5.2067,5.1487,5.1236,5.1654,5.2145,5.2576,5.2276,5.3443,5.5192,5.6435,5.6991,5.8094,6.1033,6.4254,6.7107,6.9091,7.2525,7.3389,6.9229,6.9618,7.0067,6.9514,7.2701,7.4411,7.3222,7.2982,7.2123,7.0298,6.9427,6.8174,6.6273,6.5428,6.3918,6.1595,5.7896,5.5363,5.4073,4.9869,4.7672,4.7413,4.6989,4.6629,4.6241,4.4843,4.5144,4.6741,4.6712,4.8005,5.0081,5.0868,5.1206,5.1122,5.0601,5.04,5.04,5.04,5.04,5.04,5.04,5.0761,5.1206,5.1206,5.1206,5.1457,5.2797,5.2833,5.2707,5.4059,5.3803,5.3067,5.2546,5.2187,5.1846,5.1325,5.1206,5.0996,5.0327,4.9613,4.8139,4.5095,4.3389,0.0,4.1523,4.0756,4.0328,4.0586,4.0148,3.9281,3.7785,3.7195,3.6545,3.5579,3.5511,3.5511,3.5511,3.6439,3.6558,3.5541,3.7716,3.9888,4.1922,4.5165,4.7956,5.0177,5.1905,5.2438,5.1756,5.1385,5.1206,5.1247,5.2037,5.2767,5.3366,5.3545,5.3815,5.4024,5.2025,5.1206,5.1247,5.1517,5.2665,5.3994,5.2576,5.3384,5.5192,5.9803,6.001,6.0365,6.2902,6.581,6.8084,6.8937,7.2378,7.4706,7.4227,7.4257,7.4317,7.4257,7.4646,7.4604,7.3853,7.3265,7.2319,7.0907,6.9676,6.8373,6.6983,6.5694,6.4336,6.2946,6.0052,5.702,5.3924,5.159,4.8879,4.5933,4.6515,4.6006,4.4614,4.4556,4.465,4.4999,4.7187,4.8604,4.948,5.0708,5.1206,5.1176,5.1122,5.1111,5.1111,5.1111,5.1111,5.1111,5.1111,5.1164,5.1206,5.1206,5.1206,5.1457,5.2797,5.3154,5.3414,5.4752,5.4174,5.3186,5.3126,5.2187,5.1277,5.1206,5.1206,5.0996,5.0327,4.9243,4.7739,4.5614,4.5563,4.4875,4.1882,4.2272,4.2562,4.1463,4.1254,4.0496,3.855,3.8251,3.7503,3.5691,3.5511,3.5511,3.5511,3.5601,3.5631,3.5511,3.6827,3.8512,4.0516,4.3778,4.6999,5.0177,5.0996,5.2157,5.3635,5.1965,5.1206,5.1247,5.2516,5.3366,5.3875,5.4683,5.5042,5.4892,5.2264,5.1206,5.1325,5.2558,5.3875,5.5072,5.4892,5.4982,5.5192,6.3978,6.3293,6.3493,6.7258,6.7971,6.9035,7.2072,7.3868,7.4886,7.4886,7.4886,7.4886,7.4886,7.4886,7.4471,7.3384,7.3051,7.2328,7.0981,6.9322,6.7976,6.7028,6.5319,6.3979,6.3108,6.0412,5.7974,5.5824,5.3415,5.09,4.8342,4.7644,4.6364,4.4611,4.4179,4.4816,4.6285,4.7264,4.8547,4.991,5.0818,5.1206,5.1206,5.1206,5.1206,5.1206,5.1206,5.1206,5.1206,5.1206,5.1206,5.1206,5.1206,5.1473,5.1969,5.2935,5.3202,5.3479,5.4842,5.4234,5.3198,5.3198,5.2486,5.1696,5.1307,5.1206,5.1116,5.0847,5.0069,4.8974,4.738,4.667,4.6001,4.5095,4.4696,4.4307,4.3818,4.273,4.1254,3.923,3.7982,3.6784,3.5601,3.5511,3.5669,3.6058,3.5729,3.5511,3.5511,3.599,3.7524,4.0307,4.2811,4.5713,4.9045,5.0469,5.1565,5.2276,5.1546,5.1206,5.1247,5.2294,5.3473,5.4713,5.5042,5.5192,5.5132,5.4042,5.2653,5.1236,5.1786,5.3294,5.5192,5.5192,5.5192,5.5192,6.7409,6.6567,6.6797,7.1228,7.0915,7.1131,7.4407,7.4736,7.4616,7.4616,7.4437,7.4377,7.4587,7.4416,7.3844,7.2701,7.2607,7.1963,7.0436,6.9049,6.7732,6.6462,6.5047,6.392,6.3108,6.1009,5.9121,5.7457,5.4837,5.2339,4.9947,4.8175,4.6765,4.5632,4.5173,4.5961,4.763,4.82,4.9242,5.055,5.1233,5.1378,5.1206,5.1206,5.1206,5.1217,5.1419,5.1484,5.1526,5.1728,5.1782,5.1747,5.1558,5.1831,5.2362,5.3236,5.35,5.3739,5.4889,5.4384,5.3486,5.3486,5.3007,5.2366,5.1917,5.1636,5.1427,5.1247,5.0667,4.992,4.9004,4.7777,4.6909,4.6999,4.6381,4.5554,4.4566,4.3449,4.1792,3.94,3.7734,3.6417,3.5571,3.5511,3.5789,3.6455,3.6058,3.578,3.578,3.5968,3.7396,4.0307,4.2661,4.5324,4.8278,5.023,5.1206,5.1206,5.1206,5.1206,5.1236,5.2264,5.3623,5.5192,5.5192,5.5192,5.5192,5.5192,5.4072,5.2384,5.2384,5.3533,5.5192,5.5192,5.5192,5.5192,6.9742,6.976,7.0203,7.4171,7.4843,7.4826,7.4886,7.4347,7.3911,7.3911,7.3343,7.3193,7.3821,7.3311,7.2641,7.1966,7.1914,7.1074,6.9154,6.9014,6.7804,6.5124,6.5017,6.4409,6.3138,6.2284,6.068,5.8283,5.5658,5.2768,4.9661,4.7587,4.6988,4.7678,4.8065,4.8259,4.8397,5.0331,5.1158,5.1241,5.1931,5.1782,5.1206,5.1206,5.1206,5.1282,5.1942,5.2187,5.2282,5.2945,5.3191,5.3043,5.2384,5.2192,5.2453,5.3807,5.4199,5.4331,5.5026,5.47,5.4179,5.4179,5.3683,5.3198,5.3169,5.2677,5.2007,5.1337,5.0667,5.0207,5.0177,4.9123,4.7848,4.654,4.685,4.6142,4.288,4.299,4.2142,3.882,3.7823,3.6887,3.5631,3.5511,3.5789,3.6455,3.6493,3.6493,3.6493,3.7045,3.8302,4.0337,4.3569,4.6242,4.8278,5.023,5.1206,5.1206,5.1206,5.1206,5.1236,5.2576,5.3935,5.5192,5.5192,5.5192,5.5192,5.5192,5.5192,5.5162,5.5162,5.5162,5.5192,5.5192,5.5192,5.5192,7.0458,7.0926,7.1368,7.2641,7.3629,7.4227,7.4227,7.4031,7.3881,7.3881,7.294,7.2312,7.2521,7.2754,7.2816,7.2598,7.2169,7.1274,6.976,6.8394,6.7048,6.5747,6.4423,6.3506,6.3108,6.2387,6.111,5.9253,5.7944,5.5207,5.1117,4.9937,4.9183,4.8831,4.9821,5.0272,5.0361,5.1439,5.1606,5.1217,5.1419,5.1378,5.1206,5.1206,5.1206,5.1282,5.1972,5.2193,5.2292,5.2961,5.3196,5.3226,5.3481,5.3561,5.3645,5.4074,5.4513,5.4929,5.5136,5.5029,5.476,5.4299,5.403,5.3773,5.3306,5.2677,5.2007,5.1337,5.1026,5.0619,4.9744,4.9247,4.8528,4.7209,4.679,4.5762,4.3349,4.2073,4.0457,3.8003,3.6768,3.596,3.5541,3.5908,3.6276,3.6485,3.6866,3.6926,3.6515,3.7934,3.949,4.1035,4.4277,4.695,4.8947,5.0451,5.1206,5.1206,5.1206,5.1206,5.1277,5.3533,5.4803,5.5311,5.7064,5.7872,5.7723,5.594,5.5192,5.5192,5.5192,5.5192,5.5192,5.5192,5.5192,5.5192,7.1547,7.2176,7.2671,7.2671,7.3569,7.4287,7.4287,7.4061,7.3821,7.3552,7.2581,7.1893,7.1893,7.2056,7.2129,7.2129,7.1553,7.0734,6.97,6.7983,6.6586,6.5657,6.4224,6.3336,6.3093,6.2445,6.1582,6.0538,5.8865,5.6229,5.2681,5.2215,5.1717,5.1181,5.1977,5.2175,5.1977,5.2396,5.2187,5.1576,5.1576,5.1427,5.1206,5.1206,5.1206,5.1324,5.224,5.258,5.2708,5.3643,5.3946,5.4014,5.4458,5.4594,5.4589,5.4592,5.488,5.5192,5.5192,5.5192,5.5102,5.467,5.4581,5.4401,5.3725,5.3234,5.2695,5.1756,5.1576,5.1259,5.0223,4.9606,4.9048,4.8188,4.7059,4.5523,4.3289,4.1474,3.964,3.7635,3.6708,3.6199,3.6199,3.7293,3.7742,3.7242,3.849,3.888,3.8012,3.911,4.0507,4.2073,4.5084,4.7627,4.9625,5.093,5.1576,5.1576,5.1828,5.2025,5.2264,5.3785,5.5251,5.6765,5.8381,5.9099,5.8979,5.7334,5.609,5.5192,5.5192,5.5192,5.5192,5.5192,5.5192,5.5192,7.2727,7.3373,7.3821,7.3821,7.4347,7.4766,7.4826,7.4257,7.3612,7.2967,7.2325,7.1893,7.1833,7.1248,7.0843,7.0827,7.0317,6.9703,6.8972,6.7691,6.6357,6.5049,6.4335,6.3668,6.3093,6.249,6.2092,6.1913,5.8697,5.6239,5.4525,5.4426,5.4389,5.4329,5.4329,5.3952,5.3288,5.3288,5.2857,5.2187,5.2187,5.1786,5.1206,5.1206,5.1236,5.1444,5.2725,5.3241,5.3478,5.4763,5.5192,5.5192,5.5192,5.5192,5.5192,5.5192,5.5192,5.5192,5.5192,5.5192,5.5192,5.5192,5.5192,5.5029,5.4359,5.4209,5.382,5.2546,5.2247,5.2007,5.1325,5.0193,4.9337,4.9258,4.7549,4.5324,4.271,4.1224,3.964,3.7635,3.7516,3.7605,3.7605,3.929,3.9888,3.87,4.0934,4.1802,4.0606,4.0696,4.1644,4.3449,4.6102,4.8394,5.0327,5.1576,5.2217,5.2276,5.2947,5.3516,5.3964,5.3545,5.5461,5.9099,5.9099,5.9099,5.9099,5.9099,5.7573,5.5192,5.5192,5.5192,5.5192,5.5192,5.5192,5.5222,7.2206,7.2684,7.3146,7.3146,7.3283,7.3552,7.4061,7.3582,7.3086,7.2907,7.2325,7.1713,7.1188,7.056,7.0226,7.0195,7.0071,6.9498,6.8305,6.698,6.5862,6.5049,6.391,6.323,6.3093,6.2946,6.2588,6.2042,5.9744,5.838,5.7929,5.6898,5.6179,5.5743,5.5743,5.5072,5.3952,5.3952,5.3294,5.2187,5.2187,5.1786,5.1206,5.1206,5.1529,5.2085,5.29,5.3545,5.4099,5.4929,5.5192,5.5192,5.5192,5.5192,5.5192,5.5192,5.5192,5.5192,5.5192,5.5192,5.5192,5.5192,5.5192,5.5029,5.4359,5.4209,5.3952,5.3126,5.2558,5.2007,5.1325,5.0529,4.9662,4.8697,4.6841,4.4626,4.2002,4.0915,3.964,3.7635,3.8751,3.9679,3.9679,4.0127,4.0487,4.0685,4.1293,4.1703,4.1922,4.3808,4.5104,4.5572,4.8155,5.0219,5.1696,5.2037,5.2456,5.2977,5.3653,5.4281,5.4892,5.4773,5.6329,5.9099,5.9099,5.9099,5.9099,5.9099,5.7573,5.5192,5.5192,5.5192,5.5192,5.5192,5.5192,5.5491,7.291,7.3343,7.3702,7.3402,7.3612,7.3941,7.4317,7.4031,7.3582,7.2967,7.2385,7.1637,7.059,7.0187,6.9746,6.9145,6.9083,6.8633,6.7588,6.629,6.5247,6.4588,6.3609,6.3108,6.3108,6.3108,6.2772,6.2103,6.0383,5.9569,5.9515,5.8494,5.7663,5.7064,5.6748,5.606,5.5059,5.4461,5.376,5.3084,5.2785,5.2438,5.2127,5.2127,5.233,5.2737,5.3428,5.3882,5.4294,5.4962,5.5192,5.5192,5.5192,5.5192,5.5192,5.5192,5.5192,5.5192,5.5192,5.5192,5.5192,5.5192,5.5192,5.5102,5.473,5.467,5.4461,5.3815,5.3354,5.2815,5.1846,5.0877,4.9669,4.8087,4.6172,4.3928,4.1304,4.0645,3.9978,3.8901,4.0286,4.1424,4.1694,4.2571,4.2871,4.2312,4.3389,4.4117,4.4177,4.6659,4.7676,4.679,4.9291,5.1146,5.2187,5.2815,5.3443,5.4114,5.4491,5.485,5.5222,5.5808,5.6538,5.7393,5.859,5.9099,5.9099,5.9099,5.8261,5.6974,5.6974,5.6974,5.6974,5.6974,5.6974,5.7184,7.3911,7.4437,7.4706,7.4168,7.4437,7.4766,7.4886,7.4796,7.4287,7.3163,7.2595,7.1697,7.0097,6.9826,6.925,6.8102,6.7909,6.7572,6.6908,6.5692,6.471,6.404,6.3417,6.3108,6.3108,6.3108,6.2813,6.224,6.1008,6.0351,6.025,5.9558,5.8827,5.8085,5.7513,5.6868,5.6132,5.497,5.4401,5.4149,5.3575,5.3276,5.3198,5.3198,5.3246,5.3438,5.3991,5.4273,5.4453,5.5007,5.5192,5.5192,5.5192,5.5192,5.5192,5.5192,5.5192,5.5192,5.5192,5.5192,5.5222,5.5332,5.5277,5.5192,5.5192,5.5192,5.5042,5.4461,5.4269,5.382,5.2576,5.1247,4.9699,4.7788,4.5683,4.3409,4.0905,4.0645,4.0705,4.0705,4.2152,4.3369,4.3997,4.5523,4.5822,4.4326,4.6132,4.7179,4.6888,4.9101,4.965,4.8087,5.029,5.1816,5.2486,5.373,5.47,5.5341,5.5251,5.5341,5.5688,5.6655,5.6609,5.591,5.8141,5.9099,5.9099,5.9099,5.9099,5.9099,5.9099,5.9099,5.9099,5.9099,5.9099,5.9099,7.4001,7.4437,7.4873,7.4766,7.4377,7.4257,7.4796,7.4257,7.3735,7.3509,7.3073,7.198,6.9901,6.9011,6.8421,6.8026,6.7485,6.6861,6.6199,6.5427,6.4697,6.4023,6.3417,6.3108,6.3108,6.3108,6.3049,6.2946,6.2178,6.1493,6.0927,6.0263,5.9285,5.8085,5.7995,5.7304,5.6192,5.5983,5.5251,5.4179,5.4089,5.3725,5.3198,5.3198,5.3545,5.4072,5.4174,5.4576,5.5055,5.5162,5.5192,5.5192,5.5192,5.5192,5.5192,5.5192,5.5192,5.5192,5.5192,5.5192,5.5332,5.5889,5.5626,5.5192,5.5192,5.5192,5.5162,5.5072,5.4598,5.3952,5.3186,5.1947,5.041,4.8457,4.5992,4.3589,4.1513,4.1733,4.2071,4.2071,4.4716,4.68,4.747,4.7309,4.7489,4.8319,4.7698,4.7986,4.9519,5.0518,5.1158,5.1439,5.2366,5.3204,5.388,5.467,5.5371,5.6042,5.5461,5.6047,5.7649,5.7277,5.7606,5.853,5.8919,5.9099,5.9099,5.9099,5.9099,5.9099,5.9099,5.9099,5.9099,5.9099,5.9099,5.9099,7.4497,7.4676,7.4886,7.4886,7.4646,7.4527,7.4856,7.4574,7.4125,7.3676,7.2565,7.1256,6.9748,6.9053,6.8354,6.7531,6.7177,6.6712,6.6049,6.5693,6.5076,6.4068,6.3727,6.3417,6.3108,6.3108,6.3108,6.3108,6.2431,6.1761,6.1092,6.0407,5.9566,5.8637,5.8264,5.756,5.6658,5.6342,5.5641,5.473,5.473,5.4563,5.4294,5.4294,5.4473,5.473,5.473,5.494,5.5192,5.5192,5.5192,5.5192,5.5192,5.5192,5.5286,5.5624,5.5739,5.5743,5.5743,5.5991,5.6295,5.6603,5.6449,5.6239,5.6239,5.597,5.5743,5.5743,5.5222,5.4431,5.3408,5.2097,5.0559,4.8607,4.5743,4.3579,4.303,4.291,4.3419,4.4866,4.7021,4.8757,4.9763,4.9273,4.9273,5.0242,4.9422,4.9561,5.1176,5.1905,5.2576,5.3264,5.3593,5.4072,5.473,5.5029,5.5551,5.6192,5.5893,5.6269,5.7231,5.7139,5.7826,5.9099,5.9099,5.9099,5.9099,5.9099,5.9099,5.9099,5.9099,5.9099,5.9099,5.9099,5.9099,5.9099,7.4886,7.4886,7.4886,7.4886,7.4886,7.4886,7.4886,7.4723,7.4334,7.3539,7.1966,7.049,6.9422,6.9027,6.8349,6.7104,6.7014,6.6773,6.626,6.6251,6.5553,6.408,6.3851,6.3565,6.3108,6.3108,6.3108,6.3108,6.2592,6.199,6.1315,6.066,5.9961,5.93,5.8634,5.7859,5.7077,5.6778,5.6179,5.5431,5.5581,5.5641,5.5641,5.5641,5.5641,5.5628,5.5491,5.5431,5.5401,5.5251,5.5311,5.5431,5.5431,5.5521,5.5752,5.6275,5.651,5.6661,5.6655,5.6887,5.7132,5.7287,5.721,5.7094,5.7094,5.6748,5.6372,5.6222,5.5803,5.5012,5.3695,5.2336,5.0799,4.8846,4.6102,4.4356,4.4715,4.4596,4.5343,4.7676,4.9176,5.0414,5.1546,5.1206,5.1116,5.1636,5.1176,5.1415,5.2606,5.3144,5.3755,5.4418,5.4418,5.467,5.5179,5.5192,5.5611,5.6402,5.6282,5.6521,5.7124,5.7206,5.7935,5.9099,5.9099,5.9099,5.9099,5.9099,5.9099,5.9099,5.9099,5.9099,5.9099,5.9099,5.9099,5.9099,7.4886,7.4886,7.4886,7.4886,7.4886,7.4886,7.4886,7.4197,7.3509,7.3013,7.1757,7.027,6.857,6.8367,6.7997,6.7059,6.7014,6.6969,6.6924,6.694,6.6052,6.4087,6.346,6.3152,6.3108,6.3108,6.3108,6.3108,6.3049,6.2695,6.2019,6.1327,6.0667,6.0004,5.9327,5.8321,5.7137,5.7709,5.7244,5.6162,5.6718,5.6958,5.6958,5.6958,5.6958,5.6898,5.6342,5.6132,5.6042,5.5401,5.5611,5.6132,5.6132,5.6509,5.6974,5.7021,5.7457,5.7959,5.7956,5.754,5.7242,5.7865,5.7566,5.7094,5.7094,5.7077,5.6868,5.6312,5.6162,5.5713,5.4371,5.3012,5.148,4.9557,4.7978,4.682,4.6241,4.7179,4.8446,4.9818,5.1158,5.2258,5.2977,5.3007,5.3007,5.3037,5.3007,5.3306,5.4,5.4089,5.4431,5.5102,5.5132,5.5162,5.5192,5.5192,5.582,5.7047,5.6462,5.7137,5.8876,5.8098,5.8248,5.9099,5.9099,5.9099,5.9099,5.9099,5.9099,5.9099,5.9099,5.9099,5.9099,5.9099,5.9099,5.9099,7.4886,7.4886,7.4886,7.4886,7.4437,7.4274,7.4826,7.4155,7.3419,7.2967,7.171,7.024,6.8496,6.7822,6.7362,6.7014,6.7014,6.7014,6.7014,6.6606,6.5995,6.5097,6.3795,6.3108,6.3108,6.3108,6.3108,6.3108,6.3108,6.2754,6.2093,6.1841,6.1149,6.0092,5.982,5.8979,5.7739,5.7995,5.756,5.6778,5.7017,5.7094,5.7094,5.7094,5.7094,5.7077,5.6838,5.6748,5.6718,5.6479,5.6539,5.6748,5.6748,5.6928,5.7184,5.759,5.8188,5.8713,5.8725,5.8844,5.8928,5.8753,5.8827,5.8843,5.8441,5.8008,5.7543,5.6898,5.6462,5.5803,5.4461,5.3443,5.2588,5.1851,4.9935,4.9026,5.0403,5.0301,5.0739,5.2462,5.3503,5.4174,5.4413,5.4042,5.3982,5.4413,5.4042,5.4102,5.479,5.5222,5.5551,5.5803,5.6179,5.6,5.5222,5.5192,5.5696,5.6741,5.6502,5.7331,5.9099,5.877,5.88,5.9099,5.9099,5.9099,5.9099,5.9099,5.9099,5.9099,5.9099,5.9099,5.9099,5.9099,5.9099,5.9099,7.4886,7.4886,7.4886,7.4886,7.4424,7.4018,7.4048,7.3689,7.3103,7.2385,7.1471,7.027,6.8691,6.7999,6.7465,6.7044,6.7014,6.7014,6.7014,6.6386,6.5741,6.5181,6.4023,6.33,6.3108,6.3108,6.3108,6.3108,6.3108,6.2857,6.2401,6.2195,6.1487,6.0391,6.0175,5.936,5.8115,5.8324,5.8038,5.7423,5.7633,5.7603,5.7453,5.7663,5.7603,5.7423,5.7423,5.7423,5.7393,5.7154,5.7244,5.7423,5.7423,5.7573,5.7812,5.8278,5.8726,5.9099,5.9099,5.9578,5.9951,5.9279,5.9458,5.9681,5.9189,5.8756,5.8218,5.7543,5.7064,5.6449,5.5329,5.4593,5.4067,5.3845,5.233,5.1791,5.3588,5.3204,5.3341,5.4927,5.5508,5.579,5.579,5.5388,5.5299,5.576,5.5359,5.5299,5.576,5.6239,5.6492,5.6492,5.6898,5.6675,5.582,5.5666,5.6081,5.7013,5.693,5.767,5.9099,5.9099,5.9099,5.9099,5.9099,5.9099,5.9099,5.9099,5.9099,5.9099,5.9099,5.9099,5.9099,5.9099,5.9099,5.9219,7.4886,7.4886,7.4886,7.4886,7.4886,7.4287,7.2505,7.2608,7.2398,7.1068,7.0889,7.0405,6.914,6.8993,6.8444,6.7119,6.7014,6.7014,6.6999,6.6382,6.5404,6.4053,6.4009,6.3713,6.3108,6.3108,6.3108,6.3108,6.3108,6.3108,6.3093,6.2431,6.1745,6.1074,6.0391,5.9372,5.8145,5.8816,5.8726,5.8188,5.8816,5.8697,5.8175,5.8846,5.8697,5.8115,5.8115,5.8115,5.8008,5.7334,5.7573,5.8115,5.8115,5.8577,5.9129,5.9099,5.9099,5.9129,5.9099,5.9578,5.9951,5.9279,5.9129,5.9129,5.9129,5.9129,5.8906,5.8234,5.8085,5.7919,5.7214,5.6598,5.5983,5.5311,5.5222,5.5222,5.5222,5.5803,5.6432,5.7047,5.7094,5.7094,5.7094,5.7094,5.7094,5.7094,5.7094,5.7094,5.7094,5.7094,5.7094,5.7094,5.7094,5.7137,5.7137,5.6719,5.7036,5.8085,5.7877,5.8267,5.9099,5.9099,5.9099,5.9099,5.9099,5.9099,5.9099,5.9099,5.9099,5.9099,5.9099,5.9099,5.9099,5.9099,5.9129,5.9518,7.4796,7.4886,7.4886,7.4886,7.4497,7.3958,7.33,7.2611,7.1876,7.1009,7.053,6.9945,6.909,6.8583,6.7972,6.7074,6.7014,6.6803,6.6335,6.6116,6.5397,6.4052,6.3992,6.3713,6.3108,6.3108,6.3108,6.3108,6.3108,6.3108,6.3108,6.2901,6.2428,6.1775,6.1094,6.0322,5.9488,5.9219,5.8966,5.8816,5.9026,5.8979,5.8816,5.9026,5.8979,5.8786,5.8786,5.8786,5.8756,5.856,5.865,5.8786,5.8786,5.9249,5.9697,5.9249,5.9428,5.9711,5.9219,5.9578,6.004,5.9861,5.9801,5.9907,6.0402,5.9787,5.9039,5.8846,5.8427,5.7919,5.7214,5.6958,5.6778,5.6568,5.6539,5.6705,5.7171,5.741,5.759,5.7769,5.7799,5.762,5.7167,5.7094,5.7094,5.7094,5.7094,5.7094,5.7094,5.7543,5.7799,5.7799,5.8248,5.8501,5.8501,5.745,5.6933,5.6994,5.7521,5.8248,5.9099,5.9099,5.9099,5.9099,5.9099,5.9099,5.9099,5.9099,5.9099,5.9099,5.9099,5.9099,5.9099,5.9099,6.0296,6.2016,7.4467,7.4497,7.4497,7.4497,7.3941,7.3462,7.3359,7.2312,7.1278,7.062,7.0007,6.9349,6.869,6.8298,6.782,6.7074,6.6667,6.6456,6.6395,6.5898,6.5242,6.4412,6.4139,6.3713,6.3108,6.3108,6.3108,6.3108,6.3108,6.3108,6.3108,6.3108,6.274,6.2077,6.1693,6.0964,6.0071,5.9662,5.9338,5.9099,5.9099,5.8949,5.8726,5.9009,5.8949,5.8726,5.9009,5.9099,5.9099,5.9099,5.9099,5.9099,5.9099,5.9368,5.9681,5.9548,5.9787,6.007,5.9937,6.0206,6.0565,6.0805,6.0699,6.0595,6.1,6.0462,5.9817,5.9548,5.9189,5.871,5.8022,5.7902,5.7902,5.7902,5.7902,5.8022,5.8457,5.8517,5.8517,5.8517,5.8517,5.8338,5.7932,5.7902,5.7902,5.7902,5.7902,5.7902,5.7902,5.8278,5.8517,5.8517,5.8876,5.9099,5.9099,5.8291,5.7756,5.7519,5.8058,5.8761,5.9594,5.9249,5.9099,5.9099,5.9099,5.9099,5.9099,5.9099,5.9099,5.9099,5.9099,5.9099,5.9099,5.9099,6.0819,6.3108,7.4001,7.3851,7.3821,7.3821,7.3313,7.2877,7.2817,7.171,7.0679,7.0067,6.9363,6.8675,6.8107,6.8122,6.7867,6.7074,6.626,6.6155,6.6941,6.5734,6.4993,6.5004,6.4319,6.3668,6.3108,6.3108,6.3108,6.3108,6.3108,6.3108,6.3108,6.3108,6.2754,6.2181,6.2137,6.144,6.0251,6.0166,5.9741,5.9189,5.9129,5.8756,5.8367,5.8966,5.8816,5.8367,5.8966,5.9159,5.9099,5.9099,5.9129,5.9189,5.9189,5.9279,5.9488,6.004,6.022,6.04,6.094,6.115,6.1329,6.1942,6.1702,6.1269,6.1269,6.118,6.094,6.0386,6.019,5.9921,5.9308,5.9129,5.9099,5.9099,5.9099,5.9099,5.9099,5.9099,5.9099,5.9099,5.9099,5.9099,5.9099,5.9099,5.9129,5.9189,5.9189,5.9219,5.9279,5.9279,5.9265,5.9221,5.9219,5.9189,5.9088,5.9189,5.9189,5.9099,5.9105,5.9529,6.0252,5.9444,5.9249,5.9458,5.9458,5.9458,5.9428,5.9189,5.9099,5.9099,5.9099,5.9099,5.9099,5.9099,6.0819,6.3108,7.3821,7.3492,7.3133,7.3133,7.2997,7.2727,7.2206,7.1427,7.0679,7.0067,6.896,6.8211,6.8241,6.7657,6.7224,6.7014,6.6818,6.6808,6.6975,6.5727,6.4993,6.5004,6.3905,6.3211,6.3108,6.3108,6.3108,6.3108,6.3108,6.3108,6.3108,6.3108,6.3005,6.2857,6.2328,6.1942,6.1609,6.054,6.001,5.9831,5.9308,5.9338,5.9668,5.9831,5.9801,5.9681,5.9831,5.9548,5.9099,5.9099,5.9458,5.9891,5.9891,6.0595,6.1373,6.0984,6.1253,6.1583,6.121,6.1479,6.1912,6.2061,6.2405,6.2674,6.2674,6.1852,6.121,6.1583,6.0819,6.007,5.9921,5.9458,5.9099,5.9099,5.9099,5.9099,5.9099,5.9099,5.9099,5.9099,5.9099,5.9099,5.9099,5.9099,5.9308,5.9831,5.9891,6.0116,6.0641,6.0671,6.0512,6.012,6.0103,5.979,5.9114,5.979,5.9766,5.9099,5.9107,5.9197,5.9368,5.9189,6.0236,6.2225,6.2225,6.2225,6.2076,5.9967,5.9099,5.9099,5.9099,5.9099,5.9099,5.9099,6.0819,6.3108,7.309,7.2924,7.2787,7.2475,7.2176,7.1936,7.1893,7.0799,6.9871,6.9542,6.8361,6.7553,6.7673,6.7627,6.7463,6.7044,6.6235,6.5922,6.6362,6.4933,6.4216,6.4499,6.3609,6.3108,6.3108,6.3108,6.3108,6.3108,6.3108,6.3108,6.3108,6.3108,6.3108,6.3093,6.274,6.2398,6.2053,6.1345,6.0878,6.0535,6.0206,6.0086,6.013,6.0446,6.0176,5.9668,5.998,5.9668,5.9159,5.9458,5.9801,6.016,6.0475,6.1074,6.1613,6.1583,6.1822,6.2091,6.2061,6.2301,6.2584,6.2584,6.2824,6.3108,6.3108,6.2555,6.2061,6.2091,6.1523,6.0848,6.022,5.9801,5.9578,5.9578,5.9578,5.9697,6.0013,6.0043,6.0043,6.0043,6.0043,5.9937,5.9608,5.9578,5.9727,6.007,6.01,6.0386,6.106,6.109,6.0872,6.0408,6.0629,6.0204,5.9122,5.9539,5.9967,6.0346,5.9904,5.9833,6.0073,6.0715,6.1776,6.3108,6.3108,6.3108,6.2988,6.1597,6.0998,6.0998,6.0998,6.0998,6.0998,6.0998,6.1896,6.2928,7.2372,7.2325,7.2385,7.1833,7.1278,7.1098,7.1637,7.0171,6.9004,6.9004,6.7837,6.7014,6.7014,6.7627,6.7777,6.7074,6.5577,6.4979,6.5681,6.4171,6.3474,6.3996,6.3417,6.3108,6.3108,6.3108,6.3108,6.3108,6.3108,6.3108,6.3108,6.3108,6.3108,6.3108,6.3108,6.2777,6.2249,6.2164,6.1792,6.1239,6.1,6.0745,6.0489,6.0924,6.0462,5.9668,6.0116,5.9847,5.9338,5.9771,6.016,6.0519,6.094,6.1269,6.1553,6.2121,6.2271,6.2405,6.2944,6.3108,6.3108,6.3108,6.3108,6.3108,6.3108,6.3108,6.2944,6.2405,6.2195,6.1762,6.0639,6.034,6.028,6.028,6.028,6.0475,6.103,6.109,6.109,6.109,6.109,6.088,6.034,6.028,6.031,6.0429,6.0429,6.0715,6.1403,6.1419,6.1259,6.0866,6.1241,6.0906,5.9789,5.9775,6.044,6.1687,6.1114,6.0954,6.115,6.2495,6.2868,6.2435,6.2884,6.3108,6.3108,6.3108,6.3108,6.3108,6.3108,6.3108,6.3108,6.3108,6.2808,6.2165,7.2698,7.189,7.1128,7.1038,7.0949,7.0919,7.1009,6.9871,6.9004,6.9004,6.7837,6.7014,6.7014,6.7104,6.7134,6.7014,6.625,6.5817,6.5947,6.465,6.3904,6.3994,6.3417,6.3108,6.3108,6.3108,6.3108,6.3108,6.3108,6.3108,6.3108,6.3108,6.3108,6.3108,6.3108,6.3048,6.2942,6.2345,6.2061,6.1852,6.0685,6.0878,6.1762,6.1299,6.1343,6.1642,6.112,6.0535,5.9891,5.9398,6.0386,6.1732,6.1239,6.1912,6.2854,6.2944,6.2944,6.2974,6.3078,6.3108,6.3108,6.3108,6.3108,6.3108,6.3108,6.3108,6.3063,6.2974,6.2495,6.2032,6.1852,6.1373,6.097,6.097,6.097,6.1,6.109,6.109,6.109,6.109,6.109,6.106,6.097,6.097,6.1224,6.1792,6.1822,6.2135,6.2794,6.2824,6.2794,6.2735,6.2799,6.2748,6.2542,6.2542,6.2272,6.1717,6.2416,6.2151,6.115,6.2495,6.1836,5.9757,6.2076,6.3108,6.3108,6.3108,6.3108,6.3108,6.3108,6.3108,6.3108,6.3108,6.1627,5.9907,7.1876,7.1607,7.1338,7.0979,7.0889,7.0799,7.044,6.9602,6.9004,6.9004,6.7837,6.7134,6.7523,6.7224,6.6849,6.646,6.5817,6.5278,6.493,6.399,6.3482,6.3506,6.3255,6.3108,6.3108,6.3108,6.3108,6.3108,6.3108,6.3108,6.3108,6.3108,6.3108,6.3108,6.3108,6.3108,6.3078,6.2794,6.2674,6.2614,6.2016,6.1896,6.2121,6.2181,6.1942,6.1479,6.121,6.091,6.0685,6.0745,6.1373,6.2121,6.2181,6.2614,6.3108,6.3108,6.3108,6.3108,6.3108,6.3108,6.3108,6.3108,6.3108,6.3108,6.3108,6.3108,6.3108,6.3108,6.2854,6.2555,6.2181,6.1852,6.1672,6.1672,6.1672,6.1792,6.2151,6.2225,6.2225,6.2225,6.2225,6.2061,6.1688,6.1672,6.1792,6.2061,6.2091,6.2405,6.3063,6.3108,6.3108,6.3108,6.3089,6.31,6.31,6.31,6.2892,6.2475,6.2897,6.2405,6.115,6.2495,6.2435,6.1417,6.2584,6.3108,6.3108,6.3108,6.3108,6.3108,6.3108,6.3108,6.3108,6.3108,6.2345,6.1507]},{"header":{"parameterUnit":"m.s-1","parameterCategory":1,"la1":30.6,"la2":28.766,"lo1":-90.7593,"lo2":-88.6598,"dy":0.0162,"dx":0.0183,"nx":116,"ny":114,"refTime":"2023-10-08T06:00:00:Z","depth":0,"parameterNumber":3,"parameterNumberName":"V-component_of_WINDS"},"data":[0.0,0.0,0.0,0.0,0.0,0.0,0.0,0.0,0.0,0.0,0.0,0.0,0.0,0.0,0.0,0.0,0.0,0.0,0.0,0.0,0.0,0.0,0.0,0.0,0.0,0.0,0.0,0.0,0.0,0.0,0.0,0.0,0.0,0.0,0.0,0.0,0.0,0.0,0.0,0.0,0.0,0.0,0.0,0.0,0.0,0.0,0.0,0.0,0.0,0.0,0.0,0.0,0.0,0.0,0.0,0.0,0.0,0.0,0.0,0.0,0.0,0.0,0.0,0.0,0.0,0.0,0.0,0.0,0.0,0.0,0.0,0.0,0.0,0.0,0.0,0.0,0.0,0.0,0.0,0.0,0.0,0.0,0.0,0.0,0.0,0.0,0.0,0.0,0.0,0.0,0.0,0.0,0.0,0.0,0.0,0.0,0.0,0.0,0.0,0.0,0.0,0.0,0.0,0.0,0.0,0.0,0.0,0.0,0.0,0.0,0.0,0.0,0.0,0.0,0.0,0.0,0.0,0.0,0.0,0.0,0.0,0.0,0.0,0.0,0.0,0.0,0.0,0.0,0.0,0.0,0.0,0.0,0.0,0.0,0.0,0.0,0.0,0.0,0.0,0.0,0.0,0.0,0.0,0.0,0.0,0.0,0.0,0.0,0.0,0.0,0.0,0.0,0.0,0.0,0.0,0.0,0.0,0.0,0.0,0.0,0.0,0.0,0.0,0.0,0.0,0.0,0.0,0.0,0.0,0.0,0.0,0.0,0.0,0.0,0.0,0.0,0.0,0.0,0.0,0.0,0.0,0.0,0.0,0.0,0.0,0.0,0.0,0.0,0.0,0.0,0.0,0.0,0.0,0.0,0.0,0.0,0.0,0.0,0.0,0.0,0.0,0.0,0.0,0.0,0.0,0.0,0.0,0.0,0.0,0.0,0.0,0.0,0.0,0.0,0.0,0.0,0.0,0.0,0.0,0.0,0.0,0.0,0.0,0.0,0.0,0.0,0.0,0.0,0.0,0.0,0.0,0.0,0.0,0.0,0.0,0.0,0.0,0.0,0.0,0.0,0.0,0.0,0.0,0.0,0.0,0.0,0.0,0.0,0.0,0.0,0.0,0.0,0.0,0.0,0.0,0.0,0.0,0.0,0.0,0.0,0.0,0.0,0.0,0.0,0.0,0.0,0.0,0.0,0.0,0.0,0.0,0.0,0.0,0.0,0.0,0.0,0.0,0.0,0.0,0.0,0.0,0.0,0.0,0.0,0.0,0.0,0.0,0.0,0.0,0.0,0.0,0.0,0.0,0.0,0.0,0.0,0.0,0.0,0.0,0.0,0.0,0.0,0.0,0.0,0.0,0.0,0.0,0.0,0.0,0.0,0.0,0.0,0.0,0.0,0.0,0.0,0.0,0.0,0.0,0.0,0.0,0.0,0.0,0.0,0.0,0.0,0.0,0.0,0.0,0.0,0.0,0.0,0.0,0.0,0.0,0.0,0.0,0.0,0.0,0.0,0.0,0.0,0.0,0.0,0.0,0.0,0.0,0.0,0.0,0.0,0.0,0.0,0.0,0.0,0.0,0.0,0.0,0.0,0.0,0.0,0.0,0.0,0.0,0.0,0.0,0.0,0.0,0.0,0.0,0.0,0.0,0.0,0.0,0.0,0.0,0.0,0.0,0.0,0.0,0.0,0.0,0.0,0.0,0.0,0.0,0.0,0.0,0.0,0.0,0.0,0.0,0.0,0.0,0.0,0.0,0.0,0.0,0.0,0.0,0.0,0.0,0.0,0.0,0.0,0.0,0.0,0.0,0.0,0.0,0.0,0.0,0.0,0.0,0.0,0.0,0.0,0.0,0.0,0.0,0.0,0.0,0.0,0.0,0.0,0.0,0.0,0.0,0.0,0.0,0.0,0.0,0.0,0.0,0.0,0.0,0.0,0.0,0.0,0.0,0.0,0.0,0.0,0.0,0.0,0.0,0.0,0.0,0.0,0.0,0.0,0.0,0.0,0.0,0.0,0.0,0.0,0.0,0.0,0.0,0.0,0.0,0.0,0.0,0.0,0.0,0.0,0.0,0.0,0.0,0.0,0.0,0.0,0.0,0.0,0.0,0.0,0.0,0.0,0.0,0.0,0.0,0.0,0.0,0.0,0.0,0.0,0.0,0.0,0.0,0.0,0.0,0.0,0.0,0.0,0.0,0.0,0.0,0.0,0.0,0.0,0.0,0.0,0.0,0.0,0.0,0.0,0.0,0.0,0.0,0.0,0.0,0.0,0.0,0.0,0.0,0.0,0.0,0.0,0.0,0.0,0.0,0.0,0.0,0.0,0.0,0.0,0.0,0.0,0.0,0.0,0.0,0.0,0.0,0.0,0.0,0.0,0.0,0.0,0.0,0.0,0.0,0.0,0.0,0.0,0.0,0.0,0.0,0.0,0.0,0.0,0.0,0.0,0.0,0.0,0.0,0.0,0.0,0.0,0.0,0.0,0.0,0.0,0.0,0.0,0.0,0.0,0.0,0.0,0.0,0.0,0.0,0.0,0.0,0.0,0.0,0.0,0.0,0.0,0.0,0.0,0.0,0.0,0.0,0.0,0.0,0.0,0.0,0.0,0.0,0.0,0.0,0.0,0.0,0.0,0.0,0.0,0.0,0.0,0.0,0.0,0.0,0.0,0.0,0.0,0.0,0.0,0.0,0.0,0.0,0.0,0.0,0.0,0.0,0.0,0.0,0.0,0.0,0.0,0.0,0.0,0.0,0.0,0.0,0.0,0.0,0.0,0.0,0.0,0.0,0.0,0.0,0.0,0.0,0.0,0.0,0.0,0.0,0.0,0.0,0.0,0.0,0.0,0.0,0.0,0.0,0.0,0.0,0.0,0.0,0.0,0.0,0.0,0.0,0.0,0.0,0.0,0.0,0.0,0.0,0.0,0.0,0.0,0.0,0.0,0.0,0.0,0.0,0.0,0.0,0.0,0.0,0.0,0.0,0.0,0.0,0.0,0.0,0.0,0.0,0.0,0.0,0.0,0.0,0.0,0.0,0.0,0.0,0.0,0.0,0.0,0.0,0.0,0.0,0.0,0.0,0.0,0.0,0.0,0.0,0.0,0.0,0.0,0.0,0.0,0.0,0.0,0.0,0.0,0.0,0.0,0.0,0.0,0.0,0.0,0.0,0.0,0.0,0.0,0.0,0.0,0.0,0.0,0.0,0.0,0.0,0.0,0.0,0.0,0.0,0.0,0.0,0.0,0.0,0.0,0.0,0.0,0.0,0.0,0.0,0.0,0.0,0.0,0.0,0.0,0.0,0.0,0.0,0.0,0.0,0.0,0.0,0.0,0.0,0.0,0.0,0.0,0.0,0.0,0.0,0.0,0.0,0.0,0.0,0.0,0.0,0.0,0.0,0.0,0.0,0.0,0.0,0.0,0.0,0.0,0.0,0.0,0.0,0.0,0.0,0.0,0.0,0.0,0.0,0.0,0.0,0.0,0.0,0.0,0.0,0.0,0.0,0.0,0.0,0.0,0.0,0.0,0.0,0.0,0.0,0.0,0.0,0.0,0.0,0.0,0.0,0.0,0.0,0.0,0.0,0.0,0.0,0.0,0.0,0.0,0.0,0.0,0.0,0.0,0.0,0.0,0.0,0.0,0.0,0.0,0.0,0.0,0.0,0.0,0.0,0.0,0.0,0.0,0.0,0.0,0.0,0.0,0.0,0.0,0.0,0.0,0.0,0.0,0.0,0.0,0.0,0.0,0.0,0.0,0.0,0.0,0.0,0.0,0.0,0.0,0.0,0.0,0.0,0.0,0.0,0.0,0.0,0.0,0.0,0.0,0.0,0.0,0.0,0.0,0.0,0.0,0.0,0.0,0.0,0.0,0.0,0.0,0.0,0.0,0.0,0.0,0.0,0.0,0.0,0.0,0.0,0.0,0.0,0.0,0.0,0.0,0.0,0.0,0.0,0.0,0.0,0.0,0.0,0.0,0.0,0.0,0.0,0.0,0.0,0.0,0.0,0.0,0.0,0.0,0.0,0.0,0.0,0.0,0.0,0.0,0.0,0.0,0.0,0.0,0.0,0.0,0.0,0.0,0.0,0.0,0.0,0.0,0.0,0.0,0.0,0.0,0.0,0.0,0.0,0.0,0.0,0.0,0.0,0.0,0.0,0.0,0.0,0.0,0.0,0.0,0.0,0.0,0.0,0.0,0.0,0.0,0.0,0.0,0.0,0.0,0.0,0.0,0.0,0.0,0.0,0.0,0.0,0.0,0.0,0.0,0.0,0.0,0.0,0.0,0.0,0.0,0.0,0.0,0.0,0.0,0.0,0.0,0.0,0.0,0.0,0.0,0.0,0.0,0.0,0.0,0.0,0.0,0.0,0.0,0.0,0.0,0.0,0.0,0.0,0.0,0.0,0.0,0.0,0.0,0.0,0.0,0.0,0.0,0.0,0.0,0.0,0.0,0.0,0.0,0.0,0.0,0.0,0.0,0.0,0.0,0.0,0.0,0.0,0.0,0.0,0.0,0.0,0.0,0.0,0.0,0.0,0.0,0.0,0.0,0.0,0.0,0.0,0.0,0.0,0.0,0.0,0.0,0.0,0.0,0.0,0.0,0.0,0.0,0.0,0.0,0.0,0.0,0.0,0.0,0.0,0.0,0.0,0.0,0.0,0.0,0.0,0.0,0.0,0.0,0.0,0.0,0.0,0.0,0.0,0.0,0.0,0.0,0.0,0.0,0.0,0.0,0.0,0.0,0.0,0.0,0.0,0.0,0.0,0.0,0.0,0.0,0.0,0.0,0.0,0.0,0.0,0.0,0.0,0.0,0.0,0.0,0.0,0.0,0.0,0.0,0.0,0.0,0.0,0.0,0.0,0.0,0.0,0.0,0.0,0.0,0.0,0.0,0.0,0.0,0.0,0.0,0.0,0.0,0.0,0.0,0.0,0.0,0.0,0.0,0.0,0.0,0.0,0.0,0.0,0.0,0.0,0.0,0.0,0.0,0.0,0.0,0.0,0.0,0.0,0.0,0.0,0.0,0.0,0.0,0.0,0.0,0.0,0.0,0.0,0.0,0.0,0.0,0.0,0.0,0.0,0.0,0.0,0.0,0.0,0.0,0.0,0.0,0.0,0.0,0.0,0.0,0.0,0.0,0.0,0.0,0.0,0.0,0.0,0.0,0.0,0.0,0.0,0.0,0.0,0.0,0.0,0.0,0.0,0.0,0.0,0.0,0.0,0.0,0.0,0.0,0.0,0.0,0.0,0.0,0.0,0.0,0.0,0.0,0.0,0.0,0.0,0.0,0.0,0.0,0.0,0.0,0.0,0.0,0.0,0.0,0.0,0.0,0.0,0.0,0.0,0.0,0.0,0.0,0.0,0.0,0.0,0.0,0.0,0.0,0.0,0.0,0.0,0.0,0.0,0.0,0.0,0.0,0.0,0.0,0.0,0.0,0.0,0.0,0.0,0.0,0.0,0.0,0.0,0.0,0.0,0.0,0.0,0.0,0.0,0.0,0.0,0.0,0.0,0.0,0.0,0.0,0.0,0.0,0.0,0.0,0.0,0.0,0.0,0.0,0.0,0.0,0.0,0.0,0.0,0.0,0.0,0.0,0.0,0.0,0.0,0.0,0.0,0.0,0.0,0.0,0.0,0.0,0.0,0.0,0.0,0.0,0.0,0.0,0.0,0.0,0.0,0.0,0.0,0.0,0.0,0.0,0.0,0.0,0.0,0.0,0.0,0.0,0.0,0.0,0.0,0.0,0.0,0.0,0.0,0.0,0.0,0.0,0.0,0.0,0.0,0.0,0.0,0.0,0.0,0.0,0.0,0.0,0.0,0.0,0.0,0.0,0.0,0.0,0.0,0.0,0.0,0.0,0.0,0.0,0.0,0.0,0.0,0.0,0.0,0.0,0.0,0.0,0.0,0.0,0.0,0.0,0.0,0.0,0.0,0.0,0.0,0.0,0.0,0.0,0.0,0.0,0.0,0.0,0.0,0.0,0.0,0.0,0.0,0.0,0.0,0.0,0.0,0.0,0.0,0.0,0.0,0.0,0.0,0.0,0.0,0.0,0.0,0.0,0.0,0.0,0.0,0.0,0.0,0.0,0.0,0.0,1.8808,1.6964,0.0,0.0,0.0,0.0,0.0,0.0,0.0,0.0,0.0,0.0,0.0,0.0,0.0,0.0,0.0,0.0,0.0,0.0,0.0,0.0,0.0,0.0,0.0,0.0,0.0,0.0,0.0,0.0,0.0,0.0,0.0,0.0,0.0,0.0,0.0,0.0,0.0,0.0,2.0771,2.1144,2.1641,2.2107,2.219,2.1905,0.0,0.0,0.0,0.0,0.0,0.0,0.0,0.0,0.0,0.0,0.0,0.0,0.0,0.0,0.0,0.0,0.0,0.0,0.0,0.0,0.0,0.0,0.0,0.0,0.0,0.0,0.0,0.0,0.0,0.0,0.0,0.0,0.0,0.0,0.0,0.0,0.0,0.0,0.0,0.0,0.0,0.0,0.0,0.0,0.0,0.0,0.0,0.0,0.0,0.0,0.0,0.0,0.0,0.0,0.0,0.0,0.0,0.0,0.0,0.0,0.0,0.0,0.0,0.0,0.0,0.0,0.0,0.0,0.0,0.0,2.0432,1.9346,0.0,0.0,0.0,0.0,0.0,0.0,0.0,0.0,0.0,0.0,0.0,0.0,0.0,0.0,0.0,0.0,0.0,0.0,0.0,0.0,0.0,0.0,0.0,0.0,1.8801,1.8723,1.9219,1.953,0.0,0.0,0.0,0.0,0.0,0.0,0.0,2.1103,2.1369,2.1451,2.179,2.2703,2.4206,2.4707,2.4315,2.317,2.3175,0.0,0.0,0.0,0.0,0.0,0.0,0.0,0.0,0.0,0.0,0.0,0.0,0.0,0.0,0.0,0.0,0.0,0.0,0.0,0.0,0.0,0.0,0.0,0.0,0.0,0.0,0.0,0.0,0.0,0.0,0.0,0.0,0.0,0.0,0.0,0.0,0.0,0.0,0.0,0.0,0.0,0.0,0.0,0.0,0.0,0.0,0.0,0.0,0.0,0.0,0.0,0.0,0.0,0.0,0.0,0.0,0.0,0.0,0.0,0.0,0.0,0.0,0.0,2.5679,2.5367,2.6993,2.555,2.473,2.4399,2.3312,2.3281,2.4067,2.4906,0.0,0.0,0.0,0.0,0.0,0.0,0.0,0.0,0.0,0.0,0.0,0.0,0.0,0.0,0.0,0.0,0.0,0.0,0.0,0.0,0.0,1.9025,1.9581,1.9247,1.997,2.0419,0.0,0.0,0.0,0.0,0.0,0.0,2.1103,2.1582,2.2029,2.2496,2.4081,2.5587,2.6993,2.7625,2.8011,2.8086,2.6615,2.6474,2.7268,0.0,0.0,0.0,0.0,0.0,0.0,0.0,0.0,0.0,0.0,0.0,0.0,0.0,0.0,0.0,0.0,0.0,0.0,0.0,0.0,0.0,0.0,0.0,0.0,0.0,0.0,0.0,0.0,0.0,0.0,0.0,0.0,0.0,0.0,0.0,0.0,0.0,0.0,0.0,0.0,0.0,1.9757,2.2741,0.0,0.0,0.0,0.0,0.0,0.0,0.0,0.0,0.0,0.0,0.0,0.0,0.0,2.3161,2.5335,2.5355,2.6342,2.8301,2.9375,3.0747,3.2387,3.2153,3.1255,2.9941,3.1191,0.0,2.7402,2.4606,0.0,0.0,0.0,0.0,0.0,0.0,0.0,0.0,0.0,0.0,0.0,0.0,0.0,0.0,0.0,0.0,0.0,0.0,0.0,0.0,0.0,1.9658,2.0224,2.0048,2.128,2.1739,2.0996,2.1201,0.0,0.0,0.0,2.0918,2.1572,2.2382,2.3802,2.5841,2.7506,2.8994,3.0268,3.0807,3.1487,3.2206,3.1441,2.9986,2.8046,2.7372,0.0,0.0,0.0,0.0,0.0,0.0,0.0,0.0,0.0,0.0,0.0,0.0,0.0,0.0,0.0,0.0,0.0,0.0,0.0,0.0,0.0,0.0,0.0,0.0,0.0,0.0,0.0,0.0,0.0,0.0,0.0,0.0,0.0,0.0,0.0,0.0,0.0,0.0,0.0,1.9126,2.0381,2.2819,2.3101,2.3101,0.0,0.0,0.0,0.0,0.0,0.0,0.0,0.0,0.0,2.5964,2.6979,2.8307,3.0011,3.003,3.0903,3.2641,3.4375,3.5622,3.6309,3.6309,3.5918,3.527,3.5996,3.4922,3.227,2.7838,2.5308,2.4262,0.0,0.0,0.0,0.0,2.0241,2.1176,0.0,0.0,0.0,0.0,0.0,0.0,0.0,0.0,0.0,0.0,0.0,0.0,1.9626,2.0748,2.1606,2.2,2.3308,2.3705,2.2696,2.2713,0.0,0.0,2.1243,2.127,2.2042,2.3784,2.6126,2.9086,3.1099,3.2544,3.3444,3.4213,3.4931,3.5531,3.5531,3.3495,2.996,2.9382,2.8116,2.6431,0.0,0.0,0.0,0.0,0.0,0.0,0.0,0.0,0.0,0.0,0.0,0.0,0.0,0.0,0.0,0.0,0.0,0.0,0.0,0.0,0.0,0.0,0.0,0.0,0.0,0.0,0.0,0.0,0.0,0.0,0.0,0.0,0.0,0.0,0.0,0.0,0.0,2.0428,2.219,2.4787,2.43,2.3588,0.0,0.0,0.0,0.0,0.0,0.0,2.4379,2.5269,2.7123,3.0176,3.1953,3.3457,3.471,3.5159,3.6055,3.7344,3.8651,3.9275,3.9331,4.1338,4.2255,4.2255,4.2255,4.0132,3.6309,3.1562,2.7819,2.5171,2.603,2.6362,2.6206,2.4918,2.4711,2.5289,0.0,0.0,0.0,0.0,0.0,0.0,0.0,0.0,0.0,0.0,0.0,1.9178,2.0667,2.2565,2.4308,2.5783,2.6358,2.6601,2.6521,2.4597,2.3423,2.3381,2.2391,2.2031,2.247,2.6023,2.8977,3.1229,3.4507,3.6126,3.6225,3.7853,3.8329,3.7827,3.7827,3.6838,3.4983,3.2896,3.164,3.0892,2.8779,0.0,0.0,0.0,0.0,0.0,0.0,0.0,0.0,0.0,0.0,0.0,0.0,0.0,0.0,0.0,0.0,0.0,0.0,0.0,0.0,0.0,0.0,0.0,0.0,0.0,0.0,0.0,0.0,0.0,0.0,0.0,0.0,0.0,0.0,0.0,0.0,0.0,0.0,2.9904,2.7588,0.0,0.0,0.0,0.0,2.085,2.2196,2.4547,2.7851,3.1118,3.3718,3.555,3.7285,3.8241,3.8338,3.998,4.0839,4.0937,4.1015,4.1054,4.1325,4.878,5.2178,5.2178,5.2178,4.6961,3.8182,3.4629,3.2094,3.0351,2.8769,2.8164,2.8144,2.8066,2.9082,3.0508,0.0,0.0,0.0,0.0,0.0,0.0,0.0,0.0,1.7919,1.8739,2.0125,2.1755,2.3588,2.5855,2.7768,2.9041,2.9047,2.8788,2.8306,2.5793,2.4377,2.446,2.2533,2.2949,2.6163,2.9574,3.275,3.5651,3.7929,3.922,3.9571,4.0148,4.0337,4.0123,4.0123,3.9395,3.8028,3.5431,3.3191,3.1282,2.9796,2.7633,0.0,0.0,0.0,0.0,0.0,0.0,0.0,0.0,0.0,0.0,0.0,0.0,0.0,0.0,0.0,0.0,0.0,0.0,0.0,0.0,0.0,0.0,0.0,0.0,0.0,0.0,0.0,0.0,0.0,0.0,0.0,0.0,0.0,0.0,0.0,0.0,0.0,3.2806,3.0792,0.0,2.5043,2.4274,2.4851,2.7063,2.8775,3.0752,3.3129,3.5469,3.7557,3.9296,3.9941,4.0273,4.0273,4.5889,4.8745,4.8745,4.8745,4.8745,4.8817,5.1625,5.2895,5.2895,5.2895,5.0951,4.7598,4.4918,4.003,3.4105,3.3516,3.3262,3.3109,3.2012,3.268,3.4007,0.0,0.0,0.0,0.0,0.0,0.0,0.0,0.0,1.7983,1.9631,2.1525,2.3754,2.6435,2.9023,3.1131,3.2558,3.2101,3.1433,3.0755,2.7517,2.575,2.6036,2.4596,2.5571,2.9318,3.2567,3.5722,3.8831,4.0526,4.1517,4.1893,4.2055,4.2055,4.1868,4.1868,4.1379,4.0413,3.8341,3.5782,3.2972,3.149,2.9812,2.7855,0.0,0.0,0.0,0.0,0.0,0.0,0.0,0.0,0.0,0.0,0.0,0.0,0.0,0.0,0.0,0.0,0.0,0.0,0.0,0.0,0.0,0.0,0.0,0.0,0.0,0.0,0.0,0.0,0.0,0.0,0.0,0.0,0.0,0.0,2.9517,3.2078,3.5597,3.468,3.2299,2.865,2.6207,2.7253,3.3062,3.5078,3.6543,3.7695,4.1352,4.3946,4.5105,4.5148,4.5148,4.5148,5.0286,5.2895,5.2895,5.2895,5.2895,5.2895,5.2895,5.2895,5.2895,5.2895,5.2895,5.2787,5.1306,4.7151,4.1396,3.815,3.6875,3.6738,3.5586,3.5898,3.6641,0.0,0.0,0.0,0.0,0.0,0.0,0.0,1.7424,1.8257,2.0602,2.2462,2.5052,2.8991,3.1898,3.4375,3.635,3.5406,3.4513,3.3972,2.9777,2.7561,2.8075,2.8682,2.9887,3.1798,3.4969,3.7952,4.0733,4.2398,4.3179,4.3204,4.3688,4.3649,4.3134,4.3078,4.2788,4.2249,4.1642,3.9546,3.6421,3.4159,3.3175,3.2819,0.0,0.0,0.0,0.0,0.0,0.0,0.0,0.0,0.0,0.0,0.0,0.0,0.0,0.0,0.0,0.0,0.0,0.0,0.0,0.0,0.0,0.0,0.0,0.0,0.0,0.0,0.0,0.0,0.0,0.0,0.0,0.0,0.0,3.1692,3.4204,3.6487,3.8495,3.9108,3.7832,3.3944,2.8949,2.9576,3.8402,4.0612,4.156,4.156,4.8781,5.2895,5.2895,5.2895,5.292,5.2995,5.292,5.292,5.2995,5.2995,5.2995,5.2995,5.292,5.2895,5.2895,5.2895,5.2895,5.2895,5.2895,5.2895,5.1956,4.2411,3.8671,3.8671,3.8671,3.865,3.8358,0.0,0.0,0.0,0.0,0.0,0.0,0.0,1.7837,1.8698,2.1083,2.474,2.8397,3.1837,3.5312,3.7929,3.927,3.691,3.5266,3.5068,3.0291,2.7676,2.8213,2.9835,3.2783,3.7163,3.9692,4.2677,4.6173,4.7027,4.742,4.742,4.688,4.6334,4.5799,4.5127,4.4482,4.3915,4.3349,4.2585,4.143,3.76,3.5098,3.3502,0.0,0.0,0.0,0.0,0.0,0.0,0.0,0.0,0.0,0.0,0.0,0.0,0.0,0.0,0.0,0.0,0.0,0.0,0.0,0.0,0.0,0.0,0.0,0.0,0.0,0.0,0.0,0.0,0.0,0.0,0.0,3.1942,3.2885,3.3634,3.6814,3.9792,4.1704,4.1031,3.9535,3.7378,3.361,3.619,4.8067,4.9405,4.9677,4.9677,5.1729,5.2895,5.2895,5.2895,5.3665,5.5272,5.3715,5.3715,5.5297,5.5297,5.5297,5.5247,5.364,5.2895,5.2895,5.2895,5.2895,5.2895,5.2895,5.2895,5.2062,4.3737,4.0507,4.0507,4.0507,3.9705,3.8514,0.0,0.0,0.0,0.0,0.0,0.0,0.0,1.8099,1.9588,2.2228,2.6636,3.0739,3.387,3.7232,3.9383,3.9798,3.7199,3.5266,3.4527,3.1339,2.9729,3.0305,3.3633,3.7255,4.1082,4.3975,4.6714,4.9408,4.9963,5.0393,5.0588,5.0055,4.9619,4.928,4.8055,4.7181,4.6597,4.559,4.5056,4.4593,4.1795,3.9472,3.7498,3.5697,3.4054,3.2556,3.1309,2.9997,2.8651,2.7335,0.0,0.0,0.0,0.0,0.0,0.0,0.0,0.0,0.0,0.0,0.0,0.0,0.0,0.0,0.0,0.0,0.0,0.0,0.0,0.0,0.0,0.0,0.0,0.0,3.652,3.8957,4.0378,4.2154,4.3784,4.5007,4.5594,4.4254,4.0092,4.0827,4.5108,5.3653,5.4293,5.4293,5.4293,5.4293,5.4293,5.4293,5.4293,5.4895,5.6175,5.492,5.492,5.62,5.62,5.62,5.615,5.487,5.4293,5.4243,5.3296,5.2895,5.2895,5.2895,5.2895,5.2456,0.0,0.0,0.0,0.0,4.5464,4.4454,0.0,0.0,0.0,0.0,0.0,0.0,0.0,1.8393,2.0694,2.3605,2.8163,3.2228,3.5088,3.7927,3.9409,3.8944,3.6772,3.4753,3.3215,3.2652,3.2894,3.4052,3.8851,4.2496,4.4637,4.8091,5.0438,5.161,5.2337,5.2925,5.3302,5.3271,5.3228,5.3101,5.1571,5.0515,4.9813,4.8313,4.7323,4.6728,4.6175,4.4859,4.29,4.0401,3.8991,3.8119,3.6069,3.3681,3.1361,3.0663,0.0,0.0,0.0,0.0,0.0,0.0,0.0,0.0,0.0,0.0,0.0,0.0,0.0,0.0,0.0,0.0,0.0,0.0,0.0,0.0,0.0,0.0,0.0,0.0,4.0808,4.5878,4.9409,4.9078,4.8543,4.8721,5.1331,5.0371,4.3392,4.9336,5.4468,5.6426,5.6552,5.6451,5.62,5.6445,0.0,0.0,0.0,5.6451,5.62,5.647,5.6552,5.6552,5.6552,5.6552,5.6552,5.6552,5.6445,5.6075,5.4117,5.3138,5.2895,5.2895,5.2895,5.2895,5.2895,5.2895,5.2895,5.2895,5.2895,5.2569,0.0,0.0,0.0,0.0,0.0,0.0,0.0,1.9321,2.15,2.4191,2.8883,3.271,3.463,3.7362,3.9019,3.8894,3.6433,3.4363,3.319,3.3406,3.561,4.0162,4.2613,4.6214,5.1314,5.3097,5.4594,5.5886,5.711,5.7481,5.7043,5.6833,5.6494,5.6036,5.4983,5.3697,5.2266,5.1467,5.0554,4.9549,4.9012,4.7004,4.4177,4.3212,4.1945,4.0544,3.9686,3.8256,3.6567,3.4931,3.357,3.2266,3.0758,2.8516,0.0,0.0,0.0,0.0,0.0,0.0,0.0,0.0,0.0,0.0,0.0,0.0,0.0,0.0,0.0,0.0,0.0,0.0,0.0,3.7989,4.4219,4.9583,5.4198,5.5,5.4853,5.4034,5.4145,5.368,5.2157,5.5763,5.8403,5.883,5.8855,5.8077,5.6319,5.7901,5.8855,5.8855,5.8855,5.8001,5.62,5.7976,5.8855,5.8855,5.8855,0.0,5.8855,5.8855,5.7901,5.6194,5.5749,5.4544,5.2895,5.2895,5.2895,5.2895,5.2895,5.2895,5.2895,5.2895,5.2895,5.2569,0.0,0.0,0.0,0.0,0.0,0.0,0.0,1.9392,2.2165,2.4055,2.8436,3.2028,3.3721,3.5629,3.6696,3.642,3.46,3.3897,3.494,3.6605,4.0011,4.5512,4.8094,5.1185,5.5025,5.6739,5.7939,5.8604,5.9608,5.9923,5.9597,5.9442,5.925,5.8942,5.7654,5.6631,5.5743,5.3768,5.2622,5.1994,5.0896,4.9439,4.7857,4.7029,4.5824,4.4514,4.4001,4.2463,4.0463,3.9247,3.7462,3.5494,3.4282,3.199,2.958,0.0,0.0,0.0,0.0,0.0,0.0,0.0,0.0,0.0,0.0,0.0,0.0,0.0,0.0,2.3926,2.3358,0.0,2.8773,4.0107,4.8829,5.4887,5.6767,5.728,5.7029,5.5942,5.5541,5.5835,5.694,5.8548,5.9483,5.9483,5.9483,5.9006,5.7901,5.8905,5.9483,5.9483,5.9483,5.8956,5.7851,5.8956,5.9483,5.9483,5.9483,5.9483,5.9483,5.9483,5.8303,5.62,5.62,5.5573,5.4468,5.3364,5.2895,5.2895,5.2895,5.2895,5.2895,5.2895,5.2895,5.2569,0.0,0.0,0.0,0.0,0.0,0.0,0.0,1.9303,2.2659,2.3877,2.7893,3.115,3.2612,3.3534,3.3811,3.3151,3.306,3.434,3.7379,4.0518,4.4728,5.0269,5.3395,5.5853,5.7663,5.9547,6.0429,6.028,6.1104,6.1419,6.1299,6.1433,6.1493,6.1437,6.0119,5.9451,5.9066,5.6416,5.5177,5.4895,5.3529,5.2893,5.2714,5.1781,5.0155,4.8294,4.7666,4.5673,4.3251,4.2813,4.0578,3.7968,3.7738,3.567,3.3123,3.2046,3.0349,0.0,0.0,0.0,0.0,0.0,0.0,0.0,0.0,2.6085,2.5939,2.7393,2.639,2.6188,2.9194,2.9636,3.3289,4.4751,5.4212,5.9697,5.8391,5.8202,5.7876,5.6953,5.6828,5.7549,5.9332,5.9483,5.9684,6.0111,6.0136,5.996,5.9508,5.9483,5.9483,5.9483,5.9483,5.9483,5.9483,5.9483,5.9483,5.9483,5.9483,5.9483,5.9483,5.9483,5.8529,5.6821,5.6394,5.62,5.6025,5.3816,5.2895,5.2895,5.2895,5.2895,5.2895,5.2895,5.2895,5.2661,0.0,0.0,0.0,0.0,0.0,0.0,0.0,0.0,2.2781,2.4401,2.8111,3.0849,3.1522,3.1709,3.1362,3.0342,3.3849,3.7228,3.9826,4.3785,4.8553,5.4298,5.6442,5.8472,6.0569,6.1438,6.1583,6.1,6.2255,6.2584,6.2002,6.2614,6.2884,6.2884,6.2695,6.2072,6.1157,6.0805,6.0125,5.9289,5.9094,5.8678,5.812,5.7999,5.4696,4.9975,4.8978,4.6803,4.4403,4.4353,4.2788,4.1002,4.1968,3.9994,3.7137,3.6079,3.3186,2.992,2.8001,2.6393,2.5493,2.6543,2.6862,2.7897,0.0,3.1843,3.2495,3.6806,3.4807,3.3759,3.8699,4.6676,5.3637,5.7142,6.038,6.1692,5.9612,5.9307,5.9257,5.9131,5.9131,5.9232,5.9483,5.9483,6.0311,6.2275,6.2425,6.1572,5.9608,5.9483,5.9483,5.9483,5.9483,5.9483,5.9483,5.9483,5.9483,5.9483,5.9483,5.9483,5.9483,5.9483,5.9357,5.9006,5.7054,5.62,5.6025,5.3816,5.2895,5.2895,5.2895,5.2895,5.2895,5.2895,5.2895,5.2845,0.0,0.0,0.0,0.0,0.0,0.0,0.0,0.0,0.0,2.3917,2.6044,2.7886,2.9326,2.9484,2.9412,2.9273,3.3472,3.825,4.3279,4.7279,5.2197,5.8366,5.9724,6.0956,6.2241,6.2555,6.2734,6.281,6.3348,6.3677,6.3782,6.4052,6.4216,6.4216,6.4216,6.4174,6.4045,6.3065,6.2644,6.2515,6.1098,6.0145,5.9504,5.872,5.5291,5.083,5.0073,4.7556,0.0,4.389,4.285,4.192,4.2386,4.0897,3.8703,3.727,3.4498,3.1437,2.9371,2.8264,2.7976,2.9004,3.0195,3.166,3.3691,3.4297,3.5754,4.0473,4.0276,4.1848,5.0298,5.5292,5.8429,5.9344,6.1368,6.2033,5.9812,6.0613,6.1421,6.1421,6.1421,6.1421,6.1421,6.1421,6.1798,6.2752,6.2802,6.24,6.1472,6.1421,6.1421,6.1421,6.1421,6.1421,6.1421,6.0136,6.0136,6.1421,6.1421,6.0763,5.9483,5.9483,5.9483,5.9382,5.7154,5.62,5.6125,5.5196,5.482,5.4694,5.3414,5.2895,5.2895,5.2895,5.2895,5.2895,0.0,0.0,0.0,0.0,0.0,0.0,0.0,0.0,0.0,0.0,2.4268,2.556,2.7042,2.7743,2.8145,2.8221,3.2838,3.8437,4.479,4.9286,5.4434,6.0554,6.1972,6.2854,6.3333,6.3722,6.4096,6.4545,6.4725,6.5084,6.5547,6.5547,6.5547,6.5547,6.5547,6.6026,6.6743,6.5539,6.5402,6.586,6.3928,6.2442,6.1203,5.9508,5.5715,5.1147,5.0117,4.695,4.3098,4.2171,4.1406,4.0892,4.1356,4.0577,3.9181,3.7705,3.482,3.1745,3.0174,2.9843,3.0268,3.1601,3.4025,3.6316,3.7379,3.8772,4.0962,4.5019,4.5607,4.8085,5.6955,5.9592,6.0413,6.042,6.1748,6.225,6.0638,6.1798,6.2576,6.1948,6.0819,6.0317,6.0919,6.2099,6.2802,6.2802,6.2802,6.2802,6.2802,6.2802,6.2802,6.2802,6.2802,6.2802,6.2802,6.1195,6.1195,6.2802,6.2174,6.1045,5.9483,5.9483,5.9483,5.9408,5.7801,5.7104,5.7072,5.6451,5.5849,5.5121,5.354,5.2895,5.2895,5.2895,5.2895,5.2895,0.0,0.0,0.0,0.0,0.0,0.0,0.0,0.0,0.0,0.0,0.0,0.0,0.0,2.6808,2.7693,2.6654,3.2113,3.7851,4.3116,4.8946,5.4556,5.9891,6.257,6.3947,6.3977,6.5263,6.5906,6.5936,6.658,6.6924,6.6954,6.6954,6.6954,6.6954,6.6954,6.7657,6.8914,6.8867,6.921,6.9778,6.9042,6.7174,6.4561,6.1994,5.6936,5.0906,4.8677,4.4422,3.976,3.922,3.8291,3.7637,3.9258,3.9383,3.874,3.7775,3.4118,3.0328,3.0141,3.0454,3.146,3.3965,3.7809,4.1696,4.4362,4.7304,5.0163,5.2596,5.1493,5.1375,5.5516,5.9824,6.2701,6.2704,6.2777,6.2777,6.2727,6.2777,6.1999,5.9859,5.5799,5.4042,5.6175,6.0292,6.2802,6.2802,6.2802,6.2802,6.2802,6.2802,6.2802,6.2802,6.2802,6.2802,6.2802,6.2752,6.2752,6.2756,6.0638,5.9558,5.9483,5.9483,5.9483,5.9483,5.9433,5.9382,5.9232,5.7079,5.4945,5.2995,5.2937,5.2895,5.2895,5.2895,5.2895,5.2895,0.0,0.0,0.0,0.0,0.0,0.0,0.0,0.0,0.0,0.0,0.0,0.0,0.0,0.0,0.0,0.0,3.2062,3.7401,4.1608,4.7949,5.3324,5.733,6.1297,6.3602,6.3977,6.5308,6.643,6.7313,6.7553,6.7882,6.8315,6.8315,6.8555,6.899,6.899,6.9708,7.0905,7.044,7.038,7.044,6.8465,6.6595,6.4501,5.9683,5.3936,4.8007,0.0,4.0796,3.7851,3.6558,3.5844,3.5693,3.6635,3.6296,3.5224,3.3377,3.2717,3.2507,3.2334,3.5995,4.0073,4.1014,4.4417,4.796,4.9745,5.1199,5.2645,5.4381,5.3908,5.4217,5.7753,6.0815,6.2805,6.2788,6.2802,6.2802,6.2802,6.1547,5.9238,5.5548,5.3816,5.2611,5.19,5.7148,6.1221,6.2701,6.2802,6.2802,6.2802,6.2802,6.2802,6.2802,6.2802,6.2802,6.2802,6.2802,6.2802,6.2756,6.0563,5.9483,5.9483,5.9483,5.9483,5.9483,5.9483,5.8679,5.7248,5.652,5.5749,5.4945,5.3472,5.2895,5.2895,5.2895,5.2895,5.2895,0.0,0.0,0.0,0.0,0.0,0.0,0.0,0.0,0.0,0.0,0.0,0.0,0.0,0.0,0.0,0.0,0.0,3.5845,3.9583,4.4982,4.9744,5.3558,5.6778,5.889,5.9757,6.0625,6.1942,6.3766,6.4485,6.5637,6.7208,6.7717,6.8286,6.893,6.893,6.9528,7.0456,6.9782,6.9093,6.8196,6.5607,6.2921,5.9996,5.4794,4.9307,0.0,3.9901,3.7148,3.5214,3.3947,3.366,3.3875,3.4215,3.4176,3.3823,3.2828,3.3972,3.5844,3.7186,4.1505,4.5924,4.715,5.0251,5.332,5.452,5.5466,5.6496,5.7773,5.7469,5.6769,5.6103,5.6477,5.743,5.9012,6.1251,6.2802,6.2802,6.0914,5.8453,5.5598,5.5247,5.4067,5.1055,5.4637,5.8077,6.0292,6.1923,6.2802,6.2802,6.2802,6.2802,6.2802,6.2802,6.2802,6.2802,6.2802,6.2802,6.2802,6.1346,6.0261,5.9483,5.9483,5.9483,5.9483,5.9483,5.8704,5.7323,5.6527,5.5723,5.487,5.3464,5.2895,5.2895,5.2895,5.2895,5.2895,0.0,0.0,0.0,0.0,0.0,0.0,0.0,0.0,0.0,0.0,0.0,0.0,0.0,0.0,0.0,0.0,0.0,0.0,3.7031,4.0461,4.4317,4.8749,4.9722,5.0757,5.2067,5.2157,5.3456,5.6042,5.7902,6.0386,6.3468,6.4784,6.5742,6.6416,6.6445,6.6805,6.7389,6.6715,6.5338,6.3318,6.0673,5.6742,5.2006,4.7954,4.357,3.9153,3.6007,3.369,3.2054,3.1587,3.1853,3.2369,3.2405,3.328,3.4597,3.6063,3.7828,4.0182,4.413,4.6843,4.9231,5.2187,5.5224,5.7723,5.8618,5.9983,6.1411,6.2476,6.1743,5.8447,5.0544,4.738,4.734,5.1557,5.7907,6.228,6.228,6.0668,5.9458,5.9332,5.9433,5.7851,5.3665,5.3188,5.4092,5.6351,6.0442,6.2802,6.2802,6.2802,6.2802,6.2802,6.2802,6.2802,6.2802,6.2802,6.2802,6.2802,6.2802,6.1647,5.9483,5.9483,5.9483,5.9483,5.9483,5.9483,5.9332,5.7104,5.497,5.3046,5.2945,5.2895,5.2895,5.2895,5.2895,5.2895,0.0,0.0,0.0,0.0,0.0,0.0,0.0,0.0,0.0,0.0,0.0,0.0,0.0,0.0,0.0,0.0,0.0,0.0,3.3927,3.8814,4.2401,4.4088,4.76,4.9912,5.0697,5.1696,5.2797,5.3977,5.4473,5.5132,5.597,5.6825,5.7573,5.8245,5.8723,5.9292,5.9831,5.9216,5.8364,5.7178,5.4211,5.1954,4.9795,4.4586,4.1094,3.8523,3.4895,3.2467,3.11,3.1777,3.3172,3.4742,3.5191,3.5547,3.6429,3.9478,4.2568,4.5458,4.7574,5.2546,5.7135,5.7146,5.9273,6.1225,6.0684,5.9938,5.9784,6.1291,5.8774,5.3399,4.3955,4.1756,4.1756,4.2886,5.0026,5.5404,5.5404,5.7775,5.888,5.7248,5.8504,5.9056,5.7926,5.7097,5.7857,6.0894,6.2174,6.2802,6.2802,6.2802,6.2802,6.2802,6.2802,6.2802,6.2802,6.2802,6.2802,6.2802,6.2802,6.1647,5.9483,5.9483,5.9483,5.9483,5.9483,5.9483,5.9332,5.7104,5.5874,5.5196,5.3522,5.2895,5.2895,5.2895,5.2895,5.2895,0.0,0.0,0.0,0.0,0.0,0.0,0.0,0.0,0.0,0.0,0.0,0.0,0.0,0.0,0.0,0.0,0.0,0.0,0.0,3.6118,3.8782,4.0167,4.2152,4.3658,4.4566,4.4785,4.5633,4.713,4.7739,4.8757,5.0182,5.1169,5.1959,5.263,5.2989,5.3348,5.3648,5.3318,5.2168,0.0,0.0,4.5476,4.3125,3.939,3.6948,3.5279,3.3128,3.2505,3.3036,3.4865,3.6145,3.73,3.9082,4.0315,4.1777,4.5294,4.8592,5.1579,5.3853,5.8065,6.1636,6.1042,6.1841,6.2124,5.9583,5.7901,5.647,5.4963,5.3072,4.8903,3.9924,3.824,3.9836,4.4704,5.2109,5.7236,5.7236,5.9388,6.0493,5.9238,5.989,6.0593,6.0939,6.0392,6.104,6.3375,6.3078,6.2802,6.2802,6.2802,6.2802,6.2802,6.2802,6.2802,6.2802,6.2802,6.2802,6.2802,6.2802,6.2149,6.0939,5.9935,5.9483,5.9483,5.9483,5.9483,5.9332,5.7104,5.5623,5.4619,5.3372,5.2895,5.2895,5.2895,5.2895,5.2895,0.0,0.0,0.0,0.0,0.0,0.0,0.0,0.0,0.0,0.0,0.0,0.0,0.0,0.0,0.0,0.0,0.0,0.0,0.0,0.0,3.4934,3.7063,3.608,3.602,3.7127,3.608,3.6618,3.8883,4.0047,4.2073,4.4895,4.6142,4.7031,4.7611,4.7671,4.772,4.772,4.7649,4.6082,4.3502,4.1689,3.8779,3.5397,0.0,3.2683,3.1396,3.1396,3.2932,3.5494,3.8969,4.0062,4.0564,4.3865,4.6361,4.8746,5.2084,5.4888,5.7549,6.0683,6.2692,6.3877,6.3747,6.3149,6.1577,5.7663,5.5621,5.2869,4.7066,4.636,4.4684,3.7686,3.6167,3.9773,5.1456,5.866,6.2802,6.2802,6.2802,6.2802,6.2802,6.225,6.2174,6.2952,6.2978,6.3379,6.4475,6.3601,6.2952,6.2827,6.2802,6.2802,6.2802,6.2802,6.2802,6.2802,6.2802,6.2802,6.2802,6.2802,6.2802,6.2752,6.0663,5.9633,5.9483,5.9182,5.9232,5.9332,5.7104,5.5071,5.3314,5.2995,5.2895,5.2895,5.2895,5.2895,5.2895,0.0,0.0,0.0,0.0,0.0,0.0,0.0,0.0,0.0,0.0,1.9278,2.0166,0.0,0.0,0.0,0.0,0.0,0.0,0.0,0.0,0.0,3.5777,3.5631,3.5601,3.581,3.5601,3.5721,3.6169,3.6417,3.6798,3.7396,3.8191,3.8619,3.873,3.923,3.9469,3.9445,3.9114,3.8668,3.8036,3.655,3.5245,3.4023,3.2895,0.0,0.0,3.1396,3.1698,3.3169,4.0087,4.389,4.6261,4.9599,5.1875,5.3951,5.7248,5.9207,6.0758,6.2722,6.4149,6.4806,6.3902,6.2571,6.1194,6.0077,5.6847,5.2099,4.5035,4.2268,4.0154,3.6986,3.491,3.8479,5.3213,5.9664,6.2802,6.2802,6.2802,6.2802,6.2802,6.2701,6.3028,6.4099,6.3902,6.4032,6.4835,6.4475,6.3776,6.2852,6.2802,6.2802,6.2802,6.2802,6.2802,6.2802,6.2802,6.2802,6.2802,6.2802,6.2802,6.2777,6.1492,6.0406,5.9382,5.7575,5.7801,5.9332,5.7104,5.5974,5.5447,5.3615,5.2895,5.2895,5.2895,5.2895,5.2895,0.0,0.0,0.0,0.0,0.0,0.0,0.0,1.4942,1.638,1.8001,1.9643,2.0662,2.0605,2.28,2.4552,0.0,0.0,0.0,0.0,0.0,0.0,0.0,3.5511,3.5511,3.5511,3.5511,3.5511,3.5511,0.0,3.5511,3.5511,3.5818,3.5976,3.5982,3.5722,3.5628,3.5627,3.5581,3.5227,3.4695,3.436,3.3728,3.2885,0.0,0.0,0.0,2.9601,3.0826,3.3452,3.8337,4.3745,4.9172,5.3708,5.6244,5.8052,6.0512,6.222,6.355,6.4655,6.5961,6.6614,6.4931,6.3854,6.2125,5.81,5.388,4.8363,3.9635,3.6986,3.576,3.4095,3.4354,3.7637,4.6225,5.2302,5.7531,6.2149,6.105,6.0674,6.3103,6.3576,6.3898,6.4446,6.4325,6.4354,6.4705,6.4731,6.4178,6.2877,6.2802,6.2802,6.2802,6.2802,6.2802,6.2802,6.2802,6.2802,6.2802,6.2802,6.2802,6.2802,6.227,6.1115,5.9433,5.8378,5.7876,5.77,5.6627,5.62,5.5974,5.3766,5.2895,5.2895,5.2895,5.2895,5.2895,0.0,0.0,0.0,0.0,0.0,0.0,0.0,1.5015,1.6604,1.8717,2.046,2.1444,2.1249,2.315,2.4696,0.0,0.0,0.0,0.0,0.0,0.0,0.0,0.0,0.0,3.5511,0.0,0.0,3.5511,3.5511,0.0,0.0,0.0,0.0,0.0,3.4143,3.3705,3.373,3.3965,3.358,0.0,0.0,3.291,3.1716,0.0,0.0,0.0,0.0,2.9587,3.2793,3.5885,4.1278,4.7714,5.3633,5.7725,6.0543,6.1748,6.3577,6.535,6.5925,6.7427,6.8306,6.6315,6.5362,6.3318,5.7258,5.2313,4.5836,3.467,3.2398,3.2125,3.1217,3.3597,3.6482,3.8956,4.4317,5.0946,5.8861,5.8434,5.8961,6.3379,6.4274,6.4547,6.4651,6.4572,6.4597,6.4827,6.4781,6.4182,6.2877,6.2802,6.2802,6.2802,6.2802,6.2802,6.2802,6.2802,6.2802,6.2802,6.2802,6.2676,6.245,6.245,6.1391,5.9483,5.9156,5.7951,5.62,5.62,5.62,5.6025,5.4293,5.3314,5.2895,5.2895,5.2895,5.2895,0.0,0.0,0.0,0.0,0.0,0.0,0.0,1.5088,1.7099,2.0186,2.1374,2.2265,2.3126,2.4245,2.5152,0.0,0.0,0.0,0.0,0.0,0.0,0.0,0.0,0.0,0.0,0.0,0.0,3.5511,3.5511,0.0,0.0,0.0,0.0,0.0,0.0,3.2726,3.2738,3.2869,0.0,0.0,0.0,0.0,0.0,0.0,0.0,0.0,0.0,2.7269,2.8097,3.4098,3.663,3.8502,4.5573,5.3578,6.0242,5.991,6.2281,6.5173,6.5901,6.7679,6.9052,6.7874,6.6029,6.4115,6.2374,5.7028,4.8203,3.318,3.0112,3.0078,2.9978,3.1838,3.4447,3.7638,4.1217,4.5286,5.0117,5.5114,5.9684,6.3454,6.4274,6.4676,6.5179,6.4777,6.4902,6.5886,6.4735,6.3655,6.2852,6.2802,6.2802,6.2802,6.2802,6.2802,6.2802,6.2802,6.2802,6.2802,6.2802,6.2275,6.1361,6.1361,6.0683,5.9433,5.8077,5.7022,5.62,5.62,5.62,5.6175,5.5974,5.4669,5.2895,5.2895,5.2895,5.2895,0.0,0.0,0.0,0.0,0.0,0.0,1.4635,1.666,1.8979,2.171,2.3079,2.4087,2.4815,2.518,2.5342,2.5317,0.0,0.0,0.0,0.0,0.0,0.0,0.0,0.0,0.0,0.0,3.5511,3.5511,3.5511,0.0,0.0,0.0,0.0,0.0,0.0,3.1774,3.1781,3.1899,0.0,0.0,0.0,0.0,0.0,0.0,0.0,0.0,0.0,0.0,2.6824,2.8999,3.196,3.5126,3.7326,4.3699,5.1223,5.5584,5.8837,6.2061,6.6804,6.9704,7.0813,6.8382,6.7637,6.6616,6.35,5.0444,3.6471,2.7589,2.7907,3.0002,3.0643,3.1321,3.2788,3.5867,3.7864,4.1205,4.7405,5.0176,5.3891,6.0041,6.1793,6.337,6.5559,6.5283,6.4902,6.468,6.4103,6.348,6.2852,6.2802,6.2802,6.2802,6.2802,6.2802,6.2802,6.2802,6.2802,6.2802,6.233,6.1923,6.1472,6.0588,5.9929,5.9433,5.8202,5.7123,5.62,5.62,5.62,5.62,5.62,5.4845,5.2895,5.2895,5.2895,5.2895,0.0,0.0,0.0,0.0,0.0,1.3305,1.5446,1.7716,2.0233,2.3138,2.4494,2.5382,2.5949,2.5754,2.5476,2.521,2.6167,0.0,0.0,0.0,0.0,0.0,0.0,0.0,0.0,0.0,3.5511,3.5511,3.519,3.5067,0.0,0.0,3.3412,3.3341,0.0,0.0,0.0,0.0,0.0,0.0,0.0,0.0,0.0,0.0,0.0,0.0,0.0,0.0,0.0,0.0,0.0,3.1125,3.1298,3.5239,4.1507,5.0009,5.5924,6.098,6.6839,7.0039,7.1163,6.8849,6.7356,6.463,5.7571,4.2395,2.891,2.5734,2.7603,3.0106,3.1069,3.1266,3.2125,3.4712,3.6267,3.9472,4.615,4.7516,5.0302,5.6928,5.9056,6.119,6.4354,6.5032,6.4877,6.3776,6.3701,6.35,6.3078,6.2902,6.2802,6.2802,6.2802,6.2802,6.2802,6.2802,6.2727,6.2551,6.1999,6.1552,6.1246,6.006,5.9483,5.9458,5.8704,5.7549,5.62,5.62,5.62,5.6125,5.5472,5.4268,5.2895,5.2895,5.2895,5.2895,0.0,0.0,0.0,0.0,0.0,0.0,1.5742,1.7735,2.0362,2.4434,2.5336,2.5808,2.6429,2.5954,2.5611,2.5603,2.5611,0.0,0.0,0.0,0.0,0.0,0.0,0.0,0.0,0.0,3.5511,3.5511,3.4509,3.4033,3.3999,3.2662,3.2028,3.199,0.0,0.0,0.0,0.0,0.0,0.0,0.0,0.0,0.0,0.0,0.0,0.0,0.0,0.0,0.0,0.0,0.0,0.0,0.0,2.9894,3.2626,4.3263,5.4159,6.324,6.5508,6.7771,6.9439,6.9407,6.4465,5.6139,4.2939,3.467,2.9783,2.9732,2.9765,3.0022,3.0758,3.1598,3.2756,3.4427,3.7048,4.0627,4.5623,4.8184,5.1021,5.4981,5.6376,5.8158,6.0984,6.3722,6.4877,6.3776,6.3701,6.3701,6.3676,6.3128,6.2802,6.2802,6.2802,6.2802,6.2802,6.2802,6.2526,6.2019,6.1798,6.1201,6.0292,5.9759,5.9483,5.9483,5.9483,5.8227,5.62,5.62,5.62,5.5974,5.3791,5.2937,5.2895,5.2895,5.2895,5.2895,0.0,0.0,0.0,0.0,0.0,0.0,0.0,1.8329,2.1307,2.3301,2.4424,2.5416,2.6381,2.5619,2.5385,2.6139,2.5829,0.0,0.0,0.0,0.0,0.0,0.0,0.0,0.0,0.0,3.5157,3.4476,3.4559,3.4265,3.3571,3.2863,3.234,3.1988,3.1394,3.0584,0.0,0.0,0.0,0.0,0.0,0.0,2.4107,0.0,0.0,0.0,0.0,0.0,0.0,0.0,0.0,0.0,0.0,0.0,0.0,3.3585,4.0717,4.9803,6.2614,6.6612,6.7145,6.7139,6.2147,5.3758,4.0466,3.3478,2.8935,2.5839,2.7656,2.9721,2.9451,3.0636,3.2817,3.6371,3.8052,4.0225,4.4041,4.7481,5.0912,5.4429,5.9809,6.345,6.3948,6.4802,6.4877,6.3776,6.3701,6.3525,6.3103,6.2902,6.2802,6.2802,6.2802,6.2802,6.2802,6.2425,6.2169,6.1994,6.1291,6.0788,6.0462,5.9282,5.9031,5.9433,5.8428,5.7305,5.62,5.62,5.62,5.5974,5.3766,5.2895,5.2895,5.2895,5.2895,5.2895,0.0,0.0,0.0,0.0,0.0,0.0,0.0,1.8309,2.1211,2.2648,2.3685,2.4781,2.6029,2.536,2.5259,2.6399,2.5954,0.0,0.0,0.0,0.0,0.0,0.0,0.0,0.0,3.4253,3.4489,3.4628,3.429,3.3891,3.3506,3.3106,3.2599,3.2036,3.1333,3.0448,0.0,0.0,0.0,0.0,0.0,0.0,2.3108,0.0,0.0,0.0,0.0,0.0,0.0,0.0,0.0,0.0,0.0,0.0,0.0,0.0,3.2727,3.9282,5.4508,5.6811,5.4879,5.4902,5.1785,4.6553,3.8276,3.1669,2.6733,2.4773,2.6822,2.9056,2.9348,3.0484,3.2501,3.5906,3.7299,3.9245,4.2975,4.6476,5.0293,5.468,6.0563,6.4028,6.3475,6.4354,6.4551,6.345,6.3375,6.3178,6.2827,6.2802,6.2802,6.2802,6.2802,6.2802,6.2802,6.2275,6.1893,6.1692,6.0663,6.0085,5.9834,5.8579,5.8252,5.8604,5.7399,5.6602,0.0,5.62,5.5698,5.482,5.3439,5.2895,5.2895,5.2895,5.2895,5.2895,0.0,0.0,0.0,0.0,0.0,0.0,0.0,1.7772,2.02,2.219,2.2994,2.3908,2.5245,2.5043,2.5226,2.6348,0.0,0.0,0.0,0.0,0.0,0.0,0.0,0.0,0.0,3.2999,3.3515,3.5423,3.3686,3.3077,3.36,3.3259,3.271,3.1972,3.0939,3.0433,0.0,0.0,0.0,0.0,0.0,0.0,0.0,0.0,0.0,0.0,0.0,0.0,0.0,0.0,0.0,0.0,0.0,0.0,0.0,0.0,0.0,0.0,0.0,4.0846,3.6402,3.6404,3.6289,3.6044,3.5571,2.9055,0.0,2.5825,2.6981,2.8199,3.0122,3.0984,3.2024,3.3947,3.5591,3.8152,4.2498,4.5784,4.9959,5.5899,5.9483,6.119,6.0493,6.2868,6.3998,6.2877,6.2802,6.2802,6.2802,6.2802,6.2802,6.2752,6.2752,6.2752,6.2752,6.2199,6.1667,6.1135,6.003,5.9207,5.861,5.7675,5.7198,5.7072,5.6451,5.62,5.62,5.62,5.4895,5.2895,5.2895,5.2895,5.2895,5.2895,5.2895,5.2895,0.0,0.0,0.0,0.0,0.0,0.0,0.0,0.0,0.0,0.0,2.136,2.256,2.3304,2.4221,2.5067,0.0,0.0,0.0,0.0,0.0,0.0,0.0,0.0,0.0,0.0,3.2343,3.27,3.286,3.2817,3.2728,3.2569,3.292,3.2113,3.0391,3.0806,3.0008,0.0,0.0,0.0,0.0,0.0,0.0,0.0,0.0,0.0,0.0,2.3101,2.3101,0.0,0.0,0.0,0.0,0.0,0.0,0.0,0.0,2.9789,3.0365,3.2972,0.0,3.6403,3.6395,3.5123,3.2535,0.0,2.4592,2.3235,2.3783,2.5865,2.7964,2.9085,3.0458,3.2778,3.7034,3.8404,4.0162,4.3725,4.99,5.5698,6.0091,6.2822,6.3601,6.1793,6.2998,6.3576,6.2852,6.2802,6.2802,6.2802,6.2802,6.2601,6.2199,6.2174,6.2174,6.2174,6.1642,6.1165,6.0733,5.9885,5.9006,5.8052,5.6972,5.6018,5.5257,5.5917,5.62,5.62,5.62,5.4895,5.2895,5.2895,5.2895,5.2895,5.2895,5.2895,5.2895,0.0,0.0,0.0,0.0,0.0,0.0,0.0,0.0,0.0,0.0,0.0,2.1502,2.29,2.4099,0.0,0.0,0.0,0.0,0.0,0.0,0.0,0.0,0.0,0.0,3.1412,3.1349,3.1649,3.2378,3.2422,3.2669,3.3118,3.3453,3.2788,3.1269,3.0465,2.8631,0.0,0.0,0.0,0.0,2.4954,0.0,0.0,0.0,0.0,0.0,2.3101,2.3101,0.0,2.3101,2.3092,2.3099,0.0,0.0,0.0,0.0,2.9796,2.979,2.9802,3.1559,3.3361,3.3367,3.0922,2.7574,2.3931,2.31,2.3301,2.402,2.5719,2.7463,2.8675,3.0472,3.2993,3.6722,3.8454,4.1192,4.6512,5.2636,5.7832,6.1215,6.3124,6.3802,6.2873,6.3324,6.345,6.2852,6.2802,6.2802,6.2802,6.2802,6.2551,6.2019,6.1994,6.1893,6.1642,6.1065,6.0537,6.0085,5.9182,5.8177,5.7097,5.6477,5.5717,5.4881,5.5817,5.62,5.6125,5.5096,5.3992,5.2895,5.2895,5.2895,5.2895,5.2895,5.2895,5.2895,0.0,0.0,0.0,0.0,0.0,0.0,0.0,0.0,0.0,0.0,0.0,0.0,0.0,0.0,0.0,0.0,0.0,0.0,0.0,0.0,0.0,0.0,0.0,3.0305,3.1378,3.0343,3.0683,3.2514,3.2111,3.2632,3.4033,3.4209,3.3691,3.2472,2.9327,2.6625,0.0,0.0,0.0,0.0,2.4914,0.0,0.0,0.0,0.0,0.0,0.0,0.0,0.0,2.3094,2.3551,2.4115,2.4116,0.0,0.0,0.0,0.0,0.0,2.8774,2.8779,2.8892,2.9444,2.6722,2.374,2.3214,2.3105,2.3466,2.4774,2.5886,2.7163,2.8941,3.1219,3.366,3.6121,3.8768,4.3076,5.0377,5.487,5.8334,6.0909,6.2245,6.3028,6.3299,6.3475,6.335,6.2852,6.2706,6.2676,6.2676,6.2601,6.23,6.1768,6.1743,6.1441,6.0833,6.0392,5.989,5.9307,5.8177,5.7072,5.6025,5.5799,5.5422,5.497,5.5472,5.5698,5.5548,5.3665,5.2895,5.2895,5.2895,5.2895,5.2895,5.2895,5.2895,5.2895,0.0,0.0,0.0,0.0,0.0,0.0,0.0,0.0,0.0,0.0,0.0,0.0,0.0,0.0,0.0,0.0,0.0,0.0,0.0,0.0,0.0,0.0,2.9754,2.9901,3.0094,2.9911,3.0262,3.1204,3.1389,3.2108,3.3286,3.4209,3.3068,3.0127,2.5869,2.412,2.4383,0.0,0.0,0.0,2.372,0.0,0.0,0.0,0.0,0.0,0.0,0.0,0.0,2.3108,2.5626,2.878,2.8763,0.0,0.0,0.0,0.0,0.0,2.4132,2.4138,2.4841,2.7794,2.8017,2.6725,2.3774,2.3106,2.3179,2.3401,2.5434,2.7965,3.0548,3.3603,3.6946,4.0577,4.4985,4.9841,5.5229,5.7782,5.9633,6.1034,6.2617,6.3048,6.1712,6.2421,6.2902,6.2827,6.2375,6.2119,6.2119,6.1692,6.1165,6.0568,6.0568,6.0091,5.9087,5.9458,5.9257,5.8554,5.7148,5.6025,5.5221,5.3992,5.369,5.4142,5.364,5.3414,5.3372,5.3046,5.2895,5.2895,5.2895,5.2895,5.2895,5.2895,5.2895,5.2895,0.0,0.0,0.0,0.0,0.0,0.0,0.0,0.0,0.0,0.0,0.0,0.0,0.0,0.0,0.0,0.0,0.0,0.0,0.0,0.0,0.0,2.9814,2.9814,2.9814,2.9814,2.9806,3.0832,3.2956,3.311,3.3764,3.4868,3.4162,3.3042,3.1379,2.6927,2.4471,2.3719,2.4073,0.0,0.0,0.0,0.0,0.0,0.0,0.0,0.0,0.0,0.0,0.0,0.0,2.4467,2.618,2.6172,0.0,0.0,0.0,0.0,0.0,2.3103,2.5166,2.814,3.1594,3.0778,2.8683,2.7097,2.6105,2.565,2.6042,2.8166,3.0713,3.3157,3.6858,4.1281,4.6683,5.046,5.3632,5.62,5.8008,5.9483,6.0588,6.1667,6.227,6.2094,6.2501,6.2676,6.2375,6.2144,6.1868,6.1567,6.1336,6.0914,6.0317,6.0016,5.9357,5.8278,5.8183,5.7983,5.7631,5.6652,5.5717,5.4805,5.4127,5.3683,5.3389,5.3063,5.2895,5.2895,5.2895,5.2895,5.2895,5.2895,5.2895,5.2895,5.2895,5.2895,5.2895,0.0,0.0,0.0,0.0,0.0,0.0,0.0,0.0,0.0,0.0,0.0,0.0,0.0,0.0,0.0,0.0,0.0,0.0,0.0,0.0,2.9814,2.9814,2.9786,2.9793,2.98,2.9796,3.1792,3.5861,3.5881,3.6319,3.7107,3.438,3.2257,3.0613,2.7216,2.4732,2.3142,2.3808,2.3704,0.0,0.0,0.0,0.0,0.0,0.0,0.0,0.0,0.0,0.0,0.0,0.0,0.0,0.0,0.0,0.0,2.7225,2.5786,2.3108,2.31,2.6018,2.9701,3.2324,3.1774,3.0705,3.1241,3.1279,3.1066,3.0593,3.2232,3.4294,3.5978,4.0492,4.5904,5.19,5.4938,5.6771,5.7455,5.8761,5.9966,6.0794,6.1291,6.1893,6.2727,6.2701,6.2425,6.2044,6.1768,6.1416,6.0989,6.0738,6.0412,5.994,5.9408,5.8654,5.77,5.7104,5.6734,5.6627,5.6093,5.5315,5.4378,5.4253,5.3733,5.2895,5.2895,5.2895,5.2895,5.2895,5.2895,5.2895,5.2895,5.2895,5.2895,5.2895,5.2895,5.2895,0.0,0.0,0.0,0.0,0.0,0.0,0.0,0.0,0.0,0.0,0.0,0.0,0.0,0.0,0.0,0.0,0.0,0.0,0.0,0.0,2.9814,2.9814,2.9796,2.9795,2.9793,2.9794,3.2921,3.9348,3.9354,3.9396,3.9358,3.509,2.9772,2.3825,2.3491,2.3254,2.3101,2.3173,2.3173,0.0,0.0,0.0,0.0,0.0,0.0,0.0,0.0,0.0,0.0,0.0,0.0,0.0,0.0,0.0,2.3167,2.3497,2.3351,2.3106,2.3107,2.3379,2.3715,2.3975,2.8478,3.3395,3.5452,3.9019,4.0739,3.6692,3.7212,3.8471,3.8629,4.4368,5.041,5.4504,5.7851,6.0317,6.1441,6.2099,6.2551,6.2626,6.2676,6.2727,6.2802,6.235,6.2044,6.1994,6.102,6.0392,6.0367,5.9413,5.8861,5.8811,5.8284,5.7725,5.706,5.6527,5.6018,5.5491,5.4956,5.4378,5.3758,5.3239,5.2988,5.2895,5.2895,5.2895,5.2895,5.2895,5.2895,5.2895,5.2895,5.2895,5.2895,5.2895,5.2895,5.2895,0.0,0.0,0.0,0.0,0.0,0.0,0.0,0.0,0.0,0.0,0.0,0.0,0.0,0.0,0.0,0.0,0.0,0.0,0.0,0.0,2.9792,2.9816,2.9797,3.0433,3.1828,3.3204,3.5824,3.9707,3.8323,3.7109,3.5998,3.1914,2.7524,2.31,2.3087,2.3103,2.3101,2.3102,2.3097,2.309,0.0,0.0,0.0,0.0,0.0,0.0,0.0,0.0,0.0,0.0,2.311,2.3105,2.3106,2.3098,2.3099,2.3105,2.3101,2.309,2.3108,2.3109,2.3767,2.6567,2.7065,3.0358,4.3645,4.6725,4.6248,4.4321,4.396,4.4308,4.5354,4.9473,5.365,5.6495,5.9433,6.1622,6.2375,6.2676,6.2802,6.2802,6.2501,6.23,6.23,6.1818,6.119,6.0487,6.0035,5.9508,5.8855,5.8428,5.8033,5.7637,5.7129,5.657,5.6018,5.5465,5.4906,5.4336,5.4152,5.3909,5.3683,5.3138,5.2895,5.2895,5.2895,5.2895,5.2895,5.2895,5.2895,5.2895,5.2895,5.2895,5.2895,5.2895,5.2895,5.2895,0.0,0.0,0.0,0.0,0.0,0.0,0.0,0.0,0.0,0.0,0.0,0.0,0.0,0.0,0.0,0.0,0.0,0.0,2.9664,2.8468,2.8305,2.9741,2.979,3.0511,3.2014,3.3547,3.6421,4.0753,3.8867,3.6296,3.3042,3.0295,2.6893,2.3113,2.3398,2.3367,2.3101,2.3091,2.2211,2.0938,2.2482,2.3094,0.0,0.0,0.0,0.0,0.0,0.0,0.0,0.0,2.4043,2.4963,2.3541,2.3101,2.3101,2.3101,2.311,2.3105,2.3095,2.3095,2.4364,2.9611,2.7812,2.8952,4.5063,5.0091,5.155,5.2353,5.0184,4.8654,5.0327,5.267,5.5031,5.7273,6.0217,6.2375,6.2752,6.2802,6.2752,6.2576,6.2225,6.1943,6.1768,6.109,6.0356,5.9558,5.9182,5.8604,5.7675,5.7449,5.7097,5.6502,5.5968,5.5516,5.5157,5.4579,5.4152,5.3808,5.354,5.3439,5.3414,5.3063,5.2895,5.2895,5.2895,5.2895,5.2895,5.2895,5.2895,5.2895,5.2895,5.2895,5.2895,5.2895,5.2895,5.2895,0.0,0.0,0.0,0.0,0.0,0.0,0.0,0.0,0.0,0.0,0.0,0.0,0.0,0.0,0.0,0.0,0.0,0.0,2.9646,2.5565,2.5095,2.9542,2.9782,2.9797,2.9813,2.9852,3.4185,4.2958,4.1805,3.788,3.1453,3.111,2.8153,2.3171,2.4006,2.39,2.3101,2.3101,2.0302,1.629,2.1149,2.3101,0.0,0.0,0.0,0.0,0.0,0.0,0.0,0.0,2.6062,2.8959,2.451,2.3101,2.3101,2.3101,2.3105,2.3111,2.3145,2.3135,2.4745,3.1582,3.0843,3.0416,3.8059,4.828,5.7132,6.0516,5.5469,5.0954,5.2636,5.3364,5.4461,5.6634,6.0247,6.2802,6.2802,6.2802,6.2601,6.2069,6.1994,6.1768,6.1235,6.0155,5.9483,5.9458,5.8478,5.7606,5.701,5.6477,5.5942,5.5408,5.4856,5.4597,5.4572,5.4002,5.3808,5.3992,5.3264,5.2895,5.2895,5.2895,5.2895,5.2895,5.2895,5.2895,5.2895,5.2895,5.2895,5.2895,5.2895,5.2895,5.2895,5.2895,5.2895,5.2895,0.0,0.0,0.0,0.0,0.0,0.0,0.0,0.0,0.0,0.0,0.0,0.0,0.0,0.0,0.0,0.0,0.0,0.0,2.503,2.3836,2.3701,2.5022,2.8121,2.9789,2.9806,3.4365,3.8061,4.0671,3.722,3.532,3.4827,3.0445,2.7163,2.4886,2.3908,2.3353,2.311,2.3088,2.2263,2.1054,2.2523,2.3094,2.3101,0.0,0.0,0.0,0.0,0.0,0.0,0.0,0.0,0.0,2.3511,2.3088,2.3111,2.3097,2.3091,2.3781,2.6953,2.5502,2.3586,2.5642,3.1274,3.8142,4.5066,5.0416,5.533,6.0502,5.7791,5.4536,5.4637,5.5742,5.6746,5.696,5.994,6.2225,6.2225,6.2225,6.2195,6.2019,6.1296,6.0593,6.006,5.9357,5.8434,5.7273,5.6878,5.6294,5.5358,5.5157,5.4805,5.421,5.4034,5.3783,5.3389,5.3239,5.3163,5.3221,5.2995,5.2895,5.2895,5.2895,5.2895,5.2895,5.2895,5.2895,5.2895,5.2895,5.2895,5.2895,5.2895,5.2895,5.2895,5.2895,5.2895,5.2895,0.0,0.0,0.0,0.0,0.0,0.0,0.0,0.0,0.0,0.0,0.0,0.0,0.0,0.0,0.0,0.0,0.0,0.0,0.0,2.3095,2.3102,2.3094,2.7399,2.9806,2.9791,3.3726,3.5782,3.5754,3.3968,3.243,3.1053,2.8055,2.6144,2.5153,2.445,2.374,2.3098,2.3097,2.3102,2.309,2.3094,2.3097,2.3101,0.0,0.0,0.0,0.0,0.0,0.0,0.0,0.0,0.0,2.3096,2.311,2.3371,2.4767,2.4193,2.3683,2.6397,2.645,2.5976,2.6846,3.5408,4.537,5.2015,5.3864,5.5639,6.0643,5.8927,5.6552,5.6696,5.7173,5.7556,5.7656,5.9935,6.1667,6.1667,6.1667,6.1592,6.1346,6.0518,5.9784,5.9232,5.8284,5.728,5.6294,5.5817,5.5182,5.4278,5.4228,5.3976,5.3389,5.3364,5.3239,5.2895,5.2895,5.2895,5.2895,5.2895,5.2895,5.2895,5.2586,5.246,5.2477,5.2787,5.2895,5.2895,5.2895,5.2895,5.2895,5.2895,5.2895,5.2895,5.2895,5.2895,5.2895,0.0,0.0,0.0,0.0,0.0,0.0,0.0,0.0,0.0,0.0,0.0,0.0,0.0,0.0,0.0,0.0,0.0,0.0,0.0,0.0,2.3121,2.37,2.7619,2.9796,2.979,2.979,2.9614,2.9188,3.1186,2.9081,2.3135,2.4877,2.5325,2.4679,2.5391,2.4815,2.3329,2.317,2.3105,2.3101,2.3101,2.3101,2.3101,2.3101,0.0,0.0,0.0,0.0,0.0,0.0,0.0,0.0,2.3101,2.3107,2.3725,2.6902,2.5681,2.3299,2.3146,2.6674,3.0966,3.3395,4.2162,5.1783,5.7826,5.7786,5.7462,6.0825,5.9274,5.7612,5.866,5.7989,5.7606,5.8548,6.0055,6.1085,6.0984,6.0984,6.0763,6.0217,5.9633,5.9056,5.8535,5.7054,5.6075,5.5974,5.5082,5.4253,5.3658,5.3632,5.3389,5.2937,5.2895,5.2895,5.2895,5.2845,5.2837,5.2812,5.2812,5.2744,5.2686,5.1925,5.159,5.1641,5.2511,5.2895,5.2895,5.2895,5.2895,5.2895,5.2895,5.2895,5.2895,5.2895,5.2895,5.2895,0.0,0.0,0.0,0.0,0.0,0.0,0.0,0.0,0.0,0.0,0.0,0.0,0.0,0.0,0.0,0.0,0.0,0.0,0.0,0.0,2.3299,2.8144,2.9292,2.9801,2.9812,2.9795,2.8078,2.4529,2.5012,2.4507,2.3145,2.4875,2.5964,2.6416,2.5917,2.5488,2.506,2.3675,2.3105,2.3101,2.3101,2.3101,2.3101,2.3101,2.3101,0.0,0.0,0.0,0.0,0.0,0.0,0.0,2.3101,2.3098,2.3259,2.3994,2.4662,2.4851,2.3463,2.8906,3.5938,3.9879,4.7882,5.5148,5.6575,5.7895,5.9039,5.9819,5.9765,5.9664,5.9915,5.9765,5.9388,5.8786,5.9689,6.0191,5.9357,5.9238,5.9187,5.9062,5.8158,5.733,5.6778,5.6043,5.5189,5.431,5.4009,5.3658,5.3113,5.3063,5.3013,5.2895,5.2895,5.2895,5.2895,5.2485,5.2201,5.2042,5.2042,5.1724,5.1147,5.0393,5.0067,5.0167,5.2084,5.2895,5.2895,5.2895,5.2895,5.2895,5.2895,5.2895,5.2895,5.2895,5.2895,5.2895,0.0,0.0,0.0,0.0,0.0,0.0,0.0,0.0,0.0,0.0,0.0,0.0,0.0,0.0,0.0,0.0,0.0,0.0,0.0,0.0,0.0,2.9571,2.9806,2.9811,2.9796,2.7701,2.5456,2.3096,2.3099,2.3104,0.0,2.4887,2.6391,2.7581,2.6268,2.57,2.5589,2.3839,2.3105,2.3101,2.3101,2.3101,2.3101,2.3101,2.3101,2.3101,2.3101,0.0,0.0,0.0,0.0,0.0,0.0,0.0,2.311,2.3096,2.3751,2.4439,2.4366,3.0151,3.8075,4.5813,5.201,5.6191,5.6201,5.79,5.9501,5.9484,5.9716,5.9935,5.9935,5.9714,5.9263,5.8434,5.8535,5.8516,5.7964,5.7656,5.7506,5.7506,5.6753,5.6125,5.5842,5.5064,5.4336,5.3733,5.3439,5.3088,5.2561,5.2511,5.2385,5.2151,5.2126,5.2126,5.2126,5.185,5.1565,5.1264,5.1264,5.0887,5.0184,5.0042,4.9841,4.9665,5.082,5.1306,5.1306,5.1306,5.1933,5.2895,5.2895,5.2895,5.2895,5.2895,5.2895,5.2895,0.0,0.0,0.0,0.0,0.0,0.0,0.0,0.0,0.0,0.0,0.0,0.0,0.0,0.0,0.0,0.0,0.0,0.0,0.0,0.0,0.0,2.9637,2.9792,2.9437,2.8654,2.4997,2.3103,2.3104,2.3097,0.0,0.0,0.0,0.0,2.7784,2.6335,2.5707,2.5608,2.4163,2.3372,2.3101,2.3101,2.3101,2.3101,2.3101,0.0,2.3101,2.3101,2.3101,2.3101,2.3101,0.0,0.0,0.0,0.0,2.3096,2.3102,2.3105,2.3491,2.5242,3.2175,4.1176,5.0551,5.4277,5.5728,5.6109,5.7617,5.9001,5.9176,5.9262,5.927,5.9145,5.873,5.8208,5.7575,5.7054,5.6702,5.6602,5.62,5.5917,5.5917,5.544,5.5107,5.5107,5.416,5.3532,5.3432,5.3013,5.2536,5.2,5.1975,5.1749,5.1314,5.1289,5.1239,5.1163,5.1063,5.0837,5.0494,5.0494,5.0117,4.9414,5.0001,5.0017,4.959,4.959,4.959,4.959,4.959,5.0695,5.2385,5.2744,5.2895,5.2895,5.2895,5.2895,5.2895,0.0,0.0,0.0,0.0,0.0,0.0,0.0,0.0,0.0,0.0,0.0,0.0,0.0,0.0,0.0,0.0,0.0,0.0,2.2878,0.0,0.0,2.9768,2.9808,2.7982,2.4077,2.3413,2.3105,2.3098,0.0,0.0,0.0,0.0,0.0,2.6043,0.0,2.5706,2.5677,2.5458,2.447,2.3101,2.3101,2.3101,2.3101,0.0,0.0,0.0,2.3101,2.3101,2.3101,2.3101,2.3101,0.0,0.0,0.0,2.3101,2.3096,2.3099,2.3484,2.5236,3.7909,5.1012,5.2517,5.3125,5.3856,5.5762,5.6428,5.6931,5.7913,5.8341,5.8353,5.7724,5.7386,5.6903,5.591,5.5666,5.5458,5.4999,5.4873,5.4805,5.4805,5.4303,5.3934,5.3934,5.3364,5.2812,5.2352,5.2251,5.1975,5.144,5.1414,5.1364,5.1289,5.1289,5.1063,5.0528,5.0067,4.9791,4.9757,4.9757,4.9364,4.8661,4.9389,4.9665,4.959,4.959,4.959,4.959,4.959,4.9766,5.0243,5.2159,5.2895,5.2895,5.2895,5.2895,5.2895,0.0,0.0,0.0,0.0,0.0,0.0,0.0,0.0,0.0,0.0,0.0,0.0,0.0,0.0,0.0,2.0779,2.1006,2.1312,2.1676,2.4427,2.7177,2.9684,2.7386,2.5126,2.3142,2.4056,2.4073,2.3097,0.0,0.0,0.0,2.6708,2.6098,0.0,0.0,0.0,0.0,2.4654,2.3804,2.3101,2.3101,2.3101,0.0,0.0,0.0,0.0,0.0,0.0,2.3101,2.3101,2.3101,2.3101,2.3101,0.0,0.0,0.0,2.3094,2.3821,2.7104,3.837,4.9789,5.2263,5.2909,5.3155,5.4123,5.4863,5.5279,5.5131,5.571,5.6346,5.6625,5.6257,5.5719,5.5039,5.468,5.4361,5.4127,5.3833,5.3658,5.3658,5.3414,5.3264,5.3264,5.2762,5.236,5.2126,5.1825,5.1398,5.082,5.0795,5.0519,4.9924,4.9882,4.9606,4.8997,4.8987,4.8862,4.8661,4.9289,4.9414,4.9088,4.8184,4.8209,4.8962,4.8736,4.9012,4.959,4.959,4.959,4.969,5.067,5.1055,5.1205,5.2443,5.2109,5.1247,0.0,0.0,0.0,0.0,0.0,0.0,0.0,0.0,0.0,0.0,0.0,0.0,0.0,0.0,0.0,0.0,2.0756,2.0779,2.1213,2.241,2.4596,2.795,2.4886,2.3308,2.3752,2.4605,2.44,0.0,0.0,0.0,2.5104,2.7741,2.757,0.0,2.4619,2.4904,0.0,0.0,0.0,0.0,0.0,2.311,0.0,0.0,0.0,0.0,0.0,0.0,0.0,2.3101,2.3101,2.3101,2.3101,2.3101,0.0,0.0,0.0,2.4085,2.8578,3.8281,4.7873,5.0881,5.2279,5.2903,5.2907,5.3576,5.3969,5.3321,5.3707,5.4393,5.5207,5.5056,5.4684,5.4253,5.3783,5.3507,5.3507,5.3163,5.2895,5.2895,5.2895,5.2862,5.2711,5.2335,5.1975,5.1682,5.1297,5.0745,5.0026,4.9992,4.9565,4.8601,4.8576,4.83,4.7691,4.7857,4.7782,4.749,4.836,4.8761,4.8711,4.7039,4.6888,4.7933,4.7616,4.8184,4.9314,4.9213,4.9339,4.959,4.959,4.959,4.9791,5.1456,5.1021,4.9916,0.0,0.0,0.0,0.0,0.0,0.0,0.0,0.0,0.0,0.0,0.0,0.0,0.0,2.0925,2.063,1.8753,1.9815,2.1261,2.287,2.3048,2.3194,2.3429,2.3232,0.0,2.5522,2.403,2.3196,0.0,0.0,0.0,2.3354,2.839,3.0666,3.0423,2.8778,2.7165,2.5599,0.0,0.0,0.0,0.0,0.0,0.0,0.0,0.0,0.0,0.0,0.0,0.0,2.3101,2.3101,2.3101,2.3101,2.3101,2.3101,0.0,0.0,0.0,2.8575,3.9414,4.92,4.8379,5.0538,5.2918,5.2892,5.2945,5.3169,5.381,5.3433,5.3002,5.3056,5.3611,5.3812,5.3088,5.2945,5.2945,5.2945,5.2937,5.2895,5.2895,5.2895,5.2711,5.2201,5.2126,5.1649,5.0578,5.0452,4.9992,4.8944,4.8894,4.8601,4.7983,4.7958,4.7691,4.7149,4.6662,4.6386,4.6386,4.6436,4.6461,4.6461,4.6336,4.6336,4.6411,4.6386,4.7214,4.8535,4.8159,4.8636,4.959,4.959,4.959,4.9615,4.9715,4.969,4.9916,0.0,0.0,0.0,0.0,0.0,0.0,0.0,0.0,0.0,0.0,0.0,0.0,0.0,2.0784,2.0977,2.1037,2.128,2.1919,2.3031,2.3103,2.3099,2.309,2.4168,2.5065,2.5698,2.3993,0.0,0.0,0.0,2.3096,2.3214,2.8448,3.0889,3.0777,2.7906,2.6897,2.7337,2.6696,0.0,0.0,0.0,0.0,0.0,0.0,0.0,0.0,0.0,2.311,2.3101,2.3101,0.0,0.0,0.0,2.3101,2.3101,2.3101,2.3103,2.4084,2.8594,3.3275,3.7646,4.0773,4.6196,5.0511,4.9428,5.0578,5.2135,5.3105,5.2717,5.2126,5.191,5.264,5.3215,5.2937,5.2895,5.2787,5.2435,5.2385,5.226,5.1925,5.1875,5.18,5.1615,5.1247,5.0829,5.0427,4.9766,4.9204,4.8818,4.8426,4.7983,4.74,4.7039,4.6562,4.5884,4.5683,4.5834,4.6286,4.6286,4.6286,4.6286,4.6286,4.6286,4.6286,4.6286,4.6602,4.7079,4.6913,4.7114,4.7631,4.9038,4.959,4.959,4.959,4.959,4.9715,0.0,0.0,0.0,0.0,0.0,0.0,0.0,0.0,0.0,0.0,0.0,0.0,0.0,0.0,2.1136,2.2206,2.2052,2.2244,2.304,2.3102,2.3362,2.3952,2.5068,2.5427,2.4845,2.4269,0.0,0.0,0.0,0.0,0.0,2.6657,2.8582,2.9072,2.7352,2.7814,0.0,0.0,0.0,2.6264,0.0,0.0,2.7422,0.0,0.0,0.0,2.427,2.354,2.3501,2.3199,2.3102,0.0,0.0,0.0,0.0,2.3101,2.3103,2.4085,2.8589,2.9787,3.0677,3.4347,4.0253,4.5527,4.6894,4.8822,5.0613,5.1607,5.1545,5.1263,5.1121,5.1797,5.2318,5.2183,5.2259,5.2251,5.1875,5.1825,5.1699,5.1339,5.1289,5.1138,5.0761,5.0368,4.9975,4.9599,4.8887,4.8426,4.825,4.7857,4.7315,4.6587,4.6035,4.5432,4.4844,4.4819,4.4945,4.5196,4.5573,4.5934,4.6286,4.6035,4.606,4.6301,4.6035,4.606,4.6286,4.6286,4.6286,4.6512,4.8736,4.959,4.959,4.959,4.959,4.959,0.0,0.0,0.0,0.0,0.0,0.0,0.0,0.0,0.0,0.0,0.0,0.0,0.0,0.0,0.0,2.1863,2.1946,2.2274,2.3051,2.3109,2.385,2.5554,2.561,2.4857,2.3201,0.0,0.0,0.0,0.0,0.0,0.0,0.0,2.4029,2.5774,2.741,2.9918,3.2899,0.0,3.3088,3.2535,0.0,2.3218,2.387,0.0,0.0,2.8033,2.5483,2.4544,2.4385,2.3484,2.3144,0.0,0.0,0.0,0.0,0.0,0.0,2.4073,0.0,0.0,0.0,2.9793,3.3227,3.8424,4.5419,4.7677,4.8507,4.9345,4.9866,5.0286,5.0589,5.0964,5.1072,5.0689,5.0989,5.1289,5.1264,5.1264,5.1264,5.1239,5.1214,5.0787,4.9665,4.954,4.9088,4.7967,4.7867,4.7641,4.7124,4.7074,4.6562,4.5487,4.488,4.4418,4.407,4.407,4.3718,4.3,4.4066,4.5156,4.6225,4.5508,4.5583,4.6235,4.5533,4.5633,4.6286,4.6286,4.6286,4.6512,4.8661,4.954,4.959,4.959,4.959,4.959,0.0,0.0,0.0,0.0,0.0,0.0,1.4997,1.516,0.0,0.0,0.0,0.0,0.0,0.0,2.2528,2.2756,2.2783,2.2849,2.309,2.3105,2.3324,2.3809,2.3822,2.4188,2.4964,0.0,0.0,0.0,0.0,2.3105,2.3108,2.3112,0.0,0.0,2.4888,2.5734,2.7983,3.1576,0.0,3.2614,2.7173,2.6172,2.8273,3.1319,3.153,2.9995,2.8658,2.775,2.6993,2.5493,2.4131,2.3098,0.0,0.0,0.0,0.0,0.0,0.0,2.8583,0.0,0.0,0.0,0.0,0.0,3.8667,4.0643,4.3726,4.6626,4.6378,4.6371,4.8873,4.9056,4.8805,4.8691,5.016,5.1163,5.072,5.0653,5.0368,4.9581,4.9497,4.9204,4.8435,4.8385,4.8234,4.7917,4.7164,4.6838,4.7099,4.6361,4.5422,4.4317,4.4116,4.379,4.3316,4.3316,4.3215,4.3014,4.3302,4.4016,4.5066,4.4855,4.5031,4.5533,4.5859,4.611,4.6286,4.6286,4.6286,4.6361,4.6963,4.8184,4.959,4.959,4.959,4.959,0.0,0.0,0.0,0.0,0.0,1.6876,1.6876,1.7004,1.7362,0.0,0.0,0.0,0.0,0.0,0.0,2.3022,2.3103,2.3414,2.4145,2.3505,2.3111,2.3104,2.3806,2.4329,2.4601,2.3615,2.3105,2.3098,2.3105,2.3088,2.3108,2.3101,2.4027,0.0,0.0,0.0,0.0,0.0,3.0531,3.3002,3.1965,3.1386,3.1374,3.3171,3.2184,2.9838,3.0054,2.9822,2.9126,2.737,2.5511,2.3843,0.0,0.0,0.0,0.0,0.0,0.0,0.0,0.0,0.0,2.9804,0.0,0.0,3.3398,3.5198,3.8552,4.1946,4.3338,4.4578,4.6663,4.6979,4.6979,4.7205,4.8535,4.9499,4.9373,4.9348,4.9138,4.8501,4.8426,4.8184,4.7616,4.7566,4.7365,4.6928,4.6326,4.5984,4.6045,4.5246,4.4493,4.3815,4.3589,4.3327,4.3014,4.3014,4.3014,4.3014,4.3014,4.3327,4.394,4.4152,4.4428,4.4744,4.4869,4.5171,4.5633,4.611,4.6286,4.6286,4.6286,4.7104,4.8335,4.9264,4.959,4.959,0.0,0.0,1.7905,1.7905,1.8791,1.9508,1.9508,1.9508,1.9554,0.0,0.0,0.0,0.0,0.0,0.0,0.0,2.3273,2.4046,2.56,2.4243,2.3305,2.3107,2.4766,2.4885,2.3133,2.309,2.3094,2.3098,2.3302,2.3384,2.3387,2.3385,2.4227,2.5698,0.0,0.0,0.0,2.4374,2.7427,3.343,3.7376,3.7066,3.4251,3.4812,3.2457,2.9086,3.0699,3.1215,3.0845,2.9094,2.7142,2.5219,2.3831,0.0,0.0,0.0,2.3093,0.0,0.0,0.0,0.0,0.0,2.9797,0.0,2.9797,3.1516,3.3802,3.6307,4.0146,4.3268,4.3929,4.4593,4.5171,4.5583,4.6296,4.7074,4.7807,4.7908,4.7867,4.7817,4.7757,4.7516,4.6973,4.6873,4.6436,4.5472,4.5412,4.5121,4.4453,4.4041,4.3765,4.3714,4.3176,4.2939,4.3014,4.3014,4.3014,4.3014,4.3014,4.3014,4.3014,4.3489,4.3804,4.3944,4.3277,4.3539,4.4529,4.5784,4.6286,4.6286,4.6286,4.6286,4.6537,4.851,4.9389,4.959,0.0,0.0,1.9142,1.9142,1.9337,1.9508,1.9508,1.9508,1.9861,0.0,0.0,0.0,0.0,0.0,0.0,0.0,2.4374,2.5341,2.5687,2.5382,2.4555,2.315,2.476,2.4873,2.3137,2.3107,2.3094,2.3098,2.4506,2.5195,2.5197,2.5188,2.537,2.5704,2.5694,2.571,2.5831,2.7696,3.0286,3.3193,3.4038,3.7079,4.0678,3.7122,3.4393,3.2499,3.3347,3.3126,3.2161,3.0419,2.8867,2.7376,2.571,2.4897,2.4349,2.3385,0.0,0.0,0.0,0.0,0.0,2.9799,2.9813,0.0,2.9805,3.1512,3.3001,3.2673,3.4693,3.738,4.015,4.1466,4.2005,4.1692,4.3575,4.5759,4.7616,4.7908,4.7741,4.7299,4.6888,4.6401,4.5849,4.5382,4.4991,4.478,4.478,4.4353,4.3352,4.3614,4.3589,4.3176,4.2651,4.2576,4.2989,4.3014,4.3014,4.3014,4.3014,4.3014,4.3014,4.3101,4.3176,4.3215,4.3065,4.3126,4.3478,4.5472,4.6286,4.6286,4.6286,4.6286,4.6336,4.6763,4.8083,4.959,0.0,1.9641,2.0398,2.0398,2.0899,2.1309,2.1309,2.1309,0.0,0.0,0.0,0.0,0.0,0.0,0.0,0.0,0.0,0.0,0.0,2.571,2.5302,2.4428,2.5227,2.4891,2.3131,2.3108,2.3093,2.3104,2.4855,2.5706,2.5706,2.571,2.5702,2.571,2.569,2.5219,2.449,2.5872,2.9036,3.3105,3.3089,3.566,3.9253,3.6915,3.5468,3.4655,3.439,3.3974,3.3375,3.2178,3.0432,2.8391,2.6348,2.4928,2.3886,2.3277,2.4692,2.7161,3.0518,3.1463,3.171,3.2828,3.1425,0.0,0.0,3.3039,3.1601,3.2134,3.2244,3.345,3.734,3.8253,3.868,3.9572,4.1078,4.2836,4.4784,4.6014,4.6602,4.6336,4.5809,4.5357,4.507,4.478,4.4503,4.4227,4.3714,4.3277,4.3,4.2735,4.2585,4.2587,4.2046,4.2021,4.2587,4.2864,4.2813,4.2448,4.2824,4.2813,4.2448,4.2838,4.3014,4.3014,4.3014,4.3014,4.309,4.4206,4.5296,4.6286,4.6286,4.6286,4.6286,4.6286,4.6988,4.7958,1.9423,0.0,2.138,2.1614,2.2448,2.3101,2.3101,2.3101,0.0,0.0,0.0,0.0,0.0,0.0,0.0,0.0,0.0,0.0,0.0,2.571,2.5694,2.5698,2.5701,2.5046,2.3627,2.3604,2.36,2.3602,2.5004,2.569,2.5706,2.5706,2.5695,2.5702,2.5355,2.4602,2.3588,2.3231,2.7716,3.5005,3.5011,3.4916,3.4833,3.5543,3.5536,3.5104,3.4577,3.4335,3.4204,3.3614,3.1457,2.8752,2.7182,2.5508,2.4391,2.5858,2.7958,3.0202,3.1981,3.2776,3.3538,3.5323,3.3716,3.2789,0.0,0.0,0.0,3.2105,3.1122,3.1081,3.4767,3.5228,3.5606,3.7324,3.8605,3.9735,4.0753,4.2838,4.4382,4.4809,4.4227,4.3901,4.4127,4.375,4.3449,4.3338,4.2235,4.1897,4.2624,4.1804,4.1517,4.2009,4.1441,4.1491,4.2199,4.2411,4.2322,4.1945,4.2562,4.2537,4.197,4.2688,4.3014,4.3014,4.3014,4.3014,4.3014,4.3226,4.4493,4.6286,4.6286,4.6286,4.6286,4.6286,4.6286,4.6286,2.0375,2.0943,2.1636,2.272,2.3005,2.3101,2.3101,2.3101,0.0,0.0,0.0,0.0,0.0,0.0,0.0,0.0,0.0,0.0,2.5691,0.0,2.5694,2.5698,2.5706,2.5596,2.5401,2.5395,2.5396,2.5397,2.5599,2.569,2.5706,2.5706,2.571,2.5632,2.4086,2.4133,2.5295,2.3757,3.0365,4.188,4.1878,3.7242,3.0683,3.3897,3.3902,3.2406,3.406,3.4495,3.4214,3.3601,3.1158,2.8638,2.9902,2.911,2.9049,3.5817,3.4013,2.984,3.0102,3.161,3.3149,3.3424,3.6055,3.7223,3.2082,0.0,2.9873,3.0104,0.0,3.0803,3.1792,0.0,0.0,3.3018,3.5894,3.7751,3.6448,3.8216,4.0376,4.235,4.1605,4.1354,4.2361,4.0703,4.0099,4.1478,4.0149,3.9911,4.1414,4.1364,4.1314,4.1403,4.0876,4.1103,4.2199,4.1254,4.1254,4.2174,4.2249,4.2249,4.2174,4.2738,4.3014,4.3014,4.3014,4.3014,4.3076,4.4041,4.5156,4.6286,4.6286,4.6286,4.6286,4.6286,4.6286,4.6286,2.0547,2.1175,0.0,2.2884,2.3101,2.3101,2.3101,2.4196,0.0,0.0,0.0,0.0,0.0,0.0,0.0,0.0,0.0,3.0632,0.0,0.0,0.0,2.5741,2.4722,2.4669,2.567,2.5698,2.5702,2.5708,2.5708,2.5695,2.5706,2.5696,2.5693,2.5674,2.4941,2.4453,2.4469,2.8936,3.3308,3.7605,4.1436,3.9586,3.4613,3.5946,3.5314,3.3797,3.429,3.4978,3.5689,3.6066,3.4326,3.2463,3.5168,3.5491,3.5541,3.8764,3.7741,3.5549,3.5539,3.6223,3.7245,3.8512,3.6388,3.3242,3.044,2.9798,3.0034,3.0909,0.0,0.0,0.0,0.0,0.0,0.0,3.356,3.4614,3.4589,3.5403,3.7085,3.9937,3.8994,3.8555,3.966,3.9245,3.9195,3.9848,3.8944,3.8969,4.0287,4.0362,4.0499,4.0826,4.0312,4.04,4.1217,4.0738,4.0738,4.1217,4.1884,4.2009,4.1706,4.2598,4.3014,4.3014,4.3014,4.3014,4.3076,4.4152,4.488,4.5382,4.6035,4.6286,4.6286,4.6286,4.6286,4.6286,1.9787,0.0,0.0,2.2403,2.2873,2.314,2.3268,2.4543,2.5401,0.0,0.0,0.0,2.8195,2.9557,0.0,0.0,3.3146,3.3068,0.0,0.0,2.7511,2.5787,2.4939,2.4887,2.568,2.5702,2.5698,2.5706,2.5706,2.5706,2.5706,2.5685,2.5448,2.5009,2.5488,2.4742,2.3678,3.2627,3.5469,3.4372,3.8589,3.993,3.9167,3.7286,3.642,3.6133,3.5521,3.5881,3.6814,3.8186,3.7891,3.7357,3.9471,3.9937,3.9691,3.9688,3.9705,3.97,3.9701,3.9701,3.9785,4.0196,3.4999,2.9871,3.0165,3.0639,3.1266,3.2107,3.167,0.0,0.0,0.0,3.0994,3.1828,0.0,3.2591,3.2932,3.3119,3.4285,3.7185,3.6872,3.6759,3.7688,3.7625,3.7788,3.8391,3.7324,3.7412,3.9145,3.922,3.9546,4.0261,3.9898,3.9948,4.0487,4.0362,4.0437,4.0725,4.1569,4.182,4.1592,4.2548,4.3014,4.3014,4.3014,4.3014,4.3051,4.384,4.4252,4.4453,4.5131,4.5773,4.6286,4.6286,4.6286,4.6286,1.7789,1.8768,0.0,2.1157,2.2307,2.3248,2.3711,2.3458,2.3803,0.0,0.0,0.0,0.0,0.0,0.0,0.0,0.0,3.0275,2.8273,0.0,2.753,2.5772,2.7262,2.7367,2.5738,2.5708,2.5709,2.5706,2.5706,2.5706,2.5706,2.5698,2.4806,2.325,2.4944,2.4721,2.3666,3.261,3.6367,3.6134,3.4196,3.7197,4.2201,3.6426,3.6099,3.8713,3.8095,3.7323,3.6925,3.9036,4.1089,4.2566,4.1568,4.0546,3.9714,3.9717,3.9705,3.9696,3.9684,3.9707,3.8698,3.4459,3.1588,3.0067,3.1114,3.2756,3.3867,3.3194,3.385,3.4237,3.323,0.0,0.0,0.0,3.2361,0.0,0.0,3.116,3.2114,3.3847,3.5452,3.6619,3.7173,3.5314,3.4963,3.7098,3.4773,3.4661,3.7877,3.8053,3.8567,3.9697,3.971,3.9948,4.0487,3.9998,4.0249,4.1264,4.1314,4.1617,4.2199,4.2738,4.3014,4.3014,4.3014,4.3014,4.3014,4.3039,4.3352,4.379,4.3277,4.4407,4.6286,4.6286,4.6286,4.6286,0.0,0.0,0.0,2.1235,2.2304,2.3454,2.4496,2.5237,2.5692,2.5707,2.8888,3.2374,3.5498,4.1321,4.5342,0.0,0.0,4.2412,4.0349,3.3811,2.9248,2.7501,2.6873,2.6853,0.0,2.6872,2.7075,2.8138,2.6502,2.571,2.5706,2.5702,2.5382,2.4849,2.545,2.6649,2.8821,3.7217,4.076,4.0705,3.9943,4.1002,4.2832,4.129,3.9913,3.8669,3.7894,3.8065,3.8767,3.908,4.0668,4.2457,4.2431,4.1847,4.0961,3.9976,3.9703,4.0025,4.1488,4.2951,4.301,3.8567,3.5795,3.4004,3.3402,3.3922,3.4156,3.2786,3.3952,3.4792,3.3355,0.0,0.0,0.0,0.0,3.1522,0.0,3.0241,3.0809,3.21,3.3732,3.4385,3.3456,3.3018,3.3244,3.4396,3.3255,3.3635,3.6208,3.74,3.8366,3.9145,3.9509,3.9798,3.9973,3.9798,4.0074,4.0775,4.0775,4.1279,4.2199,4.24,4.2663,4.3014,4.3014,4.3014,4.3039,4.3377,4.3427,4.3302,4.3617,4.3894,4.4292,4.5759,4.6286,4.6286,2.0189,0.0,2.1345,2.1523,2.2809,2.4323,2.5873,2.8813,2.9719,2.6565,3.5829,4.3748,4.6448,4.9868,5.2523,0.0,5.205,4.8977,4.475,4.0867,0.0,3.2834,2.9958,2.8687,0.0,0.0,2.9614,2.9853,2.7889,2.6518,2.5697,2.5702,2.5708,2.5706,2.57,2.7294,3.0351,3.6208,4.0357,4.307,4.3846,4.3694,4.3141,4.4399,4.2784,3.972,3.889,3.9343,4.0276,3.9885,4.0841,4.2292,4.284,4.2663,4.2103,4.1146,4.0884,4.1169,4.2626,4.4628,4.552,4.2268,3.9487,3.7121,3.5387,3.5433,3.5517,3.4248,3.5255,3.6133,3.5314,0.0,0.0,0.0,0.0,0.0,0.0,2.9814,3.0065,3.0743,3.2114,3.2753,3.2074,3.1938,3.2164,3.2727,3.2064,3.2606,3.4817,3.6309,3.7551,3.8555,3.9496,3.9898,3.9697,4.0074,4.0437,4.0775,4.1003,4.1594,4.2487,4.2487,4.2663,4.3014,4.3014,4.3014,4.3039,4.3377,4.3302,4.3065,4.3517,4.3416,4.3266,4.5472,4.6286,4.6286,2.0589,2.1002,2.1696,2.21,2.379,2.5761,2.7772,3.3546,3.5395,2.9033,4.4193,5.6597,5.9206,5.7612,5.6358,5.6375,5.4236,4.9739,4.2272,4.8356,0.0,0.0,3.6393,3.3119,3.1617,0.0,0.0,0.0,2.9833,2.8037,2.5828,2.5735,2.5706,2.5708,2.5703,2.6659,2.8432,3.0461,3.5854,4.3173,4.529,4.4876,4.3224,4.5336,4.4407,4.1841,4.1088,4.0989,4.1212,4.1264,4.1681,4.2299,4.2788,4.2971,4.3005,4.3055,4.3055,4.3055,4.3079,4.4636,4.5969,4.481,4.2137,3.9208,3.7046,3.7399,3.799,3.7399,3.7739,3.8291,3.8693,0.0,0.0,0.0,0.0,0.0,2.9939,2.9814,2.9814,2.9839,3.0718,3.1748,3.2839,3.1959,3.1537,3.2079,3.115,3.1526,3.3746,3.4892,3.6247,3.7914,3.9609,4.0275,3.9747,4.0775,4.1314,4.1339,4.1895,4.2436,4.3014,4.2975,4.2975,4.3014,4.3014,4.3014,4.3014,4.3014,4.3014,4.3014,4.3014,4.3014,4.3266,4.5472,4.6286,4.6286,2.3886,2.4493,2.5022,2.4787,2.4935,2.6267,2.9744,3.363,3.8283,4.4159,4.617,5.022,5.8604,5.8991,5.8653,5.8654,5.5114,5.2055,0.0,0.0,0.0,4.7168,4.2427,4.0143,4.1075,3.8979,3.7713,3.7386,3.18,2.8532,2.7535,2.6279,2.5706,2.5701,2.5705,2.6666,2.8698,3.4827,3.9584,4.304,4.362,4.3505,4.3061,4.3624,4.3389,4.2557,4.1271,4.0506,4.0157,4.057,4.1354,4.2224,4.235,4.2681,4.3103,4.3653,4.3832,4.3874,4.4108,4.4825,4.5155,4.3751,4.2155,4.0524,3.9145,3.9684,4.0073,3.8743,3.9521,3.9759,3.7462,0.0,0.0,0.0,0.0,0.0,2.9839,2.9814,2.9965,3.0347,3.0281,3.0316,3.0618,3.0392,3.0432,3.0964,3.0382,3.0959,3.319,3.4703,3.6083,3.7374,3.9421,4.0437,4.03,4.0976,4.1542,4.1984,4.1681,4.2057,4.2989,4.2601,4.2612,4.3014,4.3014,4.3014,4.3014,4.3014,4.3014,4.3014,4.3014,4.3014,4.3266,4.5472,4.6286,4.6286,2.5332,2.6673,2.765,2.7181,2.9171,3.1605,3.3912,3.6922,4.151,4.8557,5.0776,5.4059,6.0271,6.0099,5.9496,5.9495,5.6334,5.4745,5.5727,0.0,0.0,5.0929,4.8273,4.6872,4.727,4.306,0.0,3.8035,3.2818,2.9559,2.8157,2.6475,2.571,2.5699,2.5698,2.8505,3.3614,3.892,4.1853,4.301,4.3002,4.2995,0.0,4.3003,4.3003,4.2897,4.2052,4.1075,4.0229,4.0539,4.1337,4.2249,4.2475,4.2763,4.3115,4.3775,4.4262,4.4546,4.4432,4.5016,4.5243,4.3437,4.2859,4.2331,4.0763,4.0876,4.0976,3.9823,3.9948,3.9772,0.0,3.6182,3.39,3.1145,3.0181,2.9814,2.9814,2.9814,2.9905,3.0196,2.998,2.9814,2.9814,2.9814,2.993,3.0231,3.0417,3.0944,3.1938,3.4226,3.5896,3.681,3.971,4.1128,4.0851,4.2105,4.2559,4.2199,4.2082,4.2384,4.2989,4.2688,4.2838,4.3327,4.3101,4.3126,4.3327,4.3115,4.3014,4.3014,4.3014,4.319,4.3653,4.5045,4.5884,4.6286,2.5952,2.8206,2.9925,2.9476,3.4642,3.9069,3.9621,4.2512,4.5611,4.8314,5.5781,6.1329,6.2642,6.1076,5.9929,5.9933,5.7918,5.7454,5.9379,5.7425,5.5332,5.3429,5.3069,5.2252,5.0872,4.5915,4.1117,0.0,3.344,3.0715,2.839,2.6543,2.5695,2.5713,2.5811,3.1017,3.9827,4.2052,4.2993,4.2995,4.3006,4.3014,4.2992,4.3006,4.2987,4.2974,4.2674,4.1825,4.0862,4.0947,4.1506,4.2299,4.2838,4.3014,4.3126,4.374,4.447,4.5003,4.4517,4.5204,4.5626,4.3693,4.3801,4.3901,4.1955,4.1528,4.1378,4.0839,3.9936,3.9271,3.9446,3.6408,3.3043,3.0432,3.0015,3.003,3.0105,2.998,2.993,3.0015,2.9965,0.0,2.9905,2.9839,2.9814,2.9814,3.0658,3.1009,3.0623,3.3524,3.5519,3.627,3.9924,4.1744,4.1528,4.3424,4.379,4.2601,4.2864,4.3014,4.3014,4.3076,4.3352,4.379,4.3377,4.3427,4.3765,4.3302,4.3051,4.3014,4.3115,4.3492,4.4019,4.4428,4.5332,4.6286,2.7767,3.0342,3.2377,3.2017,3.775,4.3474,4.672,4.9828,5.2634,5.5011,5.5872,5.7922,6.2307,6.2449,6.2218,6.2216,6.0189,5.9078,5.9466,5.7427,5.6029,5.5649,5.3881,5.2486,5.1632,4.7308,4.3437,0.0,3.4606,3.1118,2.9547,2.6909,2.5689,2.573,2.6438,3.1588,3.9829,4.2059,4.3013,4.3004,4.2994,4.3014,4.2989,4.2995,4.3,4.2768,4.0934,4.0686,4.1269,4.1601,4.1939,4.2299,4.2838,4.3014,4.3176,4.4177,4.4576,4.4896,4.5693,4.5422,4.4798,4.4421,4.3797,4.3176,4.2799,4.2699,4.2548,4.2009,4.1354,4.0349,3.8605,3.5881,3.3294,3.1421,3.112,3.126,3.1712,3.1024,3.0623,3.107,3.0733,3.0447,3.0447,3.0055,2.9814,2.9814,2.9955,3.0231,3.0588,3.2466,3.4173,3.562,3.8555,4.0966,4.2699,4.3076,4.3754,4.4654,4.3528,4.3014,4.3014,4.3452,4.3714,4.3815,4.4177,4.4127,4.379,4.3689,4.3402,4.3065,4.3668,4.3603,4.3316,4.4252,4.5332,4.6286,3.019,3.2516,3.4849,3.6252,4.2477,4.8372,5.1572,5.5658,5.7948,5.6729,5.6587,5.7394,5.9572,6.159,6.2654,6.2256,6.1112,6.0122,5.9553,5.8498,5.7389,5.6254,5.4634,5.3333,5.2386,4.8125,4.3939,3.9902,3.5024,3.1302,2.8731,2.7118,2.6136,2.5746,2.6869,3.1644,3.8863,3.9368,4.0902,4.2992,4.2994,4.3014,4.3003,4.2994,4.2987,4.2856,4.1797,4.1754,4.2216,4.2406,4.2533,4.2663,4.2914,4.3014,4.3201,4.4278,4.4403,4.4428,4.5573,4.5257,4.4514,4.4252,4.379,4.3352,4.3051,4.3014,4.2838,4.2299,4.1731,4.0549,3.804,3.5805,0.0,3.3233,3.2641,3.2476,3.3018,3.239,3.1773,3.1446,3.0934,3.0497,3.0196,2.9955,2.9814,2.9814,3.0316,3.0507,3.0206,3.2035,3.3847,3.5458,3.8228,4.0639,4.2576,4.3413,4.3915,4.4041,4.3327,4.3014,4.3014,4.3553,4.3966,4.4227,4.4503,4.4579,4.4468,4.3689,4.3226,4.3039,4.3391,4.3779,4.4116,4.3865,4.4844,4.6286,3.3721,3.6024,3.8771,4.1678,4.779,5.2992,5.5142,5.9653,6.1547,5.8058,5.8384,5.8761,5.8265,6.097,6.2577,6.1987,6.1545,6.0989,6.024,5.9756,5.8516,5.6291,5.4931,5.3812,5.2927,4.8715,4.4038,3.8949,3.502,3.1162,2.7409,2.7129,2.6735,2.6312,2.8191,3.196,3.6931,3.7281,3.9594,4.301,4.2991,4.3014,4.2992,4.3003,4.2998,4.2998,4.2998,4.2998,4.2998,4.2998,4.2996,4.3014,4.3014,4.3014,4.3201,4.4278,4.4357,4.4324,4.5386,4.5146,4.4503,4.4091,4.379,4.3528,4.3115,4.3014,4.2838,4.2299,4.163,4.0349,3.7839,3.6408,0.0,3.4803,3.4198,3.3858,3.4037,3.3707,3.2979,3.1723,3.121,3.0648,2.9854,2.9814,2.9814,2.9814,3.0592,3.0693,2.9839,3.1683,3.347,3.5118,3.7877,4.0263,4.2174,4.3578,4.3976,4.3452,4.3165,4.3014,4.3025,4.3664,4.4252,4.4754,4.4905,4.5131,4.5307,4.3678,4.3014,4.3025,4.3251,4.4192,4.5282,4.4116,4.4794,4.6286,3.9232,4.2533,4.6007,4.854,5.3114,5.6687,5.7494,6.0564,6.2651,6.225,6.2275,6.2325,6.2275,6.2601,6.2773,6.2694,6.2058,6.1903,6.2458,6.0602,5.8525,5.6299,5.4184,5.3005,5.2906,4.9174,4.4524,3.9089,3.4654,3.0432,2.6536,2.6855,2.7337,2.8115,3.1709,3.3304,3.3621,3.8682,4.1673,4.2989,4.2999,4.3014,4.2989,4.2992,4.3006,4.3006,4.3006,4.3006,4.3006,4.3006,4.3003,4.3014,4.3014,4.3014,4.3201,4.4278,4.4824,4.5243,4.6019,4.5432,4.4604,4.4554,4.379,4.3051,4.3014,4.3014,4.2838,4.2299,4.1343,4.0036,3.8253,3.8253,3.7675,3.5104,3.549,3.5753,3.4753,3.4577,3.3961,3.233,3.2079,3.1451,2.9965,2.9814,2.9814,2.9814,2.9889,2.9914,2.9814,3.0919,3.2315,3.3997,3.6734,3.9459,4.2174,4.2838,4.3765,4.498,4.3628,4.3014,4.3025,4.4066,4.4754,4.5181,4.5859,4.616,4.6035,4.3879,4.3014,4.3115,4.4077,4.5181,4.6185,4.6035,4.611,4.6286,4.4564,4.6594,4.9244,5.2548,5.5288,5.7863,6.0442,6.1948,6.2802,6.2802,6.2802,6.2802,6.2802,6.2802,6.2627,6.2159,6.1706,6.123,6.0824,5.9996,5.8507,5.6305,5.4085,5.2887,5.2895,5.1426,4.7025,3.959,3.5083,3.1173,2.791,2.8557,2.9948,3.1968,3.3216,3.4955,3.7065,3.8896,4.0713,4.2369,4.2807,4.3014,4.3014,4.3014,4.3014,4.3014,4.3014,4.3014,4.3014,4.3014,4.3014,4.3014,4.3014,4.3,4.3198,4.4295,4.4889,4.5348,4.6094,4.5482,4.4589,4.4589,4.4041,4.3402,4.3076,4.3014,4.2939,4.2713,4.206,4.1117,3.9734,3.9183,3.8642,3.7839,3.7525,3.7198,3.6747,3.5795,3.4577,3.2918,3.1853,3.0849,2.9889,2.9814,2.993,3.0256,2.998,2.9814,2.9814,3.0216,3.1486,3.3822,3.5942,3.8379,4.1153,4.2372,4.3316,4.3865,4.3277,4.3014,4.3025,4.3905,4.4869,4.5884,4.616,4.6286,4.6235,4.5347,4.4206,4.3039,4.3478,4.4719,4.6286,4.6286,4.6286,4.6286,4.9766,5.1079,5.3132,5.6848,5.8166,5.962,6.24,6.2676,6.2576,6.2576,6.2425,6.2375,6.2551,6.2511,6.2341,6.2058,6.1807,6.1056,5.9596,5.8876,5.753,5.5338,5.374,5.2897,5.2895,5.2888,4.9746,4.3248,3.6966,3.2487,2.9881,3.1248,3.3051,3.5114,3.5512,3.7281,3.9922,3.991,4.0795,4.2276,4.2799,4.2992,4.3014,4.3014,4.3014,4.3,4.3003,4.2986,4.2997,4.2998,4.2995,4.3037,4.3263,4.3179,4.3212,4.4423,4.5141,4.5645,4.616,4.5608,4.4855,4.4855,4.4453,4.394,4.3564,4.3352,4.3176,4.3025,4.2562,4.1934,4.1142,4.0112,3.9383,3.9459,3.8919,3.8203,3.7375,3.6397,3.5029,3.3079,3.1662,3.0557,2.9864,2.9814,3.003,3.0573,3.0256,3.004,3.004,3.0181,3.1396,3.3822,3.5817,3.8052,4.0487,4.2171,4.3014,4.3014,4.3014,4.3014,4.3039,4.3879,4.4995,4.6286,4.6286,4.6286,4.6286,4.6286,4.5372,4.398,4.398,4.492,4.6286,4.6286,4.6286,4.6286,5.4887,5.6617,5.8842,6.2134,6.2731,6.2752,6.2802,6.235,6.2019,6.2019,6.1542,6.1416,6.1943,6.1822,6.2007,6.2731,6.279,6.1852,5.9653,5.7462,5.5244,5.3031,5.2914,5.2918,5.292,5.2902,5.2314,5.1141,4.0624,3.4288,3.2115,3.4852,3.6361,3.6874,3.9336,4.0449,4.0588,4.2233,4.295,4.2972,4.2999,4.2995,4.3014,4.3014,4.3014,4.2983,4.2985,4.2995,4.3002,4.2994,4.3001,4.3121,4.3858,4.3601,4.3287,4.4775,4.5706,4.6275,4.63,4.5899,4.5487,4.5487,4.5045,4.4589,4.4564,4.4177,4.3639,4.3101,4.2562,4.2199,4.2174,4.1242,4.0149,3.9095,3.9333,3.8718,3.5921,3.6033,3.5342,3.2556,3.1738,3.0969,2.9914,2.9814,3.003,3.0573,3.0588,3.0588,3.0588,3.1085,3.2139,3.3847,3.6558,3.8781,4.0487,4.2171,4.3014,4.3014,4.3014,4.3014,4.3039,4.4116,4.5231,4.6286,4.6286,4.6286,4.6286,4.6286,4.6286,4.6261,4.6261,4.6261,4.6286,4.6286,4.6286,4.6286,5.7984,5.889,5.9885,6.0919,6.1748,6.225,6.225,6.2119,6.1994,6.1994,6.117,6.0643,6.0819,6.1149,6.1439,6.1697,6.0995,6.0238,5.9547,5.6005,5.3632,5.2944,5.29,5.2905,5.2895,5.2902,5.1991,5.0134,4.3639,3.9447,3.7502,3.8037,3.8881,3.9941,4.1504,4.2183,4.2258,4.3162,4.3327,4.3,4.3003,4.2992,4.3014,4.3014,4.3014,4.2983,4.301,4.3965,4.5232,4.5233,4.5258,4.5284,4.5526,4.4398,4.3247,4.4452,4.5514,4.6295,4.6291,4.6175,4.5949,4.5587,4.5361,4.5121,4.4704,4.4177,4.3639,4.3101,4.2864,4.2498,4.1717,4.1277,4.0675,3.9635,3.9283,3.8441,3.6395,3.5303,3.3947,3.1888,3.0869,3.0191,2.9839,3.0131,3.0422,3.0598,3.0934,3.0984,3.0623,3.1848,3.3154,3.4413,3.7173,3.9396,4.1026,4.2333,4.3014,4.3014,4.3014,4.3014,4.3051,4.492,4.5959,4.6386,4.7883,4.856,4.8435,4.6913,4.6286,4.6286,4.6286,4.6286,4.6286,4.6286,4.6286,4.6286,6.0035,6.0563,6.0944,6.0944,6.1697,6.23,6.23,6.2144,6.1943,6.1718,6.0869,6.0292,6.0292,6.0462,6.0557,6.0557,5.9907,5.9485,5.9497,5.6135,5.377,5.2931,5.3326,5.3352,5.2912,5.2893,5.222,5.0853,4.7165,4.4203,4.1951,4.172,4.209,4.2922,4.3614,4.3804,4.3614,4.3966,4.379,4.3302,4.3302,4.3176,4.3014,4.3014,4.3014,4.2995,4.2992,4.4414,4.63,4.6298,4.6304,4.6285,4.6307,4.5355,4.4378,4.5052,4.5745,4.6286,4.6286,4.6286,4.621,4.5874,4.5799,4.5648,4.5056,4.4669,4.4217,4.3452,4.3302,4.3011,4.2119,4.1578,4.1088,4.0412,3.9509,3.824,3.6344,3.4801,3.328,3.1597,3.0819,3.0392,3.0392,3.1275,3.1652,3.1215,3.2279,3.2606,3.1878,3.2817,3.4008,3.5303,3.7851,3.9986,4.1617,4.2735,4.3302,4.3302,4.3489,4.3678,4.3879,4.5106,4.6336,4.7631,4.8987,4.959,4.949,4.8109,4.7039,4.6286,4.6286,4.6286,4.6286,4.6286,4.6286,4.6286,6.1059,6.1567,6.1943,6.1943,6.235,6.2701,6.2752,6.2275,6.1768,6.126,6.0688,6.0292,6.0242,5.9784,5.9477,5.9496,5.9495,5.9433,5.9266,5.7337,5.522,5.2999,5.3924,5.3988,5.2912,5.2901,5.2827,5.2675,5.0605,4.8192,4.5499,4.5618,4.5663,4.5612,4.5612,4.5271,4.4665,4.4665,4.4328,4.379,4.379,4.3478,4.3014,4.3014,4.3039,4.3095,4.3078,4.4477,4.6309,4.6309,4.6286,4.6286,4.6286,4.6286,4.6286,4.6286,4.6286,4.6286,4.6286,4.6286,4.6286,4.6286,4.6286,4.6175,4.5638,4.5512,4.5185,4.4091,4.384,4.3639,4.3115,4.2094,4.1352,4.1264,3.9898,3.8052,3.5759,3.4552,3.328,3.1597,3.1497,3.1572,3.1572,3.2968,3.347,3.2455,3.429,3.5018,3.4073,3.4148,3.4963,3.6519,3.8705,4.0652,4.2299,4.3302,4.3815,4.3865,4.4403,4.488,4.5257,4.4905,4.6512,4.959,4.959,4.959,4.959,4.959,4.8309,4.6286,4.6286,4.6286,4.6286,4.6286,4.6286,4.6311,6.0588,6.0989,6.1411,6.1411,6.1492,6.1718,6.2144,6.1743,6.1361,6.121,6.0688,6.0141,5.9734,5.9207,5.9057,5.9457,5.9483,5.8769,5.7093,5.6484,5.5204,5.2999,5.3153,5.3174,5.2912,5.2906,5.2054,5.0381,4.9854,4.9231,4.8554,4.7716,4.7114,4.6722,4.6722,4.6185,4.5271,4.5271,4.4719,4.379,4.379,4.3478,4.3014,4.3014,4.3358,4.385,4.385,4.4905,4.6307,4.6295,4.6286,4.6286,4.6286,4.6286,4.6286,4.6286,4.6286,4.6286,4.6286,4.6286,4.6286,4.6286,4.6286,4.6175,4.5638,4.5512,4.5271,4.4554,4.4077,4.3639,4.3115,4.2423,4.1694,4.0839,3.9283,3.7425,3.5205,3.4313,3.328,3.1597,3.2516,3.3294,3.3294,3.3671,3.3972,3.4101,3.4591,3.4954,3.5118,3.6759,3.7889,3.8303,4.0451,4.2185,4.3402,4.3664,4.4016,4.4428,4.502,4.5547,4.6035,4.5934,4.7239,4.959,4.959,4.959,4.959,4.959,4.8309,4.6286,4.6286,4.6286,4.6286,4.6286,4.6286,4.6537,6.1145,6.1542,6.1843,6.1592,6.1768,6.2044,6.2325,6.2119,6.1743,6.126,6.0738,6.0111,5.9232,5.8861,5.8718,5.8763,5.8775,5.8038,5.6306,5.6211,5.5205,5.3006,5.2903,5.2895,5.2895,5.2895,5.2323,5.1109,5.0612,5.0123,4.958,4.8974,4.8385,4.7883,4.7591,4.7014,4.62,4.5698,4.5135,4.4543,4.4292,4.3976,4.374,4.374,4.3983,4.435,4.4559,4.5112,4.5836,4.6195,4.6286,4.6286,4.6286,4.6286,4.6286,4.6286,4.6286,4.6286,4.6286,4.6286,4.6286,4.6286,4.6286,4.621,4.5924,4.5874,4.5698,4.5131,4.4769,4.4317,4.3528,4.2738,4.1746,4.035,3.8743,3.686,3.4639,3.4087,3.3545,3.2641,3.3786,3.4739,3.5024,3.5741,3.5993,3.5504,3.6408,3.6998,3.7049,3.9195,4.0049,3.9283,4.1406,4.2964,4.379,4.4317,4.4844,4.5382,4.5723,4.6024,4.6311,4.701,4.7598,4.8159,4.9163,4.959,4.959,4.959,4.8887,4.7807,4.7807,4.7807,4.7807,4.7807,4.7807,4.7983,6.2019,6.2425,6.2651,6.2199,6.2425,6.2701,6.2802,6.2727,6.23,6.1391,6.0914,6.0161,5.8786,5.8623,5.8398,5.794,5.7744,5.7236,5.6267,5.5889,5.4872,5.2996,5.289,5.2895,5.2895,5.2895,5.2882,5.2894,5.1991,5.0893,4.9611,4.9589,4.9307,4.8793,4.8259,4.7691,4.7048,4.6125,4.5648,4.5462,4.493,4.4679,4.4589,4.4589,4.4654,4.479,4.5103,4.5314,4.5464,4.608,4.6286,4.6286,4.6286,4.6286,4.6286,4.6286,4.6286,4.6286,4.6286,4.6286,4.6311,4.6301,4.6306,4.6286,4.6286,4.6286,4.616,4.5698,4.5562,4.5185,4.4116,4.3025,4.1772,4.0099,3.8354,3.6445,3.4324,3.4087,3.4137,3.4137,3.533,3.6371,3.6959,3.824,3.8492,3.7235,3.873,3.9609,3.9409,4.1269,4.1708,4.035,4.2222,4.3503,4.4041,4.511,4.5899,4.6411,4.6336,4.6411,4.6728,4.7883,4.7817,4.6888,4.8786,4.959,4.959,4.959,4.959,4.959,4.959,4.959,4.959,4.959,4.959,4.959,6.2094,6.2425,6.2756,6.2701,6.2375,6.2275,6.2727,6.2275,6.1803,6.1647,6.1316,6.0431,5.8654,5.8196,5.7986,5.7908,5.7036,5.6383,5.6197,5.4445,5.3243,5.2894,5.289,5.2895,5.2895,5.2895,5.2904,5.2906,5.2725,5.1599,4.9586,4.9595,4.9307,4.8793,4.8718,4.8083,4.7099,4.6923,4.6336,4.5487,4.5412,4.5056,4.4589,4.4589,4.4905,4.5372,4.5432,4.5744,4.6145,4.6261,4.6286,4.6286,4.6286,4.6286,4.6286,4.6286,4.6286,4.6286,4.6286,4.6286,4.6301,4.6303,4.6315,4.6286,4.6286,4.6286,4.6261,4.6185,4.5839,4.5271,4.4604,4.3589,4.2322,4.0638,3.8592,3.6595,3.4815,3.4979,3.5244,3.5244,3.75,3.927,3.981,3.9697,3.9848,4.0499,4.0023,4.0288,4.1621,4.2436,4.295,4.3162,4.394,4.4644,4.5236,4.5874,4.6436,4.6973,4.6512,4.7029,4.84,4.8115,4.8391,4.9113,4.9439,4.959,4.959,4.959,4.959,4.959,4.959,4.959,4.959,4.959,4.959,4.959,6.2476,6.2626,6.2802,6.2802,6.2601,6.2501,6.2777,6.2505,6.2129,6.1753,6.0889,5.9957,5.9079,5.8328,5.7642,5.7043,5.6493,5.6195,5.6193,5.4123,5.2904,5.2901,5.2884,5.289,5.2895,5.2895,5.2895,5.2895,5.291,5.2371,5.1347,5.0156,4.9458,4.9229,4.8944,4.8325,4.7516,4.7224,4.6662,4.5924,4.5924,4.5759,4.5533,4.5533,4.5683,4.5924,4.5924,4.61,4.6286,4.6286,4.6286,4.6286,4.6286,4.6286,4.6416,4.6985,4.703,4.6904,4.6904,4.7034,4.7159,4.7155,4.7157,4.7164,4.7164,4.6938,4.6722,4.6722,4.6311,4.5673,4.4765,4.3714,4.2448,4.0763,3.8404,3.6607,3.6107,3.6006,3.6433,3.7626,3.9433,4.0889,4.1756,4.1368,4.1368,4.2158,4.1493,4.1632,4.2989,4.3578,4.4116,4.4694,4.497,4.5372,4.5924,4.6175,4.6587,4.7099,4.6848,4.7189,4.8049,4.8158,4.8737,4.959,4.959,4.959,4.959,4.959,4.959,4.959,4.959,4.959,4.959,4.959,4.959,4.959,6.2802,6.2802,6.2802,6.2802,6.2802,6.2802,6.2802,6.2631,6.2305,6.1672,6.0387,5.9411,5.9161,5.8177,5.7161,5.6276,5.62,5.6184,5.6186,5.4613,5.3678,5.368,5.3163,5.2896,5.2895,5.2895,5.2895,5.2895,5.2901,5.2886,5.2833,5.0646,4.9593,4.9593,4.9172,4.8576,4.7867,4.7616,4.7114,4.6486,4.6612,4.6662,4.6662,4.6662,4.6662,4.6677,4.6537,4.6486,4.6461,4.6336,4.6386,4.6486,4.6486,4.6562,4.6833,4.7667,4.7813,4.7755,4.7883,4.7972,4.8045,4.8043,4.7952,4.7908,4.7908,4.7591,4.7249,4.7124,4.6772,4.6135,4.5031,4.3915,4.2649,4.0964,3.8705,3.7261,3.7562,3.7462,3.809,4.0049,4.124,4.2256,4.3277,4.3014,4.2939,4.3352,4.2989,4.319,4.4141,4.4593,4.5081,4.5688,4.5688,4.5874,4.6301,4.6286,4.6637,4.7274,4.7174,4.7375,4.7933,4.8321,4.891,4.959,4.959,4.959,4.959,4.959,4.959,4.959,4.959,4.959,4.959,4.959,4.959,4.959,6.2802,6.2802,6.2802,6.2802,6.2802,6.2802,6.2802,6.2225,6.1647,6.1266,6.0211,5.9127,5.8113,5.7018,5.6302,5.6207,5.62,5.6194,5.6187,5.6045,5.5948,5.5956,5.3991,5.2903,5.2895,5.2895,5.2895,5.2895,5.2904,5.29,5.2852,5.0638,4.9595,4.9601,4.9561,4.8937,4.7917,4.8451,4.8033,4.7074,4.7566,4.7767,4.7767,4.7767,4.7767,4.7716,4.7224,4.7048,4.6973,4.6461,4.6637,4.7048,4.7048,4.739,4.7807,4.7873,4.8265,4.8822,4.9308,4.8954,4.8459,4.8447,4.8196,4.7908,4.7908,4.7867,4.7691,4.7199,4.7074,4.6697,4.5623,4.4507,4.3173,4.1515,4.0236,3.9308,3.8843,3.9609,4.0651,4.1872,4.295,4.3826,4.4428,4.4453,4.4453,4.4478,4.4453,4.4704,4.5336,4.5412,4.5673,4.621,4.6235,4.6261,4.6286,4.6286,4.6813,4.7842,4.7324,4.7917,4.943,4.8777,4.8903,4.959,4.959,4.959,4.959,4.959,4.959,4.959,4.959,4.959,4.959,4.959,4.959,4.959,6.2802,6.2802,6.2802,6.2802,6.2425,6.2255,6.2752,6.2154,6.1572,6.126,6.0205,5.9102,5.8018,5.6878,5.6211,5.62,5.62,5.62,5.62,5.62,5.5591,5.4231,5.3352,5.2895,5.2895,5.2895,5.2895,5.2895,5.2895,5.2891,5.2886,5.2035,5.0914,4.9618,4.9945,4.949,4.8476,4.8718,4.8325,4.7616,4.7817,4.7908,4.7908,4.7908,4.7908,4.7867,4.7666,4.7591,4.7566,4.7365,4.7415,4.7591,4.7591,4.7741,4.7983,4.835,4.8853,4.9321,4.9549,4.965,4.9611,4.9273,4.9307,4.9348,4.9038,4.8702,4.8284,4.7716,4.7324,4.6772,4.5698,4.4844,4.4102,4.346,4.1854,4.1115,4.227,4.2208,4.2598,4.407,4.4895,4.5432,4.5633,4.5347,4.5296,4.5633,4.5347,4.5397,4.5974,4.6311,4.6587,4.6772,4.7114,4.6963,4.6311,4.6286,4.6839,4.7902,4.7701,4.8293,4.959,4.9314,4.9339,4.959,4.959,4.959,4.959,4.959,4.959,4.959,4.959,4.959,4.959,4.959,4.959,4.959,6.2802,6.2802,6.2802,6.2802,6.238,6.2074,6.2099,6.1798,6.1341,6.0738,6.0004,5.9127,5.8151,5.7153,5.6453,5.6226,5.62,5.62,5.62,5.5551,5.4494,5.296,5.2894,5.2909,5.2895,5.2895,5.2895,5.2895,5.2895,5.289,5.2885,5.2886,5.1909,5.0115,5.013,4.9644,4.8818,4.8994,4.8727,4.8184,4.836,4.8335,4.8209,4.8385,4.8335,4.8184,4.8184,4.8184,4.8159,4.7958,4.8033,4.8184,4.8184,4.8309,4.851,4.8928,4.9305,4.959,4.959,4.9992,5.0277,4.9741,4.9891,5.0051,4.9665,4.933,4.8878,4.8284,4.7883,4.734,4.6426,4.5784,4.5317,4.5156,4.3862,4.341,4.4916,4.4644,4.4784,4.6115,4.6577,4.6788,4.6788,4.6476,4.6401,4.6763,4.6451,4.6401,4.6763,4.7164,4.735,4.735,4.7716,4.7556,4.6813,4.6632,4.711,4.8185,4.7982,4.8498,4.959,4.959,4.959,4.959,4.959,4.959,4.959,4.959,4.959,4.959,4.959,4.959,4.959,4.959,4.959,4.969,6.2802,6.2802,6.2802,6.2802,6.2802,6.23,6.0839,6.0959,6.0783,5.9633,5.9483,5.9208,5.8467,5.7732,5.6987,5.6257,5.62,5.62,5.6219,5.4146,5.2933,5.2919,5.2912,5.2901,5.2895,5.2895,5.2895,5.2895,5.2895,5.2895,5.2912,5.291,5.2329,5.1247,5.0115,4.9324,4.8843,4.938,4.9305,4.8853,4.938,4.928,4.8868,4.9405,4.928,4.8818,4.8818,4.8818,4.8702,4.8109,4.8309,4.8818,4.8818,4.9179,4.9615,4.959,4.959,4.9615,4.959,4.9992,5.0277,4.9741,4.9615,4.9615,4.9615,4.9615,4.9455,4.8919,4.8793,4.8626,4.8008,4.7465,4.6923,4.6386,4.6311,4.6311,4.6311,4.6772,4.7299,4.7842,4.7908,4.7908,4.7908,4.7908,4.7908,4.7908,4.7908,4.7908,4.7908,4.7908,4.7908,4.7908,4.7908,4.7917,4.7917,4.7382,4.7673,4.8793,4.8189,4.8514,4.959,4.959,4.959,4.959,4.959,4.959,4.959,4.959,4.959,4.959,4.959,4.959,4.959,4.959,4.9615,4.9941,6.2727,6.2802,6.2802,6.2802,6.2476,6.2024,6.1472,6.0894,6.0311,5.9583,5.9182,5.8724,5.8102,5.7612,5.7004,5.6251,5.62,5.6209,5.6219,5.557,5.521,5.5221,5.3725,5.2901,5.2895,5.2895,5.2895,5.2895,5.2895,5.2895,5.2895,5.2898,5.2732,5.2354,5.098,5.0197,4.9916,4.969,4.9506,4.938,4.9556,4.949,4.938,4.9556,4.949,4.9355,4.9355,4.9355,4.933,4.9138,4.9213,4.9355,4.9355,4.9715,5.0092,4.9715,4.9866,5.0076,4.969,4.9992,5.0352,5.0201,5.0151,5.0268,5.0711,5.0167,4.954,4.9405,4.9053,4.8626,4.8008,4.7767,4.7616,4.744,4.7415,4.7581,4.7999,4.82,4.835,4.8501,4.8526,4.8375,4.7942,4.7908,4.7908,4.7908,4.7908,4.7908,4.7908,4.8284,4.8526,4.8526,4.8903,4.9088,4.9088,4.8153,4.8038,4.8812,4.8614,4.8903,4.959,4.959,4.959,4.959,4.959,4.959,4.959,4.959,4.959,4.959,4.959,4.959,4.959,4.959,5.0594,5.2009,6.245,6.2476,6.2476,6.2476,6.2044,6.1642,6.1522,6.0643,5.9809,5.9257,5.871,5.8158,5.7606,5.7404,5.7002,5.6251,5.6188,5.6197,5.6208,5.6189,5.5814,5.4922,5.3611,5.2901,5.2895,5.2895,5.2895,5.2895,5.2895,5.2895,5.2895,5.2895,5.2908,5.2844,5.1968,5.1013,5.0072,4.9952,4.9791,4.959,4.959,4.9464,4.9305,4.9515,4.9464,4.9305,4.9515,4.959,4.959,4.959,4.959,4.959,4.959,4.9816,5.0051,4.9967,5.0167,5.0377,5.0293,5.0519,5.082,5.1021,5.0904,5.0845,5.1214,5.0761,5.0193,4.9967,4.9665,4.9264,4.8686,4.8586,4.8586,4.8586,4.8586,4.8686,4.9079,4.9129,4.9129,4.9129,4.9129,4.8978,4.8611,4.8586,4.8586,4.8586,4.8586,4.8586,4.8586,4.8928,4.9129,4.9129,4.943,4.959,4.959,4.8912,4.8759,4.9099,4.8825,4.9142,5.0033,4.9715,4.959,4.959,4.959,4.959,4.959,4.959,4.959,4.959,4.959,4.959,4.959,4.959,5.1005,5.2895,6.2094,6.1969,6.1943,6.1943,6.1517,6.1185,6.1135,6.0205,5.9307,5.8761,5.8202,5.7625,5.7085,5.7129,5.6947,5.6251,5.6186,5.6128,5.5922,5.608,5.5204,5.2992,5.2903,5.2894,5.2895,5.2895,5.2895,5.2895,5.2895,5.2895,5.2895,5.2895,5.2891,5.2903,5.2894,5.1783,4.9916,5.0262,5.0101,4.9665,4.9615,4.933,4.9003,4.9506,4.938,4.9003,4.9506,4.964,4.959,4.959,4.9615,4.9665,4.9665,4.9741,4.9916,5.0352,5.0503,5.0653,5.1163,5.1339,5.149,5.1975,5.1774,5.144,5.144,5.1364,5.1163,5.067,5.0477,5.0252,4.9766,4.9615,4.959,4.959,4.959,4.959,4.959,4.959,4.959,4.959,4.959,4.959,4.959,4.959,4.9615,4.9665,4.9665,4.969,4.9741,4.9741,4.9757,4.9748,4.969,4.9665,4.9663,4.9665,4.9665,4.959,4.8912,4.9318,5.0586,4.9907,4.9715,4.9891,4.9891,4.9891,4.9866,4.9665,4.959,4.959,4.959,4.959,4.959,4.959,5.1005,5.2895,6.1943,6.1667,6.1366,6.1366,6.1285,6.1059,6.0588,5.9935,5.9307,5.8761,5.7832,5.7204,5.723,5.6771,5.6376,5.62,5.6191,5.5472,5.3723,5.5243,5.5204,5.2992,5.2914,5.2893,5.2895,5.2895,5.2895,5.2895,5.2895,5.2895,5.2895,5.2895,5.2896,5.289,5.2911,5.2641,5.2127,5.0911,5.0327,5.0176,4.9766,4.9791,5.0067,5.0176,5.0151,5.0051,5.0176,4.9967,4.959,4.959,4.9891,5.0226,5.0226,5.0845,5.1498,5.1172,5.1398,5.1674,5.1389,5.1615,5.195,5.2076,5.2335,5.2561,5.2561,5.19,5.1389,5.1674,5.1005,5.0377,5.0252,4.9891,4.959,4.959,4.959,4.959,4.959,4.959,4.959,4.959,4.959,4.959,4.959,4.959,4.9766,5.0176,5.0226,5.0444,5.0912,5.0937,5.0944,5.0924,5.046,5.0225,5.0238,5.0225,5.0011,4.959,4.9459,4.9534,4.9816,4.9665,5.0544,5.2184,5.2184,5.2184,5.2059,5.0318,4.959,4.959,4.959,4.959,4.959,4.959,5.1005,5.2895,6.1296,6.119,6.111,6.0814,6.0563,6.0362,6.0292,5.9408,5.8629,5.8353,5.733,5.6652,5.6753,5.6746,5.6577,5.6226,5.5732,5.4949,5.3799,5.5274,5.521,5.2992,5.2903,5.2895,5.2895,5.2895,5.2895,5.2895,5.2895,5.2895,5.2895,5.2895,5.2895,5.2912,5.2908,5.2707,5.2329,5.1532,5.1055,5.0795,5.0519,5.0419,5.0427,5.072,5.0494,5.0067,5.0302,5.0067,4.964,4.9891,5.0151,5.0452,5.0745,5.1247,5.1699,5.1674,5.1875,5.2101,5.2076,5.2277,5.2485,5.2485,5.2686,5.2895,5.2895,5.246,5.2076,5.2101,5.1624,5.103,5.0503,5.0151,4.9992,4.9992,4.9992,5.0092,5.0385,5.041,5.041,5.041,5.041,5.0293,5.0017,4.9992,5.0117,5.0377,5.0402,5.067,5.1264,5.1289,5.1305,5.1309,5.0987,5.0825,5.083,5.0823,5.0682,5.0413,5.021,5.0234,5.0435,5.0946,5.1808,5.2895,5.2895,5.2895,5.2795,5.1657,5.1155,5.1155,5.1155,5.1155,5.1155,5.1155,5.1908,5.2744,6.0693,6.0688,6.0738,6.0242,5.9809,5.9659,6.0111,5.888,5.7901,5.7901,5.6922,5.62,5.62,5.6746,5.6872,5.6251,5.53,5.4675,5.4505,5.5323,5.4935,5.2989,5.289,5.2895,5.2895,5.2895,5.2895,5.2895,5.2895,5.2895,5.2895,5.2895,5.2895,5.2895,5.2895,5.256,5.1973,5.2075,5.185,5.1414,5.1214,5.0971,5.0728,5.1122,5.0761,5.0067,5.0444,5.0218,4.9791,5.0126,5.0452,5.0754,5.1163,5.144,5.1649,5.2126,5.2251,5.2335,5.2787,5.2895,5.2895,5.2895,5.2895,5.2895,5.2895,5.2895,5.2787,5.2335,5.2159,5.1825,5.0854,5.0603,5.0553,5.0553,5.0553,5.0745,5.1239,5.1289,5.1289,5.1289,5.1289,5.1113,5.0603,5.0553,5.0578,5.0678,5.0678,5.0946,5.1523,5.1565,5.1573,5.1555,5.1473,5.1447,5.1432,5.1449,5.1393,5.1305,5.1139,5.1147,5.1339,5.241,5.2694,5.236,5.2737,5.2895,5.2895,5.2895,5.2895,5.2895,5.2895,5.2895,5.2895,5.2895,5.2644,5.2134,6.1034,6.0356,5.9684,5.9608,5.9533,5.9508,5.9583,5.8629,5.7901,5.7901,5.6922,5.62,5.62,5.6276,5.6301,5.62,5.5652,5.4953,5.4122,5.4217,5.389,5.2929,5.289,5.2895,5.2895,5.2895,5.2895,5.2895,5.2895,5.2895,5.2895,5.2895,5.2895,5.2895,5.2895,5.2845,5.2727,5.2285,5.2076,5.19,5.0921,5.1055,5.1825,5.1465,5.1473,5.1724,5.1314,5.0795,5.0226,4.9841,5.067,5.18,5.1414,5.195,5.2711,5.2787,5.2787,5.2812,5.287,5.2895,5.2895,5.2895,5.2895,5.2895,5.2895,5.2895,5.2887,5.2812,5.241,5.2051,5.19,5.1498,5.1188,5.1188,5.1188,5.1214,5.1289,5.1289,5.1289,5.1289,5.1289,5.1264,5.1188,5.1188,5.1373,5.185,5.1875,5.2109,5.2661,5.2686,5.2661,5.267,5.2229,5.1984,5.1987,5.1987,5.1762,5.133,5.22,5.2151,5.1339,5.241,5.1858,5.0142,5.2059,5.2895,5.2895,5.2895,5.2895,5.2895,5.2895,5.2895,5.2895,5.2895,5.1682,5.0268,6.0311,6.0085,5.9859,5.9558,5.9483,5.9408,5.9106,5.8403,5.7901,5.7901,5.6922,5.6301,5.6627,5.6376,5.6093,5.5767,5.5257,5.4623,5.3882,5.3545,5.3239,5.2905,5.2901,5.2895,5.2895,5.2895,5.2895,5.2895,5.2895,5.2895,5.2895,5.2895,5.2895,5.2895,5.2895,5.2895,5.287,5.2661,5.2561,5.2511,5.2009,5.1908,5.2126,5.2176,5.1975,5.1615,5.1389,5.1138,5.0921,5.0971,5.1498,5.2126,5.2176,5.2511,5.2895,5.2895,5.2895,5.2895,5.2895,5.2895,5.2895,5.2895,5.2895,5.2895,5.2895,5.2895,5.2895,5.2895,5.2711,5.246,5.2176,5.19,5.1749,5.1749,5.1749,5.185,5.2151,5.2184,5.2184,5.2184,5.2184,5.2076,5.1791,5.1749,5.185,5.2076,5.2101,5.2335,5.2887,5.2895,5.2895,5.2895,5.2674,5.2538,5.2538,5.2538,5.2423,5.2191,5.266,5.2335,5.1339,5.241,5.236,5.1507,5.2485,5.2895,5.2895,5.2895,5.2895,5.2895,5.2895,5.2895,5.2895,5.2895,5.2285,5.1582]}]]